[[{"header":{"parameterUnit":"m.s-1","parameterCategory":1,"la1":30.6,"la2":28.766,"lo1":-90.7593,"lo2":-88.6598,"dx":0.0162,"dy":0.0183,"nx":116,"ny":114,"refTime":"2023-01-05T18:00:00:Z","depth":0,"parameterNumber":2,"parameterNumberName":"U-component_of_WINDS"},"data":[0.0,0.0,0.0,0.0,0.0,0.0,0.0,0.0,0.0,0.0,0.0,0.0,0.0,0.0,0.0,0.0,0.0,0.0,0.0,0.0,0.0,0.0,0.0,0.0,0.0,0.0,0.0,0.0,0.0,0.0,0.0,0.0,0.0,0.0,0.0,0.0,0.0,0.0,0.0,0.0,0.0,0.0,0.0,0.0,0.0,0.0,0.0,0.0,0.0,0.0,0.0,0.0,0.0,0.0,0.0,0.0,0.0,0.0,0.0,0.0,0.0,0.0,0.0,0.0,0.0,0.0,0.0,0.0,0.0,0.0,0.0,0.0,0.0,0.0,0.0,0.0,0.0,0.0,0.0,0.0,0.0,0.0,0.0,0.0,0.0,0.0,0.0,0.0,0.0,0.0,0.0,0.0,0.0,0.0,0.0,0.0,0.0,0.0,0.0,0.0,0.0,0.0,0.0,0.0,0.0,0.0,0.0,0.0,0.0,0.0,0.0,0.0,0.0,0.0,0.0,0.0,0.0,0.0,0.0,0.0,0.0,0.0,0.0,0.0,0.0,0.0,0.0,0.0,0.0,0.0,0.0,0.0,0.0,0.0,0.0,0.0,0.0,0.0,0.0,0.0,0.0,0.0,0.0,0.0,0.0,0.0,0.0,0.0,0.0,0.0,0.0,0.0,0.0,0.0,0.0,0.0,0.0,0.0,0.0,0.0,0.0,0.0,0.0,0.0,0.0,0.0,0.0,0.0,0.0,0.0,0.0,0.0,0.0,0.0,0.0,0.0,0.0,0.0,0.0,0.0,0.0,0.0,0.0,0.0,0.0,0.0,0.0,0.0,0.0,0.0,0.0,0.0,0.0,0.0,0.0,0.0,0.0,0.0,0.0,0.0,0.0,0.0,0.0,0.0,0.0,0.0,0.0,0.0,0.0,0.0,0.0,0.0,0.0,0.0,0.0,0.0,0.0,0.0,0.0,0.0,0.0,0.0,0.0,0.0,0.0,0.0,0.0,0.0,0.0,0.0,0.0,0.0,0.0,0.0,0.0,0.0,0.0,0.0,0.0,0.0,0.0,0.0,0.0,0.0,0.0,0.0,0.0,0.0,0.0,0.0,0.0,0.0,0.0,0.0,0.0,0.0,0.0,0.0,0.0,0.0,0.0,0.0,0.0,0.0,0.0,0.0,0.0,0.0,0.0,0.0,0.0,0.0,0.0,0.0,0.0,0.0,0.0,0.0,0.0,0.0,0.0,0.0,0.0,0.0,0.0,0.0,0.0,0.0,0.0,0.0,0.0,0.0,0.0,0.0,0.0,0.0,0.0,0.0,0.0,0.0,0.0,0.0,0.0,0.0,0.0,0.0,0.0,0.0,0.0,0.0,0.0,0.0,0.0,0.0,0.0,0.0,0.0,0.0,0.0,0.0,0.0,0.0,0.0,0.0,0.0,0.0,0.0,0.0,0.0,0.0,0.0,0.0,0.0,0.0,0.0,0.0,0.0,0.0,0.0,0.0,0.0,0.0,0.0,0.0,0.0,0.0,0.0,0.0,0.0,0.0,0.0,0.0,0.0,0.0,0.0,0.0,0.0,0.0,0.0,0.0,0.0,0.0,0.0,0.0,0.0,0.0,0.0,0.0,0.0,0.0,0.0,0.0,0.0,0.0,0.0,0.0,0.0,0.0,0.0,0.0,0.0,0.0,0.0,0.0,0.0,0.0,0.0,0.0,0.0,0.0,0.0,0.0,0.0,0.0,0.0,0.0,0.0,0.0,0.0,0.0,0.0,0.0,0.0,0.0,0.0,0.0,0.0,0.0,0.0,0.0,0.0,0.0,0.0,0.0,0.0,0.0,0.0,0.0,0.0,0.0,0.0,0.0,0.0,0.0,0.0,0.0,0.0,0.0,0.0,0.0,0.0,0.0,0.0,0.0,0.0,0.0,0.0,0.0,0.0,0.0,0.0,0.0,0.0,0.0,0.0,0.0,0.0,0.0,0.0,0.0,0.0,0.0,0.0,0.0,0.0,0.0,0.0,0.0,0.0,0.0,0.0,0.0,0.0,0.0,0.0,0.0,0.0,0.0,0.0,0.0,0.0,0.0,0.0,0.0,0.0,0.0,0.0,0.0,0.0,0.0,0.0,0.0,0.0,0.0,0.0,0.0,0.0,0.0,0.0,0.0,0.0,0.0,0.0,0.0,0.0,0.0,0.0,0.0,0.0,0.0,0.0,0.0,0.0,0.0,0.0,0.0,0.0,0.0,0.0,0.0,0.0,0.0,0.0,0.0,0.0,0.0,0.0,0.0,0.0,0.0,0.0,0.0,0.0,0.0,0.0,0.0,0.0,0.0,0.0,0.0,0.0,0.0,0.0,0.0,0.0,0.0,0.0,0.0,0.0,0.0,0.0,0.0,0.0,0.0,0.0,0.0,0.0,0.0,0.0,0.0,0.0,0.0,0.0,0.0,0.0,0.0,0.0,0.0,0.0,0.0,0.0,0.0,0.0,0.0,0.0,0.0,0.0,0.0,0.0,0.0,0.0,0.0,0.0,0.0,0.0,0.0,0.0,0.0,0.0,0.0,0.0,0.0,0.0,0.0,0.0,0.0,0.0,0.0,0.0,0.0,0.0,0.0,0.0,0.0,0.0,0.0,0.0,0.0,0.0,0.0,0.0,0.0,0.0,0.0,0.0,0.0,0.0,0.0,0.0,0.0,0.0,0.0,0.0,0.0,0.0,0.0,0.0,0.0,0.0,0.0,0.0,0.0,0.0,0.0,0.0,0.0,0.0,0.0,0.0,0.0,0.0,0.0,0.0,0.0,0.0,0.0,0.0,0.0,0.0,0.0,0.0,0.0,0.0,0.0,0.0,0.0,0.0,0.0,0.0,0.0,0.0,0.0,0.0,0.0,0.0,0.0,0.0,0.0,0.0,0.0,0.0,0.0,0.0,0.0,0.0,0.0,0.0,0.0,0.0,0.0,0.0,0.0,0.0,0.0,0.0,0.0,0.0,0.0,0.0,0.0,0.0,0.0,0.0,0.0,0.0,0.0,0.0,0.0,0.0,0.0,0.0,0.0,0.0,0.0,0.0,0.0,0.0,0.0,0.0,0.0,0.0,0.0,0.0,0.0,0.0,0.0,0.0,0.0,0.0,0.0,0.0,0.0,0.0,0.0,0.0,0.0,0.0,0.0,0.0,0.0,0.0,0.0,0.0,0.0,0.0,0.0,0.0,0.0,0.0,0.0,0.0,0.0,0.0,0.0,0.0,0.0,0.0,0.0,0.0,0.0,0.0,0.0,0.0,0.0,0.0,0.0,0.0,0.0,0.0,0.0,0.0,0.0,0.0,0.0,0.0,0.0,0.0,0.0,0.0,0.0,0.0,0.0,0.0,0.0,0.0,0.0,0.0,0.0,0.0,0.0,0.0,0.0,0.0,0.0,0.0,0.0,0.0,0.0,0.0,0.0,0.0,0.0,0.0,0.0,0.0,0.0,0.0,0.0,0.0,0.0,0.0,0.0,0.0,0.0,0.0,0.0,0.0,0.0,0.0,0.0,0.0,0.0,0.0,0.0,0.0,0.0,0.0,0.0,0.0,0.0,0.0,0.0,0.0,0.0,0.0,0.0,0.0,0.0,0.0,0.0,0.0,0.0,0.0,0.0,0.0,0.0,0.0,0.0,0.0,0.0,0.0,0.0,0.0,0.0,0.0,0.0,0.0,0.0,0.0,0.0,0.0,0.0,0.0,0.0,0.0,0.0,0.0,0.0,0.0,0.0,0.0,0.0,0.0,0.0,0.0,0.0,0.0,0.0,0.0,0.0,0.0,0.0,0.0,0.0,0.0,0.0,0.0,0.0,0.0,0.0,0.0,0.0,0.0,0.0,0.0,0.0,0.0,0.0,0.0,0.0,0.0,0.0,0.0,0.0,0.0,0.0,0.0,0.0,0.0,0.0,0.0,0.0,0.0,0.0,0.0,0.0,0.0,0.0,0.0,0.0,0.0,0.0,0.0,0.0,0.0,0.0,0.0,0.0,0.0,0.0,0.0,0.0,0.0,0.0,0.0,0.0,0.0,0.0,0.0,0.0,0.0,0.0,0.0,0.0,0.0,0.0,0.0,0.0,0.0,0.0,0.0,0.0,0.0,0.0,0.0,0.0,0.0,0.0,0.0,0.0,0.0,0.0,0.0,0.0,0.0,0.0,0.0,0.0,0.0,0.0,0.0,0.0,0.0,0.0,0.0,0.0,0.0,0.0,0.0,0.0,0.0,0.0,0.0,0.0,0.0,0.0,0.0,0.0,0.0,0.0,0.0,0.0,0.0,0.0,0.0,0.0,0.0,0.0,0.0,0.0,0.0,0.0,0.0,0.0,0.0,0.0,0.0,0.0,0.0,0.0,0.0,0.0,0.0,0.0,0.0,0.0,0.0,0.0,0.0,0.0,0.0,0.0,0.0,0.0,0.0,0.0,0.0,0.0,0.0,0.0,0.0,0.0,0.0,0.0,0.0,0.0,0.0,0.0,0.0,0.0,0.0,0.0,0.0,0.0,0.0,0.0,0.0,0.0,0.0,0.0,0.0,0.0,0.0,0.0,0.0,0.0,0.0,0.0,0.0,0.0,0.0,0.0,0.0,0.0,0.0,0.0,0.0,0.0,0.0,0.0,0.0,0.0,0.0,0.0,0.0,0.0,0.0,0.0,0.0,0.0,0.0,0.0,0.0,0.0,0.0,0.0,0.0,0.0,0.0,0.0,0.0,0.0,0.0,0.0,0.0,0.0,0.0,0.0,0.0,0.0,0.0,0.0,0.0,0.0,0.0,0.0,0.0,0.0,0.0,0.0,0.0,0.0,0.0,0.0,0.0,0.0,0.0,0.0,0.0,0.0,0.0,0.0,0.0,0.0,0.0,0.0,0.0,0.0,0.0,0.0,0.0,0.0,0.0,0.0,0.0,0.0,0.0,0.0,0.0,0.0,0.0,0.0,0.0,0.0,0.0,0.0,0.0,0.0,0.0,0.0,0.0,0.0,0.0,0.0,0.0,0.0,0.0,0.0,0.0,0.0,0.0,0.0,0.0,0.0,0.0,0.0,0.0,0.0,0.0,0.0,0.0,0.0,0.0,0.0,0.0,0.0,0.0,0.0,0.0,0.0,0.0,0.0,0.0,0.0,0.0,0.0,0.0,0.0,0.0,0.0,0.0,0.0,0.0,0.0,0.0,0.0,0.0,0.0,0.0,0.0,0.0,0.0,0.0,0.0,0.0,0.0,0.0,0.0,0.0,0.0,0.0,0.0,0.0,0.0,0.0,0.0,0.0,0.0,0.0,0.0,0.0,0.0,0.0,0.0,0.0,0.0,0.0,0.0,0.0,0.0,0.0,0.0,0.0,0.0,0.0,0.0,0.0,0.0,0.0,0.0,0.0,0.0,0.0,0.0,0.0,0.0,0.0,0.0,0.0,0.0,0.0,0.0,0.0,0.0,0.0,0.0,0.0,0.0,0.0,0.0,0.0,0.0,0.0,0.0,0.0,0.0,0.0,0.0,0.0,0.0,0.0,0.0,0.0,0.0,0.0,0.0,0.0,0.0,0.0,0.0,0.0,0.0,0.0,0.0,0.0,0.0,0.0,0.0,0.0,0.0,0.0,0.0,0.0,0.0,0.0,0.0,0.0,0.0,0.0,0.0,0.0,0.0,0.0,0.0,0.0,0.0,0.0,0.0,0.0,0.0,0.0,0.0,0.0,0.0,0.0,0.0,0.0,0.0,0.0,0.0,0.0,0.0,0.0,0.0,0.0,0.0,0.0,0.0,0.0,0.0,0.0,0.0,0.0,0.0,0.0,0.0,0.0,0.0,0.0,0.0,0.0,0.0,0.0,0.0,0.0,0.0,0.0,0.0,0.0,0.0,0.0,0.0,0.0,0.0,0.0,0.0,0.0,0.0,0.0,0.0,0.0,0.0,0.0,0.0,0.0,0.0,0.0,0.0,0.0,0.0,0.0,0.0,0.0,0.0,0.0,0.0,0.0,0.0,0.0,0.0,0.0,0.0,0.0,0.0,0.0,0.0,0.0,0.0,0.0,0.0,0.0,0.0,0.0,0.0,0.0,0.0,0.0,0.0,0.0,0.0,4.0237,3.777,0.0,0.0,0.0,0.0,0.0,0.0,0.0,0.0,0.0,0.0,0.0,0.0,0.0,0.0,0.0,0.0,0.0,0.0,0.0,0.0,0.0,0.0,0.0,1.7023,1.74,1.8249,1.7584,0.0,0.0,0.0,0.0,0.0,0.0,0.0,0.0,0.0,2.0766,2.2861,2.495,2.7661,3.0833,2.9178,2.7318,2.5298,0.0,0.0,0.0,0.0,0.0,0.0,0.0,0.0,0.0,0.0,0.0,0.0,0.0,0.0,0.0,0.0,0.0,0.0,0.0,0.0,0.0,0.0,0.0,0.0,0.0,0.0,0.0,0.0,0.0,0.0,0.0,0.0,0.0,0.0,0.0,0.0,0.0,0.0,0.0,0.0,0.0,0.0,0.0,0.0,0.0,0.0,0.0,0.0,0.0,0.0,0.0,0.0,0.0,0.0,0.0,0.0,0.0,0.0,0.0,0.0,0.0,0.0,0.0,0.0,0.0,0.0,0.0,0.0,0.0,0.0,4.2682,4.0493,0.0,0.0,0.0,0.0,0.0,0.0,0.0,0.0,0.0,0.0,0.0,0.0,0.0,0.0,0.0,0.0,0.0,0.0,0.0,0.0,0.0,1.7478,1.9078,1.9278,1.9689,2.054,1.9844,1.938,1.9535,1.8722,0.0,0.0,0.0,0.0,2.0618,2.1023,2.284,2.6149,2.9236,3.2662,3.6288,3.6061,3.3697,2.9602,2.7662,0.0,0.0,0.0,0.0,0.0,0.0,0.0,0.0,0.0,0.0,0.0,0.0,0.0,0.0,0.0,0.0,0.0,0.0,0.0,0.0,0.0,0.0,0.0,0.0,0.0,0.0,0.0,0.0,0.0,0.0,0.0,0.0,0.0,0.0,0.0,0.0,0.0,0.0,0.0,0.0,0.0,0.0,0.0,0.0,0.0,0.0,0.0,0.0,0.0,0.0,0.0,0.0,0.0,0.0,0.0,0.0,0.0,0.0,0.0,0.0,0.0,0.0,0.0,4.6605,4.7072,4.7072,4.7099,4.7483,4.8022,4.528,4.3682,4.2981,4.2981,0.0,0.0,0.0,0.0,0.0,0.0,0.0,0.0,0.0,0.0,0.0,0.0,0.0,0.0,0.0,0.0,0.0,0.0,0.0,1.9046,2.0096,2.0225,2.0579,2.1436,2.0734,2.054,2.132,2.054,0.0,0.0,0.0,2.1282,2.1514,2.351,2.5938,2.878,3.3964,3.7255,3.8715,3.7471,3.6709,3.6255,3.4147,3.2715,3.1826,0.0,0.0,0.0,0.0,0.0,0.0,0.0,0.0,0.0,0.0,0.0,0.0,0.0,0.0,0.0,0.0,0.0,0.0,0.0,0.0,0.0,0.0,0.0,0.0,0.0,0.0,0.0,0.0,0.0,0.0,0.0,0.0,0.0,0.0,0.0,0.0,0.0,0.0,0.0,0.0,0.0,3.5467,3.5647,0.0,0.0,0.0,0.0,0.0,0.0,0.0,0.0,0.0,0.0,0.0,0.0,0.0,4.4353,4.4582,4.695,4.8185,4.8301,4.9893,5.0626,5.0626,5.0618,5.0696,5.0813,5.1125,0.0,4.567,4.567,0.0,0.0,0.0,0.0,0.0,0.0,0.0,0.0,0.0,0.0,0.0,0.0,0.0,0.0,0.0,0.0,0.0,0.0,0.0,0.0,0.0,2.4235,2.509,2.6439,2.6301,2.5878,2.5267,2.5337,0.0,0.0,2.4795,2.5229,2.5229,2.7652,3.1086,3.5534,3.8469,4.0871,4.2722,4.1988,4.1777,4.1967,4.0427,3.7762,3.4352,3.3738,0.0,0.0,0.0,0.0,0.0,0.0,0.0,0.0,0.0,0.0,0.0,0.0,0.0,0.0,0.0,0.0,0.0,0.0,0.0,0.0,0.0,0.0,0.0,0.0,0.0,0.0,0.0,0.0,0.0,0.0,0.0,0.0,0.0,0.0,0.0,0.0,0.0,0.0,0.0,3.5491,3.6442,3.7927,3.7261,3.6871,0.0,0.0,0.0,0.0,0.0,0.0,0.0,0.0,0.0,4.5234,4.6443,4.7294,4.7756,4.9854,5.0938,5.0938,5.2177,5.2762,5.2762,5.2762,5.2762,5.2801,5.3151,5.2528,5.1164,5.019,4.8826,4.7299,0.0,0.0,0.0,0.0,4.4971,4.4937,0.0,0.0,0.0,0.0,0.0,0.0,0.0,0.0,0.0,0.0,0.0,0.0,2.6988,2.8195,2.9317,3.0816,3.103,3.0546,2.9303,2.9622,2.94,2.8384,2.8741,2.8973,2.8973,3.1873,3.565,4.0351,4.1848,4.3611,4.5526,4.5323,4.5303,4.5417,4.4691,4.1683,3.7241,3.7012,3.5647,3.36,0.0,0.0,0.0,0.0,0.0,0.0,0.0,0.0,0.0,0.0,0.0,0.0,0.0,0.0,0.0,0.0,0.0,0.0,0.0,0.0,0.0,0.0,0.0,0.0,0.0,0.0,0.0,0.0,0.0,0.0,0.0,0.0,0.0,0.0,0.0,0.0,0.0,3.7521,3.8279,4.0179,3.9483,3.9136,0.0,0.0,0.0,0.0,0.0,0.0,4.4933,4.5557,4.6677,4.8412,4.9308,5.0041,5.0657,5.2372,5.3151,5.2957,5.4048,5.4437,5.4242,5.4476,5.4554,5.4554,5.4554,5.4944,5.5411,5.3658,5.2559,5.1841,5.0948,5.0413,5.0081,4.8965,4.8463,4.8392,0.0,0.0,0.0,0.0,0.0,0.0,0.0,0.0,0.0,0.0,0.0,2.7274,2.9813,3.0816,3.1674,3.2609,3.2531,3.2462,3.257,3.1802,3.18,3.2754,3.2029,3.1603,3.1603,3.556,3.8469,4.0192,4.3426,4.5208,4.5582,4.54,4.5301,4.5321,4.5455,4.4305,4.224,4.0773,3.9646,3.8638,3.6342,0.0,0.0,0.0,0.0,0.0,0.0,0.0,0.0,0.0,0.0,0.0,0.0,0.0,0.0,0.0,0.0,0.0,0.0,0.0,0.0,0.0,0.0,0.0,0.0,0.0,0.0,0.0,0.0,0.0,0.0,0.0,0.0,0.0,0.0,0.0,0.0,0.0,0.0,4.2265,4.2917,0.0,0.0,0.0,0.0,4.482,4.5536,4.6742,4.8449,4.8587,4.9386,5.1047,5.1943,5.245,5.2489,5.4203,5.4671,5.3853,5.5567,5.5957,5.5178,5.5996,5.6386,5.6386,5.6386,5.6386,5.6308,5.4554,5.3788,5.3584,5.2718,5.183,5.1139,5.1812,5.2056,5.2089,0.0,0.0,0.0,1.4813,1.5273,1.6055,1.7175,1.8979,2.1041,2.3307,2.6629,2.9317,3.0715,3.3259,3.4927,3.5101,3.6166,3.632,3.5146,3.5796,3.5943,3.52,3.5507,3.6807,3.9146,3.8912,4.0899,4.5302,4.5936,4.6857,4.7989,4.8181,4.8334,4.8433,4.7808,4.6862,4.5612,4.4393,4.2739,4.0924,3.9942,3.7617,0.0,0.0,0.0,0.0,0.0,0.0,0.0,0.0,0.0,0.0,0.0,0.0,0.0,0.0,0.0,0.0,0.0,0.0,0.0,0.0,0.0,0.0,0.0,0.0,0.0,0.0,0.0,0.0,0.0,0.0,0.0,0.0,0.0,0.0,0.0,0.0,0.0,4.4723,4.5585,0.0,4.6156,4.6861,4.7595,4.8215,4.8527,4.9418,5.1147,5.125,5.1795,5.2957,5.3814,5.4554,5.51,5.623,5.6931,5.7204,5.7827,5.7944,5.7672,5.7983,5.81,5.8061,5.7516,5.7575,5.7897,5.6145,5.5434,5.5364,5.4971,5.4608,5.4333,5.4568,5.4641,5.4591,0.0,0.0,0.0,1.4813,1.5761,1.6897,1.7975,2.0239,2.2759,2.5355,2.8753,3.1546,3.3206,3.6074,3.7792,3.7584,3.8973,3.9085,3.7295,3.8035,3.8065,3.698,3.8176,4.0381,4.3564,4.2338,4.3693,4.7952,4.8179,4.9001,5.0406,5.0683,5.1091,5.1405,5.0431,4.9417,4.8418,4.7681,4.575,4.3139,4.2179,4.0216,3.7588,0.0,0.0,0.0,0.0,0.0,0.0,0.0,0.0,0.0,0.0,0.0,0.0,0.0,0.0,0.0,0.0,0.0,0.0,0.0,0.0,0.0,0.0,0.0,0.0,0.0,0.0,0.0,0.0,0.0,0.0,0.0,0.0,0.0,0.0,4.3864,4.5662,4.6484,4.7651,4.8376,4.8372,4.938,5.026,5.0888,5.1186,5.1951,5.3393,5.3775,5.4281,5.5178,5.6035,5.6775,5.7321,5.8139,5.888,5.9425,5.9737,5.9893,5.9893,5.9893,5.9893,5.9815,5.8939,5.8831,5.9227,5.7741,5.7094,5.7055,5.6379,5.6087,5.6056,5.6029,5.5959,5.5847,0.0,0.0,1.4851,1.4851,1.6249,1.7937,1.9601,2.1966,2.5099,2.9421,3.1607,3.4014,3.7288,3.9164,4.01,3.9916,4.0669,4.0566,3.9089,3.8383,3.8127,3.8322,3.9985,4.2019,4.4372,4.5781,4.6975,4.7876,5.0126,5.1695,5.273,5.2806,5.3251,5.3951,5.3137,5.1959,5.0642,5.0547,4.8663,4.556,4.3115,4.2125,4.1816,0.0,0.0,0.0,0.0,0.0,0.0,0.0,0.0,0.0,0.0,0.0,0.0,0.0,0.0,0.0,0.0,0.0,0.0,0.0,0.0,0.0,0.0,0.0,0.0,0.0,0.0,0.0,0.0,0.0,0.0,0.0,0.0,0.0,4.3788,4.5233,4.6666,4.7525,4.9162,5.0225,5.0238,5.1707,5.2643,5.2695,5.3462,5.4312,5.5248,5.609,5.6892,5.7711,5.8568,5.9035,5.9074,5.9893,6.0321,6.0399,6.1218,6.1607,6.1607,6.1607,6.1607,6.1568,6.0611,6.02,6.011,5.911,5.8684,5.8529,5.6839,5.6117,5.6089,5.6089,5.6089,5.6036,1.5761,1.5733,1.5733,1.5733,1.7611,1.945,2.0502,2.3333,2.6392,2.9396,3.2424,3.4867,3.6407,3.9223,4.0807,4.0158,4.195,4.2448,4.0807,4.1131,4.1178,4.0761,4.2859,4.4976,4.6952,4.7831,4.9595,5.2207,5.2819,5.3899,5.5363,5.5817,5.6147,5.6299,5.4857,5.4002,5.3476,5.1398,4.999,4.8933,4.6485,4.4847,4.3736,0.0,0.0,0.0,0.0,0.0,0.0,0.0,0.0,0.0,0.0,0.0,0.0,0.0,0.0,0.0,0.0,0.0,0.0,0.0,0.0,0.0,0.0,0.0,0.0,0.0,0.0,0.0,0.0,0.0,0.0,0.0,4.4686,4.5763,4.5502,4.8017,4.9976,5.0243,5.1791,5.2863,5.2855,5.3276,5.3783,5.4453,5.4718,5.5498,5.694,5.7251,5.7749,5.8607,5.888,5.962,6.0867,6.0516,6.0945,6.2192,6.1802,6.1607,6.1607,6.1607,6.1607,6.1568,6.0611,6.0176,6.0048,5.908,5.8651,5.8562,5.8097,5.7886,5.7869,5.7869,5.7869,5.7833,1.6661,1.6597,1.6597,1.6597,1.8662,2.0464,2.0915,2.4181,2.7619,3.0467,3.3276,3.5703,3.7485,3.9827,4.0936,4.0157,4.2105,4.2738,4.1126,4.1903,4.2717,4.3389,4.534,4.7434,4.9548,5.0818,5.2412,5.4422,5.5015,5.6026,5.732,5.7294,5.7402,5.7612,5.629,5.5372,5.4693,5.3022,5.1959,5.1229,4.9182,4.7268,4.5515,4.4191,4.2893,4.1661,4.0307,4.0113,4.0191,3.8025,0.0,0.0,0.0,0.0,0.0,0.0,0.0,0.0,0.0,0.0,0.0,0.0,0.0,0.0,0.0,0.0,0.0,0.0,0.0,0.0,0.0,0.0,0.0,0.0,4.7204,4.8348,4.8352,5.0036,5.1569,5.231,5.3947,5.4843,5.4476,5.51,5.5567,5.5723,5.6074,5.6658,5.7633,5.8724,5.9581,6.0088,6.0438,6.1101,6.2114,6.1295,6.1529,6.2893,6.2387,6.2309,6.2659,6.2659,6.2659,6.2581,6.1639,6.1188,6.107,6.0095,5.9702,5.9571,0.0,0.0,0.0,0.0,5.8604,5.8528,1.7588,1.7449,1.7449,1.7449,1.9488,2.114,2.114,2.4705,2.854,3.1779,3.3875,3.6234,3.938,4.0511,4.0798,4.0144,4.1777,4.2316,4.1024,4.2044,4.3645,4.581,4.7619,4.9643,5.1945,5.396,5.518,5.5527,5.6823,5.7876,5.8646,5.7921,5.7763,5.8201,5.7411,5.6413,5.5231,5.5034,5.422,5.2856,5.1463,4.9545,4.7279,4.567,4.4485,4.3634,4.286,4.2589,4.2318,4.0732,0.0,0.0,0.0,0.0,0.0,0.0,0.0,0.0,0.0,0.0,0.0,0.0,0.0,0.0,0.0,0.0,0.0,0.0,0.0,0.0,0.0,0.0,0.0,0.0,5.036,5.1554,5.1826,5.1787,5.2333,5.4009,5.5567,5.623,5.5567,5.6814,5.7399,5.6697,5.7399,5.7944,5.8139,6.0243,0.0,0.0,0.0,6.2815,6.2893,6.2036,6.2036,6.2893,6.2815,6.3127,6.3828,6.3828,6.3828,6.3769,6.2847,6.2468,6.2376,6.1462,6.1118,6.0963,5.9455,5.8874,5.8874,5.8874,5.8874,5.8838,1.8427,1.8263,1.8286,1.8286,2.0352,2.2041,2.2041,2.5001,2.8177,3.0847,3.322,3.5706,3.8296,3.9951,4.091,4.1111,4.2679,4.3693,4.381,4.5726,4.6758,4.6547,5.0125,5.2449,5.3176,5.513,5.6624,5.7548,5.8084,5.8656,5.9174,5.8986,5.8988,5.9027,5.8518,5.8116,5.7763,5.6664,5.5618,5.4664,5.3881,5.2067,4.9681,4.8214,4.7115,4.6341,4.6187,4.6109,4.5955,4.491,4.4678,4.4523,4.286,4.1622,0.0,0.0,0.0,0.0,0.0,0.0,0.0,0.0,0.0,0.0,0.0,0.0,0.0,0.0,0.0,0.0,0.0,0.0,0.0,5.0647,5.1687,5.3073,5.5217,5.4905,5.4827,5.5879,5.6269,5.6697,5.7165,5.7516,5.7633,5.7477,5.8256,5.9347,6.075,6.0672,6.1218,6.2581,6.2114,6.2192,6.2893,6.2036,6.2036,6.2893,6.2192,0.0,6.2075,6.2075,6.2055,6.2001,6.1732,6.1585,6.143,6.1212,6.1118,6.1079,6.0731,6.0615,6.0615,6.0615,6.0596,6.05,1.9189,1.9114,1.9263,1.9676,2.1178,2.2454,2.283,2.5401,2.8018,3.0058,3.2522,3.4877,3.6873,3.8225,3.9218,3.9944,4.241,4.3923,4.3954,4.7183,4.8757,4.801,5.1408,5.3568,5.4132,5.594,5.7362,5.837,5.9071,5.945,5.954,5.954,5.9472,5.929,5.9055,5.8748,5.8329,5.778,5.7054,5.6234,5.5777,5.4566,5.2779,5.0516,4.9397,4.8894,4.8043,4.7734,4.7618,4.6728,4.6148,4.5645,4.4833,4.3982,4.2989,0.0,0.0,0.0,0.0,0.0,0.0,0.0,0.0,0.0,0.0,0.0,0.0,0.0,0.0,4.7756,4.9106,0.0,5.1598,5.2453,5.3717,5.4875,5.5728,5.6218,5.6659,5.7057,5.7087,5.7243,5.7672,5.81,5.8529,5.8957,5.9815,6.0867,6.2192,6.262,6.3049,6.3478,6.3088,6.2854,6.2893,6.2036,6.1802,6.2231,6.1802,6.1607,6.1607,6.1607,6.1578,6.1523,6.1421,6.1298,6.1181,6.1116,6.1118,6.1118,6.1118,6.1118,6.1118,6.1118,6.1041,6.0982,1.9924,2.0013,2.0239,2.0877,2.1703,2.2567,2.337,2.571,2.7856,2.9269,3.1713,3.3865,3.5281,3.6423,3.7536,3.8588,4.1698,4.3522,4.3297,4.7432,4.9847,4.97,5.198,5.3875,5.5208,5.6497,5.7673,5.8727,5.974,6.0015,5.9711,5.9711,5.954,5.929,5.9364,5.9024,5.8458,5.8792,5.8387,5.7642,5.744,5.678,5.557,5.291,5.1602,5.0945,4.9436,4.8894,4.874,4.7889,4.7038,4.6264,4.6109,4.5606,4.4769,4.309,4.323,0.0,0.0,0.0,0.0,0.0,0.0,0.0,0.0,4.5589,4.6824,4.7912,4.8972,5.0135,5.1552,5.2784,5.3781,5.4333,5.5736,5.6556,5.6046,5.7008,5.7835,5.7938,5.7797,5.7827,5.8178,5.8996,5.9854,6.075,6.1607,6.2465,6.3322,6.453,6.4919,6.4374,6.4023,6.3556,6.2893,6.2036,6.1607,6.1607,6.1763,6.1841,6.1841,6.1987,6.2024,6.1965,6.1886,6.1811,6.1651,6.1426,6.135,6.135,6.1157,6.1118,6.1118,6.1118,6.108,6.1021,2.0712,2.0851,2.0877,2.099,2.1703,2.2567,2.337,2.5625,2.7541,2.8425,3.0734,3.2613,3.3569,3.5709,3.758,3.8766,4.1102,4.2736,4.3258,4.6755,4.9493,5.11,5.1977,5.3747,5.6619,5.6616,5.7452,5.9213,5.9885,5.9924,5.9364,5.9364,5.9327,5.929,5.9609,5.9668,5.9625,5.9892,5.9578,5.8842,5.9048,5.8165,5.6648,5.5787,5.4039,5.1912,5.0983,5.0635,5.0519,4.9668,4.8817,4.7966,4.7192,4.695,4.659,4.4885,4.5037,4.5293,4.3422,4.4132,4.5414,4.5414,4.6192,4.7163,0.0,4.8288,4.8857,5.0541,5.2169,5.3369,5.3565,5.5528,5.6944,5.6325,5.7024,5.7884,5.8585,5.8155,5.8066,5.8772,5.818,5.8295,5.9854,6.0789,6.1685,6.2542,6.3361,6.4218,6.5075,6.4569,6.4569,6.5231,6.3828,6.2971,6.2893,6.2036,6.1607,6.1607,6.2387,6.2737,6.2776,6.3425,6.3677,6.3595,6.3511,6.3438,6.3342,6.2588,6.224,6.2201,6.1389,6.1118,6.1118,6.1118,6.106,6.0997,2.1648,2.1714,2.1891,2.2393,2.2755,2.3281,2.4069,2.5496,2.6622,2.696,2.9176,3.0828,3.1203,3.432,3.6281,3.5997,4.023,4.2519,4.1686,4.6335,4.9088,4.9024,5.1471,5.3446,5.4709,5.6209,5.7497,5.8614,5.9512,5.9739,5.929,5.929,5.929,5.929,5.9472,5.9609,5.9842,6.0074,6.0135,6.0008,6.0278,5.9397,5.7796,5.7059,5.5161,5.284,5.195,5.1641,0.0,5.0674,4.9861,4.9088,4.873,4.828,4.7572,4.5956,4.6407,4.7311,4.6646,4.6968,4.7522,4.7553,4.9372,5.1113,5.0977,5.2115,5.3557,5.4826,5.5255,5.5737,5.6743,5.7387,5.7636,5.7298,5.8003,5.8354,5.7729,5.8593,5.9255,5.9078,6.006,6.08,6.1032,6.1841,6.2893,6.4257,6.4686,6.5231,6.6127,6.5816,6.5543,6.5387,6.4725,6.4101,6.3595,6.3244,6.3049,6.3049,6.3439,6.3595,6.3595,6.3925,6.4013,6.3906,6.3765,6.371,6.3671,6.3323,6.311,6.3013,6.2162,6.1795,6.1677,6.1215,6.1021,6.0997,2.2524,2.259,2.2867,2.3694,2.3806,2.4031,2.4595,2.5421,2.6,2.6,2.7749,2.9251,2.9964,3.2705,3.4429,3.4192,3.8531,4.1108,4.0684,4.4903,4.7579,4.7958,5.0433,5.2344,5.3508,5.5334,5.6771,5.7788,5.8759,5.9105,5.8952,5.9062,5.9174,5.929,5.94,5.9392,5.937,5.9473,5.9549,5.9595,5.984,5.9108,5.7791,5.7172,5.5509,5.3359,5.2276,5.1695,5.1424,5.082,4.9892,4.9079,4.9586,4.9135,4.8218,4.7028,4.7544,4.8526,4.8588,4.9104,4.966,4.9702,5.2154,5.4372,5.3774,5.5106,5.6705,5.7629,5.7283,5.7322,5.8805,5.8783,5.8441,5.8207,5.8675,5.8753,5.7777,5.9241,6.0349,6.0186,6.2201,6.3377,6.2708,6.3205,6.4179,6.566,6.5777,6.605,6.6673,6.6712,6.64,6.5777,6.5543,6.5114,6.4452,6.4218,6.4101,6.4101,6.4335,6.4442,6.4432,6.4632,6.4623,6.4527,6.4444,6.4367,6.4367,6.4135,6.4038,6.3882,6.2741,6.2256,6.2138,6.1271,6.098,6.0955,2.3318,2.3483,2.3731,2.452,2.467,2.467,2.4707,2.5421,2.6,2.6,2.6735,2.8199,3.0603,3.0959,3.2071,3.4643,3.5652,3.7624,4.1151,4.1903,4.4482,4.95,4.8842,5.0241,5.4296,5.3929,5.4761,5.6925,5.7498,5.7886,5.8126,5.84,5.8782,5.929,5.9643,5.9194,5.8161,5.7967,5.7378,5.6652,5.6906,5.6676,5.6089,5.6051,5.4984,5.3275,5.161,5.0487,4.9766,4.9808,4.8697,4.7572,4.9278,4.9227,4.8553,4.8463,4.8499,4.8599,4.8599,5.0386,5.229,5.229,5.4334,5.6308,5.6277,5.6446,5.6836,5.7621,5.7777,5.8011,5.8948,5.9768,6.0041,5.9183,5.9065,5.9378,6.0159,6.0354,6.1004,6.2571,6.4362,6.5394,6.528,6.5309,6.5699,6.6595,6.6673,6.6673,6.6712,6.6712,6.6673,6.6673,6.5855,6.5387,6.5348,6.453,6.4101,6.4101,6.4958,6.5317,6.5297,6.5934,6.6185,6.6108,6.6108,6.6108,6.6069,6.5257,6.4948,6.4793,6.2993,6.2316,6.2179,6.1263,6.0911,6.0911,2.4257,2.4294,2.4369,2.467,2.4707,2.4707,2.4707,2.4933,2.512,2.512,2.5871,0.0,0.0,0.0,0.0,0.0,3.535,3.7009,3.7851,4.1139,4.3794,4.5413,4.7418,4.9324,5.1104,5.2021,5.3376,5.5235,5.5961,5.6639,5.73,5.7404,5.762,5.7947,5.7318,5.6998,5.6966,5.6159,5.5873,5.5922,5.5434,5.5229,5.5122,5.4542,5.2933,5.0928,0.0,5.0026,4.9755,4.9782,4.9046,4.8387,5.0119,4.9666,4.8631,4.9237,4.9831,5.0581,5.1668,5.3455,5.4983,5.498,5.7001,5.8849,5.8258,5.9078,5.9885,5.9573,5.9534,5.9456,5.9143,5.9339,5.9456,5.9143,5.8597,5.8753,6.0198,6.0881,6.1874,6.3545,6.5247,6.6304,6.6254,6.6244,6.64,6.6673,6.6712,6.6712,6.6712,6.6712,6.6712,6.6712,6.6439,6.6244,6.6244,6.5972,6.5795,6.5762,6.6024,6.61,6.6111,6.6234,6.6281,6.6244,6.6225,6.6185,6.6185,6.5915,6.5758,6.5556,6.4398,6.356,6.2876,6.2021,6.1304,6.0804,2.4707,2.4707,2.4707,2.4707,2.4707,0.0,0.0,0.0,0.0,0.0,0.0,0.0,0.0,0.0,0.0,0.0,0.0,3.5534,3.6081,3.9596,4.1944,4.2485,4.5306,4.7273,4.8277,4.9604,5.1073,5.2831,5.3591,5.4392,5.5191,5.5555,5.5923,5.6209,5.5282,5.4874,5.479,5.3612,5.3569,5.4122,5.301,5.3106,5.3739,5.2268,5.0502,0.0,4.8542,4.805,4.7675,4.8618,4.8541,4.8308,4.9768,4.9652,4.9237,5.0425,5.1396,5.2407,5.3805,5.5437,5.6848,5.7118,5.8753,6.0213,5.9966,6.06,6.1095,6.051,6.0393,6.0237,5.9651,5.9807,5.9846,5.9183,5.8636,5.8875,6.0604,6.1362,6.2539,6.4821,6.6048,6.6713,6.6722,6.6712,6.6712,6.6712,6.6712,6.6712,6.6712,6.6712,6.6712,6.6712,6.6712,6.6712,6.6712,6.6712,6.668,6.6581,6.6485,6.6422,6.6422,6.6299,6.6244,6.6244,6.6225,6.6165,6.6165,6.6165,6.6102,6.5936,6.5103,6.417,6.3229,6.2421,6.155,6.0781,2.4707,2.4707,2.4707,0.0,0.0,0.0,0.0,0.0,0.0,0.0,0.0,0.0,0.0,0.0,0.0,0.0,0.0,0.0,3.574,3.7348,3.902,4.0829,4.2555,4.4245,4.5862,4.6644,4.7946,4.981,5.0453,5.115,5.1881,5.2891,5.3634,5.41,5.3581,5.2756,5.1688,5.0507,5.0505,5.1108,4.9663,5.0223,5.1682,4.9239,4.7818,4.6989,4.6213,4.4877,4.3899,4.6385,4.7317,4.7589,4.8444,4.9376,5.0425,5.2057,5.3145,5.4038,5.4932,5.6447,5.7923,5.8739,5.9655,6.0555,6.1257,6.0893,6.0354,6.0276,6.0276,6.0237,6.0198,6.0939,6.0978,5.9378,5.9104,5.9745,6.156,6.1796,6.3005,6.6316,6.6694,6.6705,6.6722,6.6712,6.6712,6.6702,6.6712,6.6712,6.6712,6.6712,6.6712,6.6702,6.6712,6.6712,6.6702,6.6702,6.663,6.6569,6.6384,6.6299,6.6299,6.6225,6.6185,6.6185,6.6185,6.6144,6.6102,6.6102,6.6058,6.5913,6.5095,6.4224,6.3376,6.2459,6.1589,6.0858,0.0,0.0,0.0,0.0,0.0,0.0,0.0,0.0,0.0,0.0,0.0,0.0,0.0,0.0,0.0,0.0,0.0,0.0,3.324,3.5457,3.7179,3.8201,4.0517,4.2246,4.3331,4.3474,4.4805,4.7319,4.6839,4.7276,4.8707,4.95,5.0047,5.0368,5.0047,4.9886,4.9786,4.8037,4.758,4.7853,4.6232,4.636,4.7417,4.6125,4.5142,4.4428,4.4893,4.4372,4.3782,4.5686,4.7628,4.9376,5.027,5.1552,5.295,5.4038,5.4932,5.5942,5.7418,5.8622,5.9671,6.0526,6.0981,6.1089,6.0702,6.0442,5.9976,5.8709,5.8441,5.8285,5.7699,5.8246,5.8879,5.9055,5.9096,6.0154,6.3122,6.299,6.3633,6.6382,6.6697,6.6693,6.6712,6.6712,6.6691,6.6606,6.6691,6.6712,6.6712,6.6712,6.6691,6.6645,6.6691,6.6691,6.6645,6.6594,6.6485,6.6367,6.6244,6.6225,6.6225,6.6205,6.6185,6.6185,6.6144,6.6123,6.6102,6.6058,6.6029,6.5982,6.5789,6.5125,6.4191,6.332,6.2449,6.1593,0.0,0.0,0.0,0.0,0.0,0.0,0.0,0.0,0.0,0.0,0.0,0.0,0.0,0.0,0.0,0.0,0.0,0.0,0.0,3.4261,3.5723,3.5886,3.8233,3.9984,4.092,4.1223,4.2545,4.4939,4.5051,4.56,4.6598,4.7686,4.8281,4.8378,4.7495,4.7242,4.7337,4.5629,4.5455,0.0,0.0,4.4731,4.5786,4.4195,4.3313,4.2907,4.2975,4.3218,4.3743,4.5414,4.7978,5.0542,5.1047,5.2601,5.4427,5.532,5.6447,5.769,5.9011,6.0021,6.0798,6.1303,6.146,6.1295,6.0468,6.0013,5.9318,5.7616,5.727,5.7153,5.6684,5.7242,5.8075,5.8943,5.9101,6.0153,6.3217,6.3193,6.3833,6.6385,6.6702,6.6702,6.668,6.6691,6.6691,6.6633,6.6618,6.6618,6.6594,6.6594,6.6581,6.6581,6.6569,6.6569,6.6581,6.6454,6.6351,6.6299,6.6245,6.6185,6.6185,6.6185,6.6185,6.6185,6.6123,6.608,6.6058,6.6029,6.5982,6.5947,6.5947,6.5384,6.4501,6.4001,6.299,6.1825,0.0,0.0,0.0,0.0,0.0,0.0,0.0,0.0,0.0,2.835,2.7974,2.8387,2.9852,2.9251,0.0,0.0,0.0,0.0,0.0,0.0,3.4255,3.3915,3.6042,3.7653,3.8591,3.9423,4.0756,4.2603,4.3841,4.4554,4.4833,4.6263,4.6934,4.6857,4.5515,4.4921,4.4863,4.3535,4.3834,4.5104,4.3656,4.3956,4.5064,0.0,4.1956,4.1762,4.1024,4.1995,4.3938,4.5608,4.8327,5.1086,5.1435,5.3222,5.5359,5.633,5.7729,5.9166,6.0021,6.0837,6.1419,6.1433,6.1367,6.113,6.0321,5.9411,5.8319,5.6762,5.6333,5.6294,5.6411,5.7096,5.7926,5.8788,5.9138,6.0096,6.2389,6.2928,6.392,6.6234,6.6613,6.668,6.6581,6.6657,6.6669,6.6569,6.6555,6.6542,6.6524,6.6508,6.6508,6.6508,6.6493,6.6454,6.6454,6.6351,6.6299,6.6281,6.6225,6.6185,6.6165,6.6165,6.6165,6.6165,6.6102,6.6036,6.599,6.5982,6.5947,6.5897,6.5897,6.5385,6.468,6.4564,6.3514,6.2092,0.0,0.0,0.0,0.0,0.0,0.0,0.0,0.0,0.0,0.0,3.2105,3.1354,0.0,0.0,0.0,0.0,0.0,0.0,0.0,0.0,0.0,3.2813,3.4428,3.5491,3.5936,3.7402,3.8777,4.0138,4.0372,4.0875,4.1609,4.2517,4.2919,4.2919,4.3288,4.3543,4.3568,4.2589,4.2419,4.2703,4.1743,4.1529,4.1723,4.1296,0.0,0.0,3.9975,4.1917,4.4831,4.6502,4.8444,5.0503,5.2601,5.4543,5.6369,5.7923,5.9088,6.006,6.0953,6.1303,6.1394,6.1447,6.0939,6.0233,5.9459,5.8084,5.6692,5.5704,5.4966,5.4654,5.5396,5.622,5.7098,5.7888,5.921,6.0553,6.1588,6.2961,6.4276,6.5323,6.6141,6.6569,6.6538,6.6538,6.6538,6.6524,6.6384,6.64,6.6555,6.6538,6.6508,6.6508,6.6406,6.6334,6.6334,6.6316,6.6263,6.6205,6.6185,6.6165,6.6123,6.6123,6.608,6.6036,6.6029,6.602,6.602,6.5947,6.5923,6.5897,6.5897,6.5769,6.5486,6.4795,6.4254,6.3733,0.0,0.0,0.0,0.0,0.0,0.0,0.0,3.3832,3.4846,3.6911,3.6498,3.5334,3.3569,3.2292,3.1354,0.0,0.0,0.0,0.0,0.0,0.0,3.2056,3.3647,3.4772,3.5325,3.6964,3.832,3.9393,0.0,4.1036,4.1546,4.2354,4.2717,4.2717,4.2679,4.2664,4.2671,4.1817,4.145,4.149,4.1063,4.0635,4.0286,0.0,0.0,0.0,3.9548,4.1296,4.3704,4.5414,4.8055,5.1008,5.3572,5.5864,5.7768,5.8545,5.9749,6.0875,6.1303,6.1419,6.1433,6.146,6.0884,6.003,5.924,5.7746,5.6045,5.4303,5.3249,5.278,5.3171,5.3614,5.4603,5.6758,5.8144,5.9534,6.1247,6.2558,6.3794,6.5047,6.562,6.5994,6.6367,6.6439,6.6454,6.6406,6.6334,6.6351,6.6431,6.6389,6.6338,6.6338,6.6283,6.6264,6.6264,6.6264,6.6245,6.6185,6.6165,6.6123,6.6102,6.6058,6.6036,6.6013,6.5982,6.5996,6.5996,6.5923,6.5872,6.5846,6.5846,6.5755,6.5608,6.5186,6.468,6.4173,0.0,0.0,0.0,0.0,0.0,0.0,0.0,3.6047,3.7099,3.9765,3.9802,3.8625,3.5935,3.402,3.2518,0.0,0.0,0.0,0.0,0.0,0.0,0.0,0.0,0.0,3.4892,0.0,0.0,3.8775,4.0808,0.0,0.0,0.0,0.0,0.0,4.2228,4.1917,4.1879,4.1179,4.0907,0.0,0.0,4.0247,3.9664,0.0,0.0,0.0,0.0,4.0519,4.2228,4.4365,4.7434,5.0853,5.3572,5.633,5.8506,5.8311,5.9632,6.1109,6.1109,6.1278,6.1421,6.1484,6.076,5.9841,5.9176,5.7333,5.5162,5.3132,5.1726,5.0906,5.1102,5.1277,5.2419,5.5467,5.6894,5.8428,6.0612,6.1935,6.3132,6.4458,6.4924,6.5397,6.5971,6.6256,6.6389,6.6299,6.6299,6.6299,6.6281,6.6225,6.6185,6.6185,6.6185,6.6185,6.6185,6.6185,6.6185,6.6165,6.6123,6.608,6.6058,6.6013,6.599,6.5967,6.5958,6.5947,6.5947,6.5872,6.5781,6.5767,6.5767,6.5646,6.5494,6.5465,6.5053,6.4428,0.0,0.0,0.0,0.0,0.0,0.0,0.0,3.6535,3.815,4.1379,4.0516,3.9489,3.9188,3.6986,3.4921,0.0,0.0,0.0,0.0,0.0,0.0,0.0,0.0,0.0,0.0,0.0,0.0,3.713,3.9733,0.0,0.0,0.0,0.0,0.0,0.0,4.1024,4.1024,4.0946,0.0,0.0,0.0,0.0,0.0,0.0,0.0,0.0,0.0,3.9587,4.1529,4.4792,4.6696,4.825,5.1591,5.4971,5.7535,5.6758,5.8273,6.0215,6.0215,6.0851,6.1484,6.151,6.0309,5.9105,5.9095,5.5942,5.2975,5.2741,5.075,4.9267,5.0087,5.0867,5.2013,5.3903,5.6211,5.8075,5.8948,6.1208,6.2752,6.2662,6.4131,6.5118,6.5122,6.578,6.6245,6.6299,6.6299,6.6263,6.6205,6.6185,6.6185,6.6185,6.6185,6.6185,6.6185,6.6185,6.6165,6.6102,6.6102,6.6074,6.602,6.602,6.5972,6.5923,6.5846,6.582,6.582,6.5701,6.5608,6.5608,6.5608,6.5552,6.5494,6.5405,6.5345,6.5175,0.0,0.0,0.0,0.0,0.0,0.0,3.6798,3.7211,3.8263,4.1541,4.1569,4.0896,3.9913,3.8893,3.6977,3.3682,0.0,0.0,0.0,0.0,0.0,0.0,0.0,0.0,0.0,0.0,3.8009,3.7683,3.9807,0.0,0.0,0.0,0.0,0.0,0.0,4.0907,4.0907,4.0907,0.0,0.0,0.0,0.0,0.0,0.0,0.0,0.0,0.0,0.0,4.0558,4.2889,4.4948,4.6929,4.9337,5.1785,5.4194,5.6408,5.8156,5.9568,6.0657,6.1226,6.1507,6.1556,5.9903,5.8286,5.8319,5.5005,5.1765,5.1258,4.9501,4.8174,4.8525,4.9267,5.0403,5.2133,5.4531,5.6618,5.7892,5.9826,6.1446,6.2297,6.3516,6.4464,6.4948,6.5721,6.6205,6.6245,6.6245,6.6225,6.6185,6.6185,6.6185,6.6185,6.6144,6.6144,6.6144,6.6102,6.6058,6.6036,6.6052,6.6044,6.5996,6.5972,6.5897,6.5846,6.5793,6.5767,6.5674,6.558,6.5523,6.5465,6.5444,6.5383,6.5321,6.529,6.5161,6.4989,0.0,0.0,0.0,0.0,0.0,3.3419,3.7361,3.7437,3.8099,4.0967,4.1501,4.1184,4.0114,3.9772,3.8226,3.4881,3.3874,0.0,0.0,0.0,0.0,0.0,0.0,0.0,0.0,0.0,3.7869,3.788,3.9614,4.0227,0.0,0.0,4.0907,4.0907,0.0,0.0,0.0,0.0,0.0,0.0,0.0,0.0,0.0,0.0,0.0,0.0,0.0,0.0,0.0,0.0,0.0,4.489,4.7144,4.871,5.0547,5.4852,5.7211,5.8739,6.0016,6.0934,6.1559,6.158,5.9885,5.8064,5.7577,5.4303,5.1023,4.9657,4.8017,4.6846,4.6846,4.751,4.872,5.0672,5.3123,5.5421,5.7348,5.9021,6.0549,6.1892,6.3052,6.3942,6.4561,6.5566,6.6185,6.6185,6.6165,6.6165,6.6165,6.6144,6.6144,6.6165,6.6102,6.608,6.608,6.6036,6.599,6.599,6.5982,6.5972,6.5947,6.5897,6.582,6.5701,6.5712,6.5618,6.5494,6.5435,6.5413,6.5321,6.5226,6.5128,6.5061,6.4993,6.485,6.4669,0.0,0.0,0.0,0.0,0.0,0.0,3.6573,3.7099,3.7755,3.958,3.9829,3.9937,4.0177,3.9413,3.8499,3.7432,3.4919,0.0,0.0,0.0,0.0,0.0,0.0,0.0,0.0,0.0,3.71,3.71,3.8848,3.9703,3.9742,4.0519,4.0907,4.0907,0.0,0.0,0.0,0.0,0.0,0.0,0.0,0.0,0.0,0.0,0.0,0.0,0.0,0.0,0.0,0.0,0.0,0.0,0.0,4.6177,4.7097,5.1298,5.4946,5.7642,5.7731,5.9615,6.1595,6.1595,6.0333,5.8636,5.6996,5.3912,5.0672,4.8135,4.6222,4.5012,4.5012,4.5753,4.7159,4.9696,5.2312,5.4857,5.7335,5.909,6.0411,6.1194,6.2743,6.371,6.371,6.5218,6.6185,6.6185,6.6123,6.6102,6.6102,6.6036,6.6036,6.6102,6.6036,6.6013,6.6013,6.6013,6.6029,6.5996,6.5996,6.5923,6.5793,6.5793,6.5674,6.5494,6.5405,6.5383,6.529,6.5232,6.5199,6.5199,6.492,6.4813,6.4777,6.4521,6.4405,6.4405,0.0,0.0,0.0,0.0,0.0,0.0,0.0,3.5371,3.5995,3.774,3.8171,3.8842,4.0061,3.9018,3.829,3.8497,3.6521,0.0,0.0,0.0,0.0,0.0,0.0,0.0,0.0,3.7411,3.7994,3.7994,3.9703,4.0247,3.9742,4.0519,4.0907,4.0907,4.0907,4.0441,0.0,0.0,0.0,0.0,0.0,0.0,3.5818,0.0,0.0,0.0,0.0,0.0,0.0,0.0,0.0,0.0,0.0,0.0,0.0,4.9035,5.1982,5.4693,5.712,5.8382,5.8988,5.9012,5.7304,5.5474,5.4927,5.1687,4.8408,4.7002,4.5792,4.5012,4.5012,4.5714,4.6963,4.8954,5.1425,5.3942,5.6398,5.8194,5.9748,6.1,6.2665,6.4135,6.5296,6.5835,6.6123,6.6123,6.608,6.6036,6.6036,6.6029,6.6005,6.6036,6.6029,6.5982,6.5982,6.5958,6.5923,6.5872,6.5872,6.5781,6.5674,6.5674,6.559,6.5405,6.5413,6.5352,6.5194,6.5128,6.4955,6.485,6.4707,6.4558,6.4406,6.4289,6.4169,6.4121,0.0,0.0,0.0,0.0,0.0,0.0,0.0,3.4132,3.4663,3.6104,3.6483,3.7351,3.9116,3.8193,3.7732,3.847,3.7215,0.0,0.0,0.0,0.0,0.0,0.0,0.0,3.6595,3.745,3.8382,3.9353,4.0713,4.1451,4.1646,4.2151,4.2034,4.1374,4.1374,4.0752,0.0,0.0,0.0,0.0,0.0,0.0,3.5818,0.0,0.0,0.0,0.0,0.0,0.0,0.0,0.0,0.0,0.0,0.0,0.0,0.0,4.9463,5.1479,5.4937,5.6347,5.686,5.6875,5.5435,5.3756,5.2741,5.0204,4.7627,4.6105,4.5363,4.5012,4.5012,4.5714,4.6963,4.9036,5.1232,5.3671,5.6455,5.8025,5.9668,6.1833,6.3052,6.4367,6.601,6.6123,6.608,6.6058,6.6013,6.6005,6.6005,6.5996,6.5933,6.5982,6.5933,6.5972,6.5972,6.5923,6.5872,6.5793,6.5793,6.5674,6.5523,6.5523,6.5405,6.5252,6.5252,6.5161,0.0,6.4888,6.4707,6.4521,6.4704,6.4657,6.4491,6.4743,6.4681,6.4584,0.0,0.0,0.0,0.0,0.0,0.0,0.0,3.3269,3.3631,3.4604,3.4756,3.5567,3.7516,3.706,3.6901,3.7551,0.0,0.0,0.0,0.0,0.0,0.0,0.0,0.0,3.5974,3.6906,3.8538,4.0907,4.1879,4.3199,4.4792,4.4792,4.3938,4.2384,4.2267,4.1218,3.9509,0.0,0.0,0.0,3.5818,3.5818,0.0,0.0,0.0,0.0,0.0,0.0,0.0,0.0,0.0,0.0,0.0,0.0,0.0,0.0,0.0,0.0,0.0,5.3639,5.5005,5.5005,5.4381,5.3093,5.0633,4.9345,0.0,4.5519,4.5012,4.5012,4.509,4.5753,4.7159,4.9778,5.1655,5.3941,5.7218,5.849,6.0191,6.3323,6.371,6.4347,6.5947,6.6102,6.6058,6.6013,6.5982,6.5996,6.5996,6.5923,6.5897,6.5897,6.5897,6.5897,6.5897,6.5897,6.5846,6.5767,6.5767,6.5618,6.5413,6.5413,6.522,6.4955,6.4955,6.4815,6.4558,6.4558,6.4443,6.4319,6.4898,6.5023,6.5039,6.5578,6.573,6.5521,0.0,0.0,0.0,0.0,0.0,0.0,0.0,0.0,0.0,0.0,3.3559,3.4563,3.5691,3.5894,3.6189,0.0,0.0,0.0,0.0,0.0,0.0,0.0,0.0,0.0,3.7761,3.9237,4.0286,4.0907,4.3122,4.4404,4.4792,4.4792,4.4598,4.4132,4.2811,4.0907,3.8654,3.7566,0.0,0.0,3.5857,3.5864,0.0,0.0,0.0,0.0,3.5866,3.5866,0.0,0.0,0.0,0.0,0.0,0.0,0.0,0.0,4.5597,4.6066,4.8213,0.0,5.2312,5.2312,5.1648,5.0867,0.0,4.8447,4.6534,4.5246,4.5012,4.5207,4.587,4.6144,4.7357,5.0562,5.2553,5.4609,5.7235,5.9336,6.135,6.3439,6.3631,6.4268,6.5947,6.6052,6.6005,6.5982,6.5972,6.5923,6.5923,6.5846,6.582,6.582,6.5728,6.5728,6.582,6.5728,6.5608,6.559,6.5532,6.5444,6.5321,6.5258,6.5095,6.4779,6.4779,6.4558,6.4289,6.4289,6.4544,6.4898,6.5036,6.5307,6.5615,6.5753,6.573,6.5669,0.0,0.0,0.0,0.0,0.0,0.0,0.0,0.0,0.0,0.0,0.0,3.3391,3.3945,3.4263,0.0,0.0,0.0,0.0,0.0,0.0,0.0,0.0,0.0,3.7683,3.8965,4.0635,4.2073,4.3238,4.5453,4.6735,4.7123,4.7123,4.6502,4.5258,4.3122,4.077,3.8377,3.7911,3.6985,3.5833,3.5898,0.0,0.0,0.0,0.0,0.0,3.5889,3.5889,0.0,3.7269,3.7752,3.8155,0.0,0.0,0.0,0.0,4.4387,4.5207,4.6144,4.8017,4.9657,4.9657,4.9579,4.9423,4.9032,4.8174,4.7315,4.6846,4.6768,4.6924,4.7393,4.8436,4.9916,5.2183,5.4288,5.6358,5.8428,6.0411,6.2182,6.3477,6.3998,6.469,6.592,6.6005,6.5996,6.5947,6.5897,6.5846,6.5846,6.5755,6.5701,6.5701,6.559,6.5552,6.5701,6.558,6.5523,6.5435,6.5245,6.5123,6.5023,6.4886,6.4707,6.4483,6.4483,6.4516,6.4608,6.4566,6.4881,6.544,6.5803,6.6023,6.626,6.6629,6.669,6.6537,0.0,0.0,0.0,0.0,0.0,0.0,0.0,0.0,0.0,0.0,0.0,0.0,0.0,0.0,0.0,0.0,0.0,0.0,0.0,0.0,0.0,0.0,3.7139,3.8421,4.0053,4.184,4.3899,4.6191,4.8211,4.9571,5.027,5.027,4.8677,4.5725,4.3433,4.0896,3.8408,3.8408,3.7417,3.5889,3.5894,0.0,0.0,0.0,0.0,0.0,0.0,0.0,0.0,3.8463,3.8822,3.8744,4.1065,0.0,0.0,0.0,0.0,0.0,4.4972,4.6261,4.7627,4.7744,4.8291,4.8642,4.8096,4.8408,4.8798,4.8798,4.8954,4.9153,4.9439,5.1318,5.3195,5.4294,5.6446,5.8506,5.9976,6.1447,6.2665,6.3513,6.4342,6.5186,6.5943,6.5996,6.5947,6.5897,6.582,6.5793,6.5767,6.5646,6.5552,6.5552,6.5435,6.5405,6.5523,6.5465,6.5405,6.5383,6.5052,6.4813,6.4707,6.4482,6.4289,6.4169,6.4241,6.4566,6.5023,6.5001,6.5376,6.6038,6.6679,6.6911,6.6942,6.7642,6.7794,6.7523,0.0,0.0,0.0,0.0,0.0,0.0,0.0,0.0,0.0,0.0,0.0,0.0,0.0,0.0,0.0,0.0,0.0,0.0,0.0,0.0,0.0,3.7955,3.947,4.0791,4.1801,4.4171,4.5958,4.7084,5.027,5.1901,5.2018,5.2018,4.9493,4.4948,4.3782,4.147,3.8408,3.8408,3.7417,3.5894,3.5914,0.0,0.0,0.0,0.0,0.0,0.0,0.0,0.0,3.6456,3.6967,3.7669,3.8804,0.0,0.0,0.0,0.0,0.0,4.4816,4.6261,4.7744,4.8447,4.872,4.8954,4.9579,4.9228,4.8798,4.8798,4.9384,5.0342,5.1782,5.3007,5.4482,5.6699,5.8501,5.9973,6.0963,6.1814,6.2625,6.3513,6.4277,6.5095,6.5919,6.5947,6.5897,6.582,6.5793,6.5767,6.5608,6.5494,6.5405,6.5405,6.529,6.5226,6.5258,6.5226,6.5226,6.5232,6.4886,6.4705,6.4707,6.4367,6.4128,6.3958,6.4545,6.4733,6.4726,6.5297,6.5977,6.6753,6.6851,6.7243,6.7715,6.7757,6.7633,6.7305,0.0,0.0,0.0,0.0,0.0,0.0,0.0,0.0,0.0,0.0,0.0,0.0,0.0,0.0,0.0,0.0,0.0,0.0,0.0,0.0,3.7268,3.9043,4.0713,4.1995,4.2889,4.5414,4.7589,4.9415,5.1901,5.3106,5.3067,5.1202,4.8599,4.5375,4.4083,4.1621,3.8436,3.8455,3.7503,3.597,0.0,0.0,0.0,0.0,0.0,0.0,0.0,0.0,0.0,0.0,3.7946,3.8804,3.9663,0.0,0.0,0.0,0.0,0.0,4.4777,4.6261,4.7904,4.9168,4.9873,5.0576,5.1904,5.2223,5.2264,5.2259,5.2599,5.3117,5.3838,5.5028,5.6736,5.9103,5.9746,6.021,6.1041,6.1795,6.2604,6.3389,6.4594,6.5548,6.5909,6.5897,6.582,6.5793,6.5674,6.5618,6.5494,6.5413,6.5321,6.529,6.5161,6.5061,6.492,6.4888,6.4888,6.4958,6.4595,6.4328,6.4169,6.4326,6.4331,6.4188,6.4958,6.5493,6.5829,6.6099,6.6676,6.7451,6.7347,6.7463,6.7633,6.7024,6.6736,6.6427,0.0,0.0,0.0,0.0,0.0,0.0,0.0,0.0,0.0,0.0,0.0,0.0,0.0,0.0,0.0,0.0,0.0,0.0,0.0,3.5474,3.7588,3.9315,4.0985,4.2694,4.4365,4.6696,4.9299,5.2096,5.3572,5.4194,5.3922,5.0503,4.7861,4.5929,4.4258,4.1653,3.8494,3.8488,3.7535,3.5991,0.0,0.0,0.0,0.0,0.0,0.0,0.0,0.0,0.0,0.0,0.0,0.0,0.0,0.0,0.0,4.2357,4.3021,4.3918,4.5012,4.6573,4.8415,5.0502,5.1363,5.2107,5.3593,5.4755,5.5407,5.519,5.5507,5.5859,5.5912,5.7133,5.8703,6.0519,6.0287,6.0075,6.0616,6.16,6.2562,6.3322,6.4763,6.5716,6.5833,6.582,6.5767,6.574,6.559,6.5435,6.5383,6.529,6.5194,6.5128,6.4993,6.4815,6.467,6.4558,6.4482,6.4558,6.4437,6.4224,6.3996,6.4577,6.4805,6.4746,6.5509,6.6247,6.6874,6.6905,6.7295,6.7847,6.7687,6.7524,6.7303,6.6404,6.5878,6.5533,0.0,0.0,0.0,0.0,0.0,0.0,0.0,0.0,0.0,0.0,0.0,0.0,0.0,0.0,0.0,0.0,0.0,0.0,0.0,3.49,3.6673,3.8421,4.0092,4.2889,4.6929,4.8794,5.1358,5.4737,5.567,5.5709,5.4815,5.1396,4.8444,4.5929,4.4258,4.1653,3.8494,3.8488,3.7535,3.5991,3.5991,0.0,0.0,0.0,0.0,0.0,0.0,0.0,0.0,0.0,0.0,0.0,0.0,0.0,4.1342,4.2162,4.3021,4.4075,4.5753,4.7471,4.9579,5.2905,5.3178,5.2802,5.3614,5.5126,5.6067,5.5191,5.6328,5.7651,5.832,5.9126,5.9784,5.9959,5.9882,5.9804,5.9783,6.1109,6.2413,6.3299,6.4176,6.4987,6.5743,6.5793,6.5701,6.5523,6.5435,6.5383,6.529,6.5128,6.5023,6.4989,6.4781,6.4634,6.4596,6.4287,6.4125,6.4162,6.4619,6.4815,6.4753,6.5297,6.5521,6.5558,6.6294,6.6648,6.6758,6.739,6.7704,6.7687,6.7579,6.7303,6.6925,6.6197,6.5403,6.4601,0.0,0.0,0.0,0.0,0.0,0.0,0.0,0.0,0.0,0.0,0.0,0.0,0.0,0.0,0.0,0.0,0.0,0.0,0.0,3.5948,3.7588,3.9858,4.1063,4.3471,4.724,4.9027,5.1319,5.4194,5.5048,5.5048,5.4116,5.0697,4.825,4.6696,4.4517,4.2259,3.9974,3.8974,3.7861,3.6774,3.6228,3.5991,0.0,0.0,0.0,0.0,0.0,0.0,0.0,0.0,3.7867,3.8726,3.9546,4.0405,4.1381,4.2786,4.4192,4.5561,4.6772,4.9529,5.2342,5.3665,5.5338,5.6832,5.7672,5.8304,5.8659,5.8267,5.8257,5.8426,5.8661,5.8927,5.9398,6.0423,5.9689,5.934,6.0299,6.0971,6.1851,6.3176,6.4051,6.491,6.5717,6.5701,6.5618,6.5435,6.5383,6.529,6.5128,6.492,6.4779,6.4781,6.4482,6.4249,6.4046,6.4401,6.4443,6.4169,6.4642,6.4958,6.5226,6.5939,6.6257,6.6191,6.6985,6.7353,6.7353,6.763,6.7687,6.7687,6.7378,6.6889,6.6197,6.5403,6.4601,6.3788,0.0,0.0,0.0,0.0,0.0,0.0,0.0,0.0,0.0,0.0,0.0,0.0,0.0,0.0,0.0,0.0,0.0,0.0,3.5271,3.6453,3.8131,4.0402,4.1607,4.3549,4.6463,4.8483,5.0853,5.3689,5.431,5.4155,5.3222,5.0076,4.8289,4.7589,4.4845,4.2779,4.1299,3.9412,3.8102,3.7204,3.6345,3.5991,0.0,0.0,0.0,0.0,0.0,0.0,0.0,0.0,3.7906,3.8414,3.978,4.0444,4.1108,4.3102,4.494,4.6622,4.8021,5.0936,5.3773,5.4884,5.6875,5.8856,5.9958,6.019,6.0104,5.9724,5.9381,5.9039,5.8702,5.8818,5.9224,5.9996,5.9397,5.9223,6.0311,6.0673,6.1458,6.3089,6.377,6.4552,6.5651,6.5618,6.5465,6.5383,6.5258,6.5128,6.492,6.4743,6.4596,6.4482,6.4472,6.4337,6.4078,6.4762,6.5123,6.4991,6.5226,6.5435,6.572,6.6581,6.6896,6.6773,6.7413,6.7687,6.7633,6.7687,6.7633,6.7488,6.7061,6.644,6.5725,6.4669,6.3898,6.3383,0.0,0.0,0.0,0.0,0.0,0.0,0.0,0.0,2.9905,2.9905,3.015,0.0,0.0,0.0,0.0,0.0,0.0,0.0,3.4477,3.6142,3.7877,3.9625,4.1296,4.3005,4.4753,4.7279,5.0231,5.3689,5.3689,5.3222,5.2329,4.9765,4.8599,4.8444,4.5079,4.313,4.2156,3.9646,3.8102,3.7243,3.6345,3.5991,3.5991,0.0,0.0,0.0,0.0,0.0,0.0,0.0,3.8024,3.775,4.0288,4.0561,4.0405,4.2946,4.4948,4.6868,4.9472,5.146,5.3554,5.6893,5.7718,5.8123,5.9648,6.0092,5.9878,5.8797,5.93,5.9591,5.8703,5.9186,5.9476,5.8466,5.9023,5.9579,5.9511,6.0195,6.1363,6.3065,6.3194,6.3767,6.5454,6.5465,6.5383,6.529,6.5128,6.492,6.4707,6.4634,6.4444,6.4209,6.479,6.5067,6.4935,6.5456,6.6062,6.6684,6.6565,6.637,6.6262,6.7266,6.7524,6.721,6.7542,6.7633,6.747,6.7633,6.7488,6.7117,6.6404,6.594,6.5533,6.4041,6.3531,6.3383,0.0,0.0,0.0,0.0,0.0,0.0,0.0,0.0,3.0037,3.0037,3.0328,0.0,0.0,0.0,0.0,0.0,0.0,0.0,3.6202,3.7394,3.8771,4.048,4.1607,4.2422,4.2966,4.5453,4.8483,5.194,5.2523,5.2057,5.0619,4.9221,4.7939,4.6668,4.4542,4.313,4.2163,4.027,3.8961,3.8141,3.7282,3.654,3.5991,0.0,0.0,0.0,0.0,0.0,0.0,0.0,0.0,0.0,4.0029,4.0498,4.1004,4.2363,4.4904,4.7645,4.9644,5.3115,5.641,5.7434,5.8528,5.9436,5.988,6.0053,5.9764,5.8742,5.8742,5.8993,5.9302,5.905,5.9107,6.0008,5.9832,5.9749,6.0272,6.1094,6.2029,6.3015,6.3679,6.4364,6.5388,6.5405,6.5283,6.509,6.4886,6.4743,6.4634,6.4813,6.4907,6.4823,6.5464,6.5682,6.5493,6.6162,6.6565,6.6565,6.701,6.7195,6.7104,6.7415,6.7414,6.721,6.747,6.747,6.7266,6.747,6.7359,6.6983,6.6344,6.5625,6.4806,6.3861,6.3158,6.2659,0.0,0.0,0.0,0.0,0.0,0.0,2.9773,2.9946,3.0136,3.0151,3.0409,3.0598,0.0,0.0,0.0,3.1352,3.252,3.4137,3.6396,3.7704,3.9159,4.083,4.1723,4.2345,4.2694,4.4559,4.654,4.8677,5.0153,5.0386,4.9376,4.8832,4.8055,4.6978,4.536,4.4143,4.3215,4.1168,3.9858,3.9,3.8141,3.7282,3.654,0.0,0.0,0.0,0.0,0.0,0.0,0.0,0.0,0.0,3.9684,3.9998,4.0547,4.2737,4.5606,4.8543,5.0949,5.4762,5.802,5.7688,5.8799,5.9882,5.9476,5.9379,5.9147,5.8201,5.8491,5.9011,5.9125,5.9297,5.9584,6.0188,6.015,6.0296,6.1006,6.1531,6.2284,6.3461,6.3963,6.4526,6.5299,6.5283,6.5123,6.4886,6.4743,6.4709,6.4778,6.4978,6.5216,6.5501,6.6128,6.6383,6.6186,6.6911,6.7163,6.6883,6.7305,6.7414,6.7303,6.7359,6.7247,6.704,6.7247,6.7266,6.721,6.7322,6.704,6.6536,6.5815,6.5004,6.4041,6.3308,6.2813,6.2381,0.0,0.0,0.0,0.0,0.0,0.0,2.9872,3.0007,3.0163,3.0263,3.05,3.0598,0.0,0.0,0.0,3.0714,3.2231,3.3934,3.5718,3.7432,3.912,4.0713,4.1529,4.2422,4.3355,4.4171,4.4598,4.4676,4.724,4.8444,4.8366,4.8533,4.8494,4.8183,4.6722,4.5553,4.4501,4.2026,4.0483,3.9624,3.8804,3.7946,3.7165,3.7165,0.0,0.0,0.0,0.0,0.0,0.0,0.0,0.0,3.9296,3.9297,3.9481,4.3402,4.6458,4.9296,5.258,5.6135,5.8647,5.7666,5.8587,5.9474,5.8528,5.8432,5.8375,5.7602,5.8623,5.9472,5.8676,5.981,6.0596,5.9672,6.0186,6.0968,6.1697,6.1753,6.2376,6.4134,6.4169,6.4356,6.5238,6.5123,6.4886,6.4707,6.4634,6.4778,6.5073,6.5216,6.5576,6.6202,6.6839,6.7136,6.6999,6.7583,6.7794,6.747,6.747,6.7303,6.6983,6.7154,6.704,6.6786,6.6961,6.704,6.721,6.7154,6.6618,6.5788,6.5004,6.4218,6.3457,6.2659,6.2381,6.2381,0.0,0.0,0.0,0.0,0.0,0.0,2.9872,3.0007,3.0163,3.0263,3.05,3.0598,3.0598,3.0598,0.0,3.1487,3.257,3.4187,3.6571,3.7725,3.8791,3.9897,4.013,4.0946,4.2461,4.2656,4.3083,4.3782,4.6346,4.724,4.6579,4.803,4.7582,4.5598,4.5326,4.4343,4.2822,4.0902,3.9624,3.8765,3.7906,3.7048,3.6267,3.6267,3.5757,0.0,0.0,0.0,0.0,0.0,0.0,0.0,3.8984,3.9219,3.9921,4.154,4.4694,4.8277,5.1045,5.521,5.8523,5.7621,5.8066,5.849,5.758,5.8428,5.9314,5.9121,5.9391,5.9755,6.0188,6.0527,6.0695,6.0455,6.052,6.0865,6.1534,6.2233,6.2977,6.3917,6.4546,6.4904,6.4848,6.4815,6.4632,6.4328,6.4728,6.501,6.5111,6.611,6.6738,6.6913,6.7543,6.7848,6.7694,6.7841,6.7794,6.747,6.7359,6.7154,6.7019,6.704,6.7019,6.6961,6.6845,6.6903,6.6983,6.644,6.5976,6.5597,6.4393,6.3754,6.3457,6.2659,6.2381,6.2381,0.0,0.0,0.0,0.0,0.0,0.0,0.0,0.0,3.0266,3.043,3.053,3.0598,3.0598,3.0946,0.0,0.0,3.3026,3.4526,3.6261,3.756,3.8908,4.0208,4.0286,4.0674,4.1568,4.1218,4.1412,4.2267,4.3588,4.4443,4.4831,4.6211,4.5879,4.4206,4.467,4.3958,4.2325,4.0984,3.9937,3.9117,3.8258,3.7399,3.6618,3.6618,3.6069,3.533,3.5337,0.0,0.0,0.0,0.0,0.0,0.0,0.0,3.9062,4.1133,4.3869,4.6954,5.0239,5.4534,5.8085,5.8374,5.8122,5.7772,5.767,5.8611,5.9627,6.0096,6.0173,6.0265,6.0681,6.071,6.066,6.0559,6.0851,6.1305,6.2002,6.2818,6.3626,6.4438,6.4761,6.4853,6.4707,6.4558,6.4328,6.4004,6.4625,6.5121,6.5394,6.642,6.7173,6.758,6.7885,6.7952,6.7794,6.7741,6.7579,6.7247,6.7154,6.704,6.6903,6.6903,6.6903,6.6903,6.6845,6.6845,6.6845,6.6074,6.5533,6.5074,6.4041,6.3348,6.2966,6.2537,6.2381,6.2381,0.0,0.0,0.0,0.0,0.0,0.0,0.0,0.0,0.0,3.0588,3.0598,3.0636,3.0791,3.141,3.1913,0.0,0.0,0.0,3.5873,3.7414,3.9024,4.0635,4.0674,4.0752,4.0907,4.013,4.0092,4.0907,4.0597,4.1412,4.3316,4.4344,4.437,4.3553,4.4331,4.3846,4.2329,4.1296,4.0444,3.9741,3.8921,3.818,3.7516,3.7516,3.697,3.6189,3.603,3.6946,3.8164,3.8164,0.0,0.0,0.0,0.0,3.789,4.0976,4.3303,4.5719,4.956,5.3781,5.741,5.8834,5.8252,5.7439,5.7934,5.8773,5.9634,6.0388,6.0681,6.0734,6.071,6.066,6.0585,6.0436,6.0915,6.159,6.2395,6.309,6.3892,6.4913,6.4745,6.4521,6.4521,6.4289,6.4,6.3803,6.4539,6.5217,6.5804,6.6529,6.7266,6.7967,6.7863,6.7741,6.7633,6.7524,6.7303,6.7019,6.6961,6.6903,6.6786,6.6786,6.6786,6.6786,6.6668,6.6608,6.6512,6.5697,6.4941,6.4323,6.357,6.2966,6.2381,6.2381,6.2381,6.2381,0.0,0.0,0.0,0.0,0.0,0.0,0.0,0.0,0.0,0.0,3.0598,3.0868,3.1565,3.1758,3.2416,3.3924,3.4283,3.5078,3.6716,0.0,0.0,3.982,3.9858,4.0208,4.0869,4.013,4.0092,4.0907,3.9431,3.9975,4.2432,4.4114,4.4416,4.3604,4.3778,4.3329,4.2275,4.0678,3.9897,3.9741,3.8921,3.8534,3.8417,3.8417,3.7906,3.7048,3.6267,3.6165,3.6367,3.6367,3.6836,0.0,0.0,0.0,3.7678,3.9669,4.2448,4.5483,4.8273,5.2512,5.6381,5.7235,5.7786,5.7973,5.7251,5.8265,5.9418,5.9484,6.0112,6.0635,6.0685,6.0559,6.0425,6.037,6.0332,6.076,6.2053,6.2359,6.2896,6.4179,6.4247,6.4083,6.3878,6.3668,6.3742,6.4095,6.4906,6.5617,6.6271,6.6973,6.7396,6.7506,6.7341,6.7266,6.7266,6.7266,6.7154,6.7019,6.6903,6.6786,6.6786,6.6786,6.6786,6.6727,6.611,6.5824,6.576,6.4393,6.3716,6.357,6.2813,6.2459,6.2381,6.2381,6.2381,6.2381,0.0,0.0,0.0,0.0,0.0,0.0,0.0,0.0,0.0,0.0,0.0,3.1603,3.2444,3.2957,3.3576,3.4311,3.4853,3.5658,3.691,3.7414,3.8063,3.8926,3.8965,3.8926,3.8771,3.8421,3.8654,3.9509,3.8266,3.9237,4.2199,4.2096,4.2318,4.2825,4.1909,4.1576,4.1576,3.9858,3.939,3.9741,3.8921,3.9159,3.99,3.8971,3.8934,3.9326,3.8471,3.7889,3.7539,3.8008,3.7772,3.7376,3.7883,0.0,0.0,0.0,3.9841,4.252,4.7811,5.1833,5.507,5.7212,5.7627,5.7543,5.7612,5.8486,5.9256,5.923,5.9879,6.0464,6.0506,6.0453,6.0342,6.0197,6.0425,6.08,6.1385,6.1768,6.2297,6.3266,6.3289,6.3307,6.3543,6.3752,6.3959,6.4081,6.5191,6.593,6.6135,6.6847,6.723,6.721,6.7097,6.6983,6.6772,6.6809,6.675,6.6572,6.6548,6.6548,6.6548,6.6608,6.6668,6.6727,6.6012,6.5697,6.5597,6.4112,6.3531,6.3457,6.2659,6.2381,6.2381,6.2381,6.2381,6.2381,0.0,0.0,0.0,0.0,0.0,0.0,0.0,0.0,0.0,0.0,0.0,3.2454,3.3344,0.0,0.0,0.0,3.5317,3.5968,3.6639,3.6745,3.7161,3.8033,3.8071,3.7761,3.71,3.6673,3.6984,3.8071,3.7217,3.8538,4.184,4.0446,4.0676,4.2241,4.0543,4.0171,4.0678,3.9429,3.939,4.0132,3.9976,4.0639,4.1657,4.0845,4.1322,4.2264,4.125,4.0312,3.957,3.957,3.855,3.736,3.7789,3.7055,0.0,0.0,0.0,4.0574,4.6795,5.0284,5.2895,5.5961,5.6648,5.6835,5.7627,5.8349,5.8846,5.8857,5.9435,5.996,5.9921,6.0103,6.0226,5.9944,6.035,6.067,6.0716,6.128,6.1911,6.2491,6.2619,6.2888,6.3567,6.391,6.42,6.4448,6.5423,6.6024,6.6131,6.6656,6.6925,6.6809,6.6809,6.6691,6.6452,6.6452,6.6391,6.6269,6.6269,6.6269,6.6269,6.6233,6.6294,6.6391,6.5697,6.5338,6.5074,6.3788,6.3233,6.3158,6.2581,6.2381,6.2381,6.2381,6.2381,6.2381,0.0,0.0,0.0,0.0,0.0,0.0,0.0,0.0,0.0,0.0,0.0,3.3383,3.4234,3.435,3.4737,3.5549,3.5665,3.5725,3.5737,3.5814,3.6267,3.7139,3.7178,0.0,3.71,3.5469,3.5469,3.7178,3.6284,3.7605,4.0946,4.0104,4.0648,4.2241,4.0543,3.9819,3.9858,3.978,4.0249,4.1186,4.2786,4.3489,4.3726,4.5281,4.5966,4.582,4.4101,4.293,4.1836,3.9453,3.8042,3.7165,3.6384,3.6072,3.6189,0.0,0.0,0.0,4.4292,4.6909,4.943,5.1747,5.4091,5.6038,5.6635,5.7404,5.7963,5.7881,5.8444,5.8897,5.8678,5.9387,5.9944,5.9782,5.9685,5.9813,6.0102,6.0841,6.149,6.1957,6.2593,6.326,6.392,6.3877,6.4363,6.5621,6.5597,6.5786,6.6404,6.6391,6.633,6.633,6.633,6.633,6.6269,6.6269,6.6269,6.6269,6.6269,6.6269,6.6269,6.5697,6.5468,6.5468,6.4873,6.4253,6.357,6.2813,6.2459,6.2459,6.2381,6.2381,6.2381,6.2381,6.2381,6.2381,0.0,0.0,0.0,0.0,0.0,0.0,0.0,0.0,0.0,0.0,0.0,0.0,0.0,3.6826,3.6748,3.6477,3.6013,3.5687,3.5699,3.5252,3.5115,3.543,3.4925,3.442,3.3837,3.3759,3.4031,3.4653,3.4886,3.644,3.9276,3.8454,3.8994,4.0565,3.9472,3.9259,3.978,3.9234,3.9546,4.0522,4.2786,4.4387,4.548,4.6697,4.7796,4.8582,4.746,4.5742,4.3828,4.2381,4.0581,3.8739,3.7285,3.6813,3.6774,3.654,3.7906,3.9927,4.1792,4.4565,4.7641,5.0579,5.27,5.4726,5.7075,5.7685,5.8044,5.9003,5.9298,5.936,5.9231,5.9526,5.9748,5.9508,5.9253,5.9285,5.9942,6.0104,6.0589,6.1592,6.1985,6.2498,6.3544,6.3966,6.4565,6.5424,6.579,6.6163,6.6391,6.633,6.6207,6.6146,6.6083,6.5832,6.5207,6.4706,6.4419,6.4419,6.4419,6.4234,6.3789,6.4285,6.3999,6.3098,6.369,6.3716,6.3457,6.2659,6.2381,6.2381,6.2381,6.2381,6.2381,6.2381,6.2381,6.2302,0.0,0.0,0.0,0.0,0.0,0.0,0.0,0.0,3.4995,3.4995,0.0,0.0,0.0,0.0,3.787,3.698,3.6168,3.5687,3.5699,3.4661,3.4175,3.4497,3.3448,3.2594,3.2004,3.2283,3.2555,3.2866,3.3682,3.5127,3.7125,3.6865,3.752,3.8823,3.7981,3.8276,3.9351,3.8843,3.9273,4.0522,4.3102,4.5171,4.6885,4.834,4.9742,5.0867,5.0029,4.8629,4.691,4.5508,4.3866,4.2029,3.9398,3.7985,3.7126,3.6267,3.6813,3.8014,3.9324,4.1955,4.5079,4.805,5.0635,5.3222,5.6076,5.7264,5.811,5.9323,5.9625,5.9647,5.9508,5.9472,5.9326,5.9178,5.8945,5.9004,5.9696,5.9841,6.0314,6.1398,6.1702,6.2303,6.362,6.407,6.4621,6.537,6.5607,6.5627,6.5627,6.5314,6.5171,6.5135,6.5135,6.4822,6.4198,6.3663,6.3377,6.3377,6.3377,6.3208,6.2908,6.3401,6.3102,6.233,6.2768,6.3083,6.3083,6.2615,6.2381,6.2381,6.2381,6.2381,6.2381,6.203,6.1951,6.179,0.0,0.0,0.0,0.0,0.0,0.0,3.2898,3.3709,3.4379,3.434,0.0,0.0,0.0,0.0,0.0,3.7019,3.6207,3.5725,3.5699,3.4119,3.3555,3.4381,3.2827,3.1926,3.1926,3.1079,3.1079,3.1926,3.2827,3.3697,3.4549,3.5405,3.63,3.7093,3.6313,3.6914,3.8573,3.8609,3.9585,4.1345,4.4008,4.6114,4.7939,5.0516,5.2073,5.2737,5.1878,5.1566,5.1141,4.8625,4.7732,4.6874,4.2527,3.939,3.7165,3.6306,3.603,3.6186,0.0,0.0,0.0,4.3956,4.7738,5.1449,5.359,5.6039,5.8054,5.8669,5.9219,5.9583,5.9365,5.9061,5.8862,5.8821,5.8784,5.8958,5.9374,6.0,6.0664,6.1323,6.1907,6.2822,6.4251,6.4188,6.4507,6.5518,6.4856,6.4365,6.4266,6.3428,6.3066,6.3377,6.3377,6.3377,6.3377,6.3341,6.3306,6.3306,6.3306,6.3421,6.3643,6.3101,6.2954,6.309,6.2279,6.211,6.2381,6.2381,6.2381,6.2381,6.2381,6.2381,6.2223,6.135,6.0986,6.082,0.0,0.0,0.0,0.0,0.0,3.6141,3.5496,3.7318,3.8604,0.0,0.0,0.0,3.9727,3.9379,3.8798,3.7909,3.7058,3.6306,3.5737,3.4119,3.305,3.271,3.104,3.0108,3.0108,2.9874,2.9874,3.0108,3.1623,3.2492,3.2726,3.3607,3.4491,3.542,3.645,3.7198,3.7711,3.8336,3.9554,4.1437,4.5333,4.79,4.977,5.2975,5.513,5.6348,5.6113,5.5248,5.4025,5.2671,5.0581,4.7769,4.342,4.0291,3.8063,3.7204,3.6501,3.6069,3.6286,0.0,0.0,0.0,0.0,0.0,5.2627,5.5207,5.7187,5.8524,5.9711,6.045,6.0229,5.9921,5.9636,5.9418,5.8813,5.8607,5.9329,5.9905,6.0481,6.1171,6.2222,6.3,6.3171,6.3334,6.3529,6.3669,6.3463,6.3293,6.3258,6.3271,6.3315,6.3377,6.2877,6.2592,6.2592,6.2021,6.1458,6.0924,6.0924,6.0691,6.0275,6.075,6.1061,6.1144,6.1602,6.179,6.187,6.203,6.2189,6.2381,6.2381,6.1951,6.135,6.1069,6.0567,5.9849,0.0,0.0,3.4454,3.4521,3.6419,3.7659,3.699,3.8629,3.9653,0.0,0.0,0.0,4.0771,4.0655,4.0075,3.8837,3.7947,3.6964,3.5776,3.4119,3.2857,3.2043,3.0341,2.9408,2.9408,2.9059,2.8864,2.8864,3.0224,3.0937,3.0975,3.186,3.2942,3.4215,3.5207,3.6462,3.7867,3.8375,3.9789,4.1943,4.5609,4.8298,5.0481,5.3951,5.6142,5.7324,5.7672,5.743,5.6719,5.5517,5.2533,4.8904,4.6039,4.2829,3.99,3.8297,3.7243,3.6459,3.6095,3.7214,3.8956,4.0753,0.0,0.0,5.0735,5.3635,5.6167,5.8365,5.9332,5.9998,6.0454,5.9696,5.8995,5.9065,5.885,5.8787,5.9228,5.9516,6.0017,6.1047,6.1697,6.2197,6.2637,6.2784,6.2844,6.2875,6.2592,6.2273,6.1954,6.2266,6.2449,6.2449,6.2021,6.1807,6.1807,6.1067,6.0415,6.0001,5.9993,5.9771,5.9478,6.0408,6.0772,6.0912,6.1346,6.1628,6.1709,6.179,6.187,6.203,6.1676,6.1119,6.0619,5.9816,5.9113,5.8483,0.0,0.0,3.5926,3.6079,3.7461,3.8357,3.7794,3.8563,3.9,0.0,3.9251,4.0191,4.0848,4.1583,4.1351,3.9777,3.8837,3.7661,3.6086,3.4313,3.2973,3.2159,3.0379,2.9369,2.9253,2.8508,2.8042,2.7964,2.8826,2.935,2.9536,3.0297,3.1573,3.3278,3.3448,3.5369,3.8456,3.8765,4.0408,4.3069,4.5573,4.8152,5.0884,5.4307,5.6255,5.7231,5.7855,5.8631,5.9065,5.7203,5.3976,5.0469,4.9365,4.6309,4.2597,3.9822,3.8453,3.7633,3.6567,3.7375,3.8722,3.9604,4.2213,0.0,4.821,5.1414,5.4479,5.7244,5.7819,5.8264,5.9628,5.831,5.7241,5.7993,5.8501,5.8877,5.9061,5.8969,5.9479,6.0901,6.0756,6.1055,6.2458,6.2415,6.2337,6.2627,6.2061,6.1353,6.0706,6.0914,6.1093,6.1093,6.1093,6.1093,6.1034,6.0352,5.9873,5.9809,5.9806,5.9929,6.0047,6.0825,6.1369,6.1547,6.1383,6.1383,6.1547,6.1383,6.1383,6.1432,6.0586,6.0128,5.9664,5.7993,5.7276,5.7117,3.4427,3.5229,3.5919,3.5926,3.728,3.8365,3.8416,3.9281,4.0227,4.0877,4.1889,4.2357,4.1816,4.1893,4.1622,4.0616,3.9751,3.8806,3.788,3.5572,3.3891,3.3099,3.069,2.9059,2.8353,2.8197,2.7777,2.7116,2.7971,2.8761,2.9497,2.9658,3.0662,3.2416,3.3828,3.5594,3.7672,3.9741,4.2519,4.5726,4.7634,5.0324,5.3522,5.6255,5.8714,6.0627,6.008,6.0002,5.9802,5.743,5.557,5.3786,5.0781,4.8827,4.6832,4.2834,4.154,4.0912,3.8631,3.8229,3.8878,4.0376,4.1655,0.0,4.5687,4.8201,5.0359,5.1483,5.3118,5.4608,5.5315,5.4914,5.4904,5.6092,5.6287,5.6748,5.8033,5.9115,5.988,6.0208,6.0847,6.1451,6.1774,6.1854,6.1663,6.1105,6.0928,6.0909,6.0974,6.1034,6.1093,6.1093,6.1093,6.0974,6.0671,6.0065,5.9314,5.8458,5.8705,5.8773,5.8591,5.9514,6.0159,6.0633,6.0633,6.0633,6.0633,6.0633,6.0567,6.0468,6.0299,5.9314,5.79,5.7559,5.6957,5.6244,3.4404,3.4854,3.5634,3.6873,3.7774,3.8658,3.9678,4.0746,4.1494,4.1684,4.3009,4.3634,4.2744,4.3053,4.2783,4.1506,4.0629,3.9619,3.8384,3.6687,3.5008,3.3371,3.1623,3.0108,2.8787,2.7932,2.731,2.6883,2.731,2.7744,2.8229,2.9491,3.1499,3.4018,3.493,3.6976,3.9919,4.075,4.3102,4.6502,4.8642,5.1566,5.4923,5.7465,5.9534,6.1056,6.1056,6.0783,6.0198,5.8948,5.7083,5.4984,5.3239,5.125,4.8944,4.5887,4.4393,4.3141,4.0512,3.9173,3.8809,4.0064,4.0307,0.0,0.0,4.5437,4.6784,4.7859,4.9485,5.083,5.1016,5.1152,5.1527,5.2545,5.3592,5.4422,5.4818,5.7131,5.8932,5.937,5.9618,5.9941,6.0336,6.0688,6.0854,6.0854,6.0854,6.0914,6.1093,6.1093,6.1034,6.0854,6.0854,6.0512,5.9908,5.9282,5.8494,5.7814,5.8207,5.8389,5.8446,5.9497,6.0135,6.0378,6.0378,6.0378,6.0378,5.9794,5.929,5.878,5.878,5.7869,5.648,5.6024,5.559,5.5149,3.4404,3.4645,3.5522,3.7699,3.8188,3.886,4.0556,4.1711,4.2393,4.2347,4.3882,4.4731,4.423,4.477,4.4538,4.2995,4.2261,4.1106,3.9298,3.8225,3.6784,3.4847,3.3293,3.1817,3.0418,2.8592,2.7388,2.6883,2.6883,2.6961,2.7194,2.9401,3.2292,3.5691,3.6177,3.8544,4.2164,4.2264,4.4149,4.7276,5.0,5.2967,5.6059,5.8441,6.0002,6.0978,6.1525,6.1252,6.0627,6.0471,5.8675,5.6454,5.5968,5.4021,5.1445,4.9057,4.721,4.5366,4.2591,4.0703,3.9633,4.0131,3.9695,3.9712,0.0,0.0,0.0,4.4673,4.5687,4.648,4.6663,4.6928,4.7425,4.8271,5.0208,5.1328,5.0623,5.3644,5.6478,5.7899,5.8027,5.8179,5.8682,5.9445,6.0165,6.0808,6.1165,6.1272,6.1093,6.0974,6.0696,6.045,6.0262,5.9744,5.8909,5.8212,5.7668,5.7297,5.7899,5.8215,5.8478,5.9722,6.0292,6.0206,6.0033,5.9946,5.9914,5.8844,5.7807,5.6991,5.7086,5.6383,5.543,5.4582,5.4304,5.4304,3.4404,3.5132,3.6085,3.7061,3.7812,3.8638,3.9626,4.0632,4.2107,4.4416,4.5566,4.6428,4.7116,4.7248,4.6882,4.5986,4.5816,4.4825,4.2603,4.0974,4.0075,4.0043,3.6284,3.4109,3.3915,3.1506,2.9175,2.6883,2.6883,2.7272,2.8003,2.9059,3.1417,3.4867,3.7124,3.9267,4.1501,4.5211,4.7879,4.9965,5.3298,5.5762,5.7738,5.9534,6.1252,6.2618,6.1954,6.1642,6.1447,6.0666,6.0666,6.0588,5.8328,5.7863,5.7249,5.2382,5.0295,4.8798,4.5473,4.3864,4.2915,4.2202,4.1855,4.1496,4.0868,0.0,4.0635,4.0526,0.0,4.0734,4.2002,0.0,0.0,4.3868,4.5443,4.6462,4.6239,4.8338,5.1274,5.4989,5.6964,5.7747,5.7136,5.8801,5.9951,6.0023,6.1343,6.1843,6.1129,6.0352,5.9838,5.9774,5.9011,5.839,5.7997,5.7338,5.6811,5.6492,5.7413,5.7883,5.7781,5.9414,5.9979,5.9716,5.885,5.8487,5.8395,5.7276,5.6317,5.5361,5.5827,5.533,5.4479,5.4304,5.4304,5.4171,3.4404,3.4772,3.5664,3.7474,3.7699,3.8235,4.0184,4.1737,4.3471,4.5579,4.6609,4.7515,4.8506,4.8161,4.791,4.8064,4.7624,4.6513,4.4581,4.3805,4.2419,4.0247,3.8412,3.6789,3.5274,3.3254,3.1428,2.9874,2.9331,2.902,2.8903,3.0768,3.3495,3.6938,3.9457,4.2135,4.4947,4.7742,5.0543,5.3225,5.5221,5.7913,6.0717,6.0444,6.1119,6.2184,6.1777,6.1654,6.1576,6.1225,6.07,6.0093,5.9546,5.9283,5.8668,5.5976,5.4562,5.321,5.0278,4.8099,4.6342,4.4977,4.3753,4.2373,4.0243,3.9615,3.8918,3.7084,0.0,0.0,0.0,0.0,0.0,0.0,4.1356,4.2305,4.3137,4.5192,4.789,5.1463,5.2965,5.4107,5.5043,5.7616,5.885,5.806,5.984,6.0431,5.908,5.9036,5.8943,5.8599,5.8249,5.7673,5.6963,5.6658,5.6579,5.6595,5.7395,5.7975,5.843,5.9437,5.9508,5.876,5.8395,5.7808,5.6991,5.5895,5.513,5.4522,5.4142,5.3964,5.3815,5.3815,5.3337,5.2779,3.4442,3.445,3.5154,3.7263,3.7324,3.807,4.091,4.2913,4.4676,4.6349,4.7528,4.8552,4.9541,4.9503,4.9557,5.0,4.9442,4.8356,4.6779,4.6551,4.5175,4.2292,4.1175,3.9743,3.7841,3.5521,3.3682,3.2361,3.17,3.0962,3.0146,3.2283,3.5002,3.8149,4.0713,4.3772,4.7193,4.9668,5.2426,5.534,5.6965,5.9567,6.2383,6.1378,6.1244,6.1654,6.1588,6.158,6.158,6.1588,6.0957,6.0202,6.0588,6.0327,5.9676,5.8817,5.7771,5.6405,5.4017,5.1636,4.945,4.7754,4.5903,4.3808,4.1257,4.0284,3.9051,3.613,3.6833,0.0,0.0,0.0,3.7338,3.7703,0.0,3.89,3.9517,4.1315,4.3817,4.7187,4.8386,4.9888,5.2303,5.5166,5.6573,5.5869,5.7946,5.8681,5.7534,5.7704,5.7725,5.7527,5.7264,5.6811,5.61,5.61,5.6301,5.6726,5.7139,5.7935,5.8852,5.8888,5.8637,5.8087,5.7402,5.6607,5.5599,5.4522,5.3935,5.3727,5.2972,5.2759,5.273,5.273,5.2164,5.1347,3.4531,3.445,3.4795,3.5731,3.6587,3.8188,4.1454,4.3407,4.5087,4.6778,4.8431,4.9746,5.0566,5.1973,5.254,5.1888,5.1748,5.1124,4.9765,4.9158,4.8843,4.8694,4.5201,4.3156,4.2879,3.8993,3.5741,3.3254,3.3215,3.2788,3.1933,3.2866,3.4653,3.7256,3.9781,4.2878,4.6433,5.0689,5.351,5.5403,5.8802,6.0721,6.1612,6.2416,6.2201,6.149,6.149,6.149,6.15,6.1564,6.2087,6.2555,6.1781,6.1539,6.1344,6.0465,5.9022,5.7283,5.5563,5.3815,5.2062,5.039,4.8431,4.6418,4.4641,4.3289,4.1563,3.8771,3.8201,3.8091,3.7775,3.7492,0.0,0.0,0.0,0.0,0.0,3.5684,3.8075,4.2159,4.365,4.5541,4.8498,5.091,5.2713,5.3798,5.5869,5.7209,5.75,5.6487,5.6196,5.693,5.5988,5.5491,5.5409,5.5409,5.5766,5.651,5.6681,5.7419,5.8561,5.7524,5.7339,5.7621,5.527,5.4288,5.4215,5.3155,5.2787,5.2787,5.268,5.1976,5.0906,5.0906,5.0906,5.0462,3.6,3.5975,3.616,3.6531,3.7291,3.8752,4.1472,4.3755,4.5776,4.743,4.9108,5.0858,5.3,5.3188,5.3456,5.435,5.3903,5.2918,5.1404,5.1196,5.0469,4.8984,4.6686,4.4983,4.3929,4.0926,3.8468,3.6673,3.609,3.5352,3.4536,3.4808,3.6012,3.811,4.1218,4.453,4.8049,5.2388,5.5872,5.8675,6.1011,6.2091,6.2262,6.2016,6.1763,6.149,6.1489,6.1518,6.1518,6.1528,6.1723,6.1889,6.1598,6.1928,6.2207,6.1351,6.105,6.076,5.9629,5.8437,5.7031,5.4825,5.2769,5.0548,4.7695,4.5667,4.3725,4.1532,3.9557,3.8165,3.8003,3.675,0.0,0.0,0.0,0.0,0.0,3.3517,3.353,3.5136,0.0,0.0,0.0,4.8837,5.0745,5.0135,5.3229,5.4668,5.3728,5.4533,5.5148,5.5254,5.5312,5.5246,5.4998,5.5246,5.5693,5.628,5.6678,5.7381,5.8319,5.7371,5.6673,5.6091,5.4798,5.3698,5.2808,5.2544,5.2221,5.2113,5.2113,5.1293,5.0238,5.0685,4.9761,4.8158,3.6842,3.7005,3.7168,3.6945,3.8116,3.9762,4.1913,4.4341,4.6545,4.8226,5.0094,5.2068,5.4142,5.4334,5.4784,5.5943,5.5235,5.4593,5.4204,5.3459,5.2664,5.1782,4.9487,4.7639,4.6282,4.3371,4.1106,3.9564,3.822,3.7074,3.6229,3.5918,3.6742,3.8499,4.1024,4.4559,4.8832,5.2591,5.6297,5.9853,6.1564,6.2251,6.2173,6.1926,6.2079,6.2402,6.2342,6.2354,6.2368,6.2329,6.2134,6.1849,6.1873,6.2043,6.221,6.1938,6.2224,6.251,6.1977,6.1175,6.0059,5.8172,5.6231,5.4164,5.1618,4.9467,4.7468,4.5611,4.2987,4.1062,4.1047,3.8702,0.0,0.0,0.0,0.0,0.0,3.2119,3.1081,0.0,0.0,0.0,0.0,0.0,4.8107,4.8226,5.0953,5.2399,5.1729,5.303,5.4013,5.4373,5.4665,5.4824,5.4998,5.4915,5.5453,5.6423,5.6335,5.6974,5.8119,5.6735,5.5728,5.523,5.3906,5.2914,5.2004,5.2004,5.1787,5.1458,5.11,5.0154,4.9019,4.9562,4.8274,4.596,3.7192,3.7553,3.7888,3.718,3.9059,4.1241,4.2818,4.517,4.7372,4.9015,5.1404,5.3271,5.4129,5.5547,5.6517,5.663,5.5845,5.5995,5.7716,5.586,5.5319,5.6774,5.3414,5.1015,4.9879,4.6337,4.3635,4.184,3.9584,3.8006,3.7055,3.6241,3.6763,3.8421,3.9353,4.3044,4.8766,5.1434,5.503,5.9075,6.0716,6.1399,6.15,6.2322,6.3247,6.4085,6.3922,6.3883,6.3883,6.3876,6.3301,6.2577,6.2633,6.2098,6.1552,6.2289,6.2521,6.2543,6.2548,6.1988,6.1212,6.0398,5.8788,5.7137,5.623,5.4508,5.2601,5.0801,4.8318,4.6462,4.6452,4.3057,4.0007,0.0,0.0,0.0,0.0,0.0,0.0,0.0,0.0,0.0,0.0,0.0,0.0,4.7847,4.9046,0.0,0.0,5.1869,5.2786,5.4211,5.3905,5.4177,5.5263,5.4497,5.4971,5.6686,5.5767,5.6307,5.8026,5.5361,5.4479,5.4827,5.2701,5.1787,5.1787,5.1787,5.1458,5.0767,4.9788,4.8532,4.7205,4.7743,4.6345,4.4347,3.8535,3.9184,3.9891,4.03,4.1407,4.2597,4.3602,4.6355,4.8699,4.974,5.2047,5.413,5.5581,5.662,5.7215,5.7292,5.7029,5.6846,5.6816,5.6257,5.5883,5.5696,5.4292,5.2567,5.0667,4.87,4.6398,4.3635,4.1944,4.0051,3.7967,3.7085,3.7298,3.8403,3.9888,4.3588,4.8794,5.2041,5.6214,6.0755,6.1795,6.2593,6.3253,6.4054,6.4906,6.5544,6.4209,6.38,6.3817,6.3761,6.3571,6.3416,6.3395,6.3225,6.2917,6.2491,6.2741,6.3025,6.2386,6.239,6.2421,6.195,6.0779,5.9571,5.9,5.7391,5.5561,5.3944,5.193,4.977,4.751,4.4751,4.2006,3.94,0.0,0.0,0.0,0.0,0.0,2.9401,0.0,0.0,0.0,0.0,0.0,0.0,0.0,0.0,4.8816,5.0529,5.1468,5.1591,5.2973,5.3706,5.3649,5.3904,5.4449,5.5254,5.4761,5.5061,5.6085,5.4245,5.3442,5.3413,5.2301,5.1568,5.1128,5.1128,5.0795,5.0235,4.9983,4.8558,4.6679,4.5622,4.4816,4.4347,3.9902,4.0778,4.1683,4.25,4.4013,4.5352,4.6034,4.8036,5.0265,5.2531,5.4017,5.554,5.7175,5.7769,5.8029,5.8029,5.8029,5.8033,5.8042,5.7335,5.7076,5.7453,5.5659,5.4118,5.2855,5.0771,4.8386,4.5726,4.3464,4.1351,3.937,3.8102,3.8006,3.8957,4.0684,4.4111,4.8926,5.3819,5.7998,6.133,6.2116,6.274,0.0,6.4483,6.5216,6.5505,6.4844,6.4714,6.4793,6.4734,6.4482,6.4173,6.4173,6.39,6.345,6.2844,6.2991,6.3276,6.2554,6.2669,6.2835,6.2068,6.1343,6.0653,5.9823,5.8783,5.7668,5.6368,5.4523,5.2301,4.9453,4.6677,4.355,3.9651,3.5797,0.0,0.0,0.0,0.0,0.0,3.2383,0.0,0.0,0.0,0.0,0.0,0.0,0.0,4.7548,4.8657,4.9757,5.0738,5.196,5.2796,5.306,5.3034,5.3526,5.4481,5.3471,5.3674,5.4917,5.3097,5.2459,5.2914,5.1868,5.1238,5.0906,5.0906,5.0348,4.9556,4.8495,4.6917,4.4866,4.4299,4.4075,4.4075,4.1379,4.229,4.3392,4.4321,4.6505,4.8416,4.9417,5.0231,5.1974,5.5503,5.6246,5.6989,5.8401,5.8661,5.8698,5.8698,5.8698,5.9037,5.9868,5.8524,5.8378,5.9878,5.7153,5.5473,5.5287,5.2606,5.009,4.7819,4.484,4.2607,4.1067,3.9441,3.9116,4.0001,4.1856,4.5243,5.0015,5.6403,5.9956,6.1419,6.2336,6.2684,6.2797,6.4354,6.4902,6.4908,6.5551,6.5919,6.6058,6.599,6.5504,6.4864,6.4864,6.434,6.3638,6.331,6.3271,6.3258,6.2739,6.2748,6.2701,6.1697,6.1451,6.1202,6.0061,5.9754,5.9316,5.8012,5.6482,5.442,5.1528,4.8,4.4189,3.9971,3.6159,3.3786,0.0,0.0,0.0,0.0,0.0,0.0,0.0,0.0,0.0,0.0,0.0,0.0,0.0,4.6665,4.7814,5.007,5.0663,5.1506,5.2649,5.1819,5.2299,5.3949,5.217,5.2165,5.386,5.1892,5.1702,5.2701,5.132,5.0795,5.0795,5.0683,4.9897,4.8521,4.6194,4.4302,4.2949,4.3357,4.363,4.3701,4.2848,4.3989,4.5324,4.681,4.7611,4.9172,5.2627,5.3335,5.3691,5.4201,5.6023,5.7398,5.7695,5.8326,5.8698,5.8698,5.8698,5.8772,5.8962,5.8702,5.8368,5.7996,5.7481,5.6591,5.5249,5.4296,5.2424,4.948,4.7761,4.5475,4.2763,4.171,4.1364,4.1673,4.415,4.8811,5.5033,5.9026,6.1234,6.224,6.3741,6.4332,6.4401,6.5254,6.559,6.5551,6.5624,6.5743,6.5832,6.5795,6.5536,6.5273,6.5273,6.5082,6.4672,6.3886,6.3492,6.3137,6.2391,6.2372,6.2555,6.271,6.2975,6.3047,6.2546,6.237,6.1382,5.8142,5.7833,5.6675,5.1646,4.6298,4.2253,4.0994,3.7699,3.5343,3.5512,0.0,0.0,0.0,0.0,3.5647,0.0,0.0,0.0,0.0,0.0,0.0,0.0,4.493,4.5841,4.5555,4.8118,4.9677,5.0174,5.0418,5.1416,5.2889,5.1164,5.0918,5.1674,5.0628,5.0544,5.121,5.046,5.0123,5.0123,4.9556,4.8495,4.6866,4.4035,4.3164,4.3505,4.2708,4.2576,4.3075,4.4421,4.6175,4.7758,4.8517,5.0453,5.2371,5.3809,5.5209,5.6139,5.6404,5.7334,5.8354,5.9329,5.9367,5.9515,5.9961,5.9998,5.9955,5.9913,5.9504,5.9054,5.8603,5.7835,5.71,5.632,5.5659,5.4078,5.1525,5.0073,4.806,4.555,4.4399,4.3897,4.4066,4.755,5.1934,5.6884,5.9766,6.1173,6.1649,6.3815,6.4589,6.4667,6.5789,6.6165,6.6115,6.5956,6.5626,6.5238,6.5397,6.5359,6.5268,6.5105,6.4904,6.4696,6.4102,6.3804,6.3426,6.2401,6.2188,6.2116,6.13,6.1522,6.1532,6.0126,6.0413,6.0033,5.6905,5.669,5.5438,5.0351,4.5903,4.2524,4.112,3.9146,3.7385,3.6327,0.0,0.0,0.0,0.0,0.0,0.0,0.0,0.0,0.0,0.0,0.0,0.0,4.3075,4.3594,4.4959,4.684,4.797,4.8165,4.8625,4.9624,5.096,4.9426,4.9337,5.0517,4.9529,4.9556,5.0348,4.9783,4.9556,4.9442,4.8262,4.7061,4.5789,4.353,4.2867,4.2879,4.2366,4.2218,4.2427,4.6763,4.8692,5.0314,5.0541,5.3046,5.4828,5.4437,5.6063,5.7639,5.8726,5.8768,5.9344,6.0951,6.0506,6.0358,6.1063,6.11,6.1056,6.0966,6.0374,5.996,5.987,5.8369,5.7524,5.7524,5.6376,5.5022,5.344,5.1914,5.0003,4.769,4.7108,4.7048,4.7566,5.1411,5.4882,5.7983,6.0503,6.1512,6.1645,6.3948,6.4862,6.4929,6.623,6.6706,6.6569,6.6246,6.5574,6.4859,6.4882,6.4947,6.4947,6.4628,6.4482,6.4293,6.4053,6.3892,6.3537,6.2493,6.2123,6.175,6.0243,6.0186,6.0046,5.8174,5.8571,5.8686,5.5962,5.4868,5.3179,4.9256,4.621,4.3762,4.203,4.0468,3.8908,3.7449,0.0,0.0,0.0,0.0,0.0,3.0998,0.0,0.0,0.0,0.0,0.0,4.247,4.101,4.1371,4.4095,4.5393,4.6203,4.6498,4.7075,4.8021,4.9214,4.7864,4.8065,4.9556,4.8637,4.8753,4.9783,4.9186,4.8868,4.8753,4.6933,4.5835,4.4914,4.3166,4.228,4.1971,4.1807,4.1769,4.1769,5.0673,5.1858,5.2978,5.3584,5.3442,5.3802,5.5142,5.5507,5.6319,5.8369,5.9145,5.9833,6.072,6.0757,6.072,6.0831,6.0831,6.0831,6.0831,6.0757,6.072,6.072,5.9095,5.8208,5.8208,5.5992,5.4865,5.4876,5.3271,5.0691,4.749,4.9657,5.1547,5.311,5.5506,5.7781,6.0036,6.271,6.3848,6.3923,6.5487,6.6112,6.6125,6.6931,6.7164,6.69,6.6031,6.5614,6.5308,6.4353,6.4131,6.4251,6.4131,6.3963,6.3867,6.3691,6.3382,6.2977,6.2572,6.2109,6.1733,6.1752,6.1551,6.1292,6.0912,6.0772,5.992,5.6599,5.3531,5.1057,4.9749,4.7373,4.5534,4.5577,4.1629,3.8862,3.9804,3.8013,3.5991,3.4454,0.0,0.0,0.0,3.3926,0.0,0.0,0.0,0.0,0.0,3.863,3.964,3.9931,4.2583,4.4482,4.5128,4.6113,4.721,4.8571,4.7754,4.7728,4.8405,4.8289,4.8521,4.9186,4.8521,4.8289,4.8146,4.5698,4.4664,4.4326,4.1516,4.0624,4.0961,4.0915,4.0892,4.0892,5.2607,5.3474,5.4259,5.5027,5.5625,5.6174,5.6836,5.7227,5.8083,5.9777,5.9823,6.0151,6.1375,6.1532,6.1717,6.2234,6.2271,6.2224,6.214,6.165,6.1392,6.1261,6.0287,5.9439,5.8833,5.8436,5.7574,5.6191,5.5726,5.4279,5.2043,5.268,5.383,5.5454,5.6853,5.8553,6.0605,6.2682,6.366,6.3959,6.5947,6.7013,6.7467,6.8587,6.8908,6.8591,6.7105,6.6187,6.5501,6.4063,6.3705,6.3878,6.3617,6.3428,6.3289,6.3147,6.2904,6.2552,6.2112,6.1823,6.1487,6.1163,6.1081,6.0747,5.9539,5.9042,5.815,5.5698,5.3331,5.1069,4.9285,4.8511,4.7158,4.4136,4.2193,4.0374,3.8327,3.7092,0.0,3.4912,0.0,0.0,0.0,0.0,0.0,0.0,0.0,0.0,0.0,3.7929,3.8255,3.9244,4.1167,4.261,4.3264,4.4494,4.5658,4.6807,4.6848,4.6934,4.7179,4.7858,4.7873,4.7186,4.6953,4.628,4.5506,4.4157,4.3409,4.2952,4.0921,4.0364,4.0778,4.0722,4.0099,3.9489,5.4487,5.5234,5.5809,5.6374,5.7248,5.7834,5.7872,5.8272,5.9061,6.0448,6.0296,6.0622,6.2082,6.224,6.2461,6.3014,6.3051,6.3051,6.2953,6.2438,6.2059,6.1961,6.1238,6.054,5.9858,5.9758,5.8988,5.7446,5.7457,5.645,5.45,5.4128,5.5209,5.7416,5.8466,5.9778,6.1281,6.3088,6.3917,6.4294,6.6591,6.7785,6.8334,6.9705,7.0198,6.9916,6.8383,6.7235,6.6199,6.4794,6.4177,6.4012,6.3638,6.3419,6.3321,6.3172,6.2918,6.2583,6.1728,6.1487,6.1372,6.0747,6.0722,6.0441,5.8976,5.8075,5.7055,5.4985,5.3318,5.1567,4.9522,4.9159,4.7767,4.3509,4.2373,4.0898,3.7594,3.6613,3.6135,3.5854,3.646,3.6441,3.5341,3.6852,0.0,0.0,0.0,0.0,0.0,3.6958,3.7304,3.8469,4.0226,4.1516,4.2293,4.3643,4.4707,4.5637,4.6212,4.6473,4.6499,4.708,4.663,4.5313,4.5313,4.4736,4.3684,4.3096,4.2471,4.1971,4.0662,4.0301,4.0485,4.0495,3.9711,3.8608,5.6859,5.7621,5.8074,5.7874,5.7874,5.7909,5.7909,5.7909,5.8418,5.9867,6.0555,6.1343,6.2668,6.2805,6.2805,6.2805,6.2805,6.2805,6.2805,6.2805,6.2805,6.2805,6.1885,6.1396,6.1396,5.8908,5.802,5.8786,5.7984,5.6081,5.3162,5.3495,5.5726,5.9442,6.1128,6.1991,6.242,6.4616,6.5411,6.5389,6.7672,6.849,6.8531,7.0101,7.068,7.0605,6.9636,6.8668,6.7715,6.6712,6.5747,6.4888,6.4375,6.4217,6.4168,6.3863,6.3706,6.3221,6.1472,6.1257,6.1372,6.0903,6.0782,6.0722,6.0282,5.9178,5.7533,5.4934,5.3465,5.2303,5.0789,4.8956,4.699,4.4982,4.2009,3.9663,3.8806,3.733,3.6734,3.7741,3.7987,3.8221,3.8568,3.9061,0.0,0.0,0.0,0.0,3.2988,3.545,3.6964,3.6854,3.9449,4.1463,4.2553,4.3717,4.4707,4.5637,4.6212,4.6473,4.6473,4.554,4.4593,4.3777,4.3777,4.3777,4.361,4.2711,4.1947,4.1472,4.0403,4.0006,3.9895,4.036,3.9602,3.838,5.8218,5.8148,5.8148,5.8564,5.8254,5.8081,5.8599,5.8668,5.9007,5.9873,6.0192,6.0772,6.1897,6.2464,6.2755,6.2654,6.2654,6.2603,6.25,6.25,6.25,6.25,6.223,6.1777,6.1142,6.096,6.0449,5.9474,5.9866,5.9124,5.7311,5.7289,5.7876,5.8986,6.0432,6.1617,6.2512,6.4132,6.5858,6.7551,6.8,6.9133,7.0565,7.0864,7.1211,7.139,7.0014,6.9299,6.873,6.6829,6.5934,6.5624,6.5477,6.5038,6.44,6.3475,6.3072,6.2759,6.153,6.1081,6.1022,6.1081,6.0757,6.0199,5.9809,5.8072,5.608,5.4717,5.364,5.2905,5.2507,4.9825,4.711,4.5219,4.2303,3.9585,3.7442,3.701,3.7044,3.7345,3.743,3.7493,3.7598,3.7791,3.7148,0.0,0.0,3.5937,3.287,3.5133,3.6463,3.6176,3.907,4.1126,4.2035,4.3347,4.4307,4.5009,4.5611,4.5745,4.5488,4.4382,4.3323,4.2182,4.2158,4.159,4.0716,4.0735,4.0453,4.0011,3.9656,3.9564,3.9449,3.909,3.8185,3.7011,5.8737,5.8428,5.8256,5.8737,5.8497,5.8359,5.8737,5.8909,5.9012,5.9383,5.9857,6.0452,6.1163,6.2382,6.2964,6.2537,6.25,6.25,6.2433,6.2433,6.2433,6.2433,6.2344,6.202,6.1262,6.1497,6.1027,5.9835,6.0413,6.0449,5.9993,5.9767,5.9737,5.9905,6.0855,6.1969,6.3235,6.4494,6.6284,6.8358,6.8683,6.9742,7.1113,7.1208,7.149,7.166,7.0678,7.0192,6.9836,6.8283,6.7534,6.7279,6.7222,6.6458,6.5274,6.3812,6.3041,6.2435,6.1413,6.1022,6.1022,6.1081,6.06,5.9809,5.853,5.7005,5.5474,5.4295,5.3584,5.3144,5.3227,4.9713,4.639,4.5095,4.1795,3.8727,3.6884,3.7096,3.7581,3.834,3.8141,3.8139,3.8584,3.8084,3.7194,3.5865,3.6691,3.6107,3.3405,3.5639,3.6943,3.6784,3.9191,4.1034,4.2108,4.3028,4.3785,4.4193,4.4666,4.4686,4.4242,4.3338,4.2095,4.0693,4.0693,4.0152,3.9331,3.9652,3.9584,3.9308,3.8789,3.867,3.867,3.767,3.6703,3.5746,5.849,5.849,5.849,5.849,5.8699,5.8804,5.8558,5.8768,5.8872,5.8661,5.9771,6.0563,6.063,6.2435,6.3329,6.2583,6.2526,6.2526,6.2526,6.2526,6.2526,6.2526,6.2367,6.2169,6.1836,6.0968,6.0418,6.0107,6.0107,6.0463,6.1212,6.096,6.1229,6.1903,6.2128,6.2974,6.4359,6.5514,6.6809,6.8178,6.9541,7.0302,7.0593,7.1132,7.1395,7.1431,7.1431,7.1148,7.0774,7.0617,7.0048,6.937,6.9201,6.8017,6.6365,6.4635,6.3437,6.2435,6.1176,6.1117,6.1234,6.0903,6.0441,5.9443,5.693,5.6113,5.5442,5.3782,5.3321,5.3233,5.3139,4.887,4.5219,4.4932,4.0707,3.7449,3.7153,3.7382,3.8315,4.0109,3.9576,3.9546,4.087,3.9472,3.796,3.6628,3.6673,3.6098,3.4492,3.7063,3.8358,3.8132,3.9734,4.1171,4.2544,4.2894,4.311,4.3248,4.362,4.3431,4.261,4.2119,4.1009,3.9308,3.9308,3.9308,3.9308,3.9308,3.9308,3.9049,3.7812,3.755,3.755,3.6194,3.5335,3.4881,5.849,5.849,5.849,5.849,5.8968,5.9344,5.9344,5.9822,6.0271,6.0198,6.048,6.1014,6.1972,6.2541,6.3137,6.3852,6.4039,6.4039,6.3928,6.3928,6.3816,6.3531,6.3531,6.3356,6.2963,6.2784,6.2592,6.2311,6.2061,6.1941,6.1988,6.173,6.1701,6.1943,6.2393,6.3413,6.4901,6.6105,6.7761,6.9614,6.9701,7.0241,7.0943,7.0418,7.0606,7.1045,7.0817,7.0806,7.0879,7.0238,6.9813,6.9553,6.8609,6.6969,6.5358,6.4685,6.3669,6.2471,6.1449,6.1315,6.1372,6.1234,6.0129,5.8737,5.7264,5.6224,5.5345,5.4549,5.421,5.421,5.4768,5.0145,4.6407,4.6865,4.1651,3.7566,3.7731,3.7618,3.7998,3.9025,3.903,3.8885,3.9045,3.8163,3.7429,3.7205,3.73,3.745,3.7724,3.8897,3.9202,3.8157,4.0211,4.1588,4.1986,4.2716,4.269,4.2149,4.2664,4.2013,4.0626,4.0889,4.0339,3.9308,3.9308,3.9308,3.9308,3.9567,3.893,3.779,3.8052,3.733,3.6237,3.5397,3.5025,3.4777,5.8277,5.8277,5.8307,5.8647,5.9128,5.9502,5.9655,6.0102,6.034,6.019,6.0419,6.0891,6.1559,6.2509,6.3337,6.406,6.4196,6.4282,6.4166,6.405,6.3837,6.3693,6.3693,6.3474,6.3038,6.3002,6.291,6.2521,6.2389,6.2188,6.2121,6.1883,6.1883,6.2125,6.2405,6.3231,6.4599,6.56,6.733,6.9368,6.9464,7.0082,7.0907,7.0512,7.0422,7.0511,7.0478,7.0615,7.0678,7.0248,6.9854,6.9418,6.839,6.6567,6.4706,6.3938,6.2877,6.183,6.1342,6.1234,6.114,6.0626,5.9613,5.8422,5.7256,5.6257,5.5458,5.5149,5.4768,5.48,5.5668,5.1851,4.8319,4.7565,4.2825,3.895,3.806,3.7581,3.7679,3.8736,3.8291,3.8267,3.9055,3.7878,3.7465,3.8131,3.8095,3.8271,3.8776,3.9744,4.0087,3.9316,4.0769,4.1569,4.1706,4.172,4.1336,4.0821,4.1096,4.0758,3.9902,4.0188,3.9988,3.9308,3.9308,3.9308,3.9308,3.8953,3.8335,3.7451,3.6824,3.5971,3.5129,3.4153,3.3796,3.3796,5.7881,5.7881,5.8118,5.8822,5.9174,5.9512,5.9876,6.0155,6.0256,5.9868,6.037,6.0851,6.0897,6.2529,6.3647,6.3791,6.3872,6.4015,6.4136,6.3893,6.3708,6.3582,6.3582,6.3393,6.2838,6.2838,6.2606,6.2197,6.2197,6.2197,6.2127,6.1952,6.2085,6.2527,6.2341,6.2944,6.4077,6.5017,6.6601,6.8498,6.9358,7.0112,7.0745,7.0847,7.0443,7.0062,7.0272,7.0376,7.041,7.0267,6.9768,6.9019,6.8052,6.6268,6.4251,6.3045,6.1858,6.1022,6.0998,6.1058,6.0782,5.9809,5.9114,5.8351,5.703,5.6257,5.5861,5.5716,5.5312,5.5345,5.6146,5.3459,5.0256,4.7882,4.4013,4.0591,3.8445,3.7496,3.7441,3.8421,3.7737,3.7715,3.9447,3.7958,3.753,3.8847,3.8854,3.8789,3.8789,4.0186,4.0765,4.058,4.094,4.109,4.1225,4.0236,3.9611,3.9398,3.9496,3.9467,3.9439,3.9604,3.9475,3.9193,3.9026,3.9049,3.893,3.7954,3.7473,3.6989,3.5253,3.4383,3.4007,3.2912,3.2676,3.2785,5.7881,5.7881,5.8045,5.8673,5.9313,5.991,6.0415,6.1052,6.1455,6.1374,6.1475,6.1749,6.2429,6.2726,6.3319,6.4358,6.4148,6.4386,6.5184,6.5184,6.4989,6.4524,6.4524,6.4355,6.3973,6.3973,6.3832,6.3581,6.3581,6.3474,6.3328,6.3107,6.3102,6.3131,6.298,6.3245,6.4147,6.6213,6.7634,6.8514,7.0202,7.0923,7.0913,7.0305,7.0202,7.0341,6.9812,6.9705,6.9885,6.9176,6.8857,6.8465,6.6702,6.5155,6.3795,6.2842,6.1795,6.0962,6.0843,6.0938,6.0878,5.9972,5.9249,5.8422,5.7147,5.6768,5.6536,5.6067,5.6381,5.6734,5.6614,5.3927,5.099,4.8692,4.4279,4.0647,3.9111,3.784,3.712,3.7311,3.7203,3.7176,3.7496,3.7211,3.733,3.7973,3.8868,3.9376,3.9376,4.0739,4.0812,3.9447,3.9902,3.981,3.8875,3.8168,3.7857,3.7857,3.8335,3.8099,3.7511,3.8412,3.8735,3.8711,3.7874,3.755,3.755,3.6803,3.5704,3.4507,3.5005,3.4403,3.3165,3.3165,3.3292,3.3165,5.7588,5.7588,5.7883,5.895,5.9453,5.998,6.0879,6.1313,6.1383,6.1053,6.0969,6.102,6.1086,6.138,6.1862,6.2377,6.2987,6.3466,6.3863,6.4428,6.4706,6.4428,6.4428,6.4322,6.4037,6.382,6.3747,6.3747,6.3526,6.3452,6.3452,6.3227,6.3076,6.2923,6.2847,6.3205,6.3851,6.5543,6.6884,6.7975,6.9547,7.0253,7.0374,7.0272,7.0062,6.9813,6.9211,6.8998,6.875,6.7447,6.6778,6.611,6.4242,6.2982,6.2073,6.1396,6.1223,6.114,6.1117,6.0878,6.0512,5.9748,5.9046,5.8351,5.748,5.7072,5.692,5.703,5.7072,5.7089,5.6902,5.5436,5.3134,4.9692,4.5936,4.2687,4.0545,3.7866,3.634,3.675,3.5881,3.5735,3.7063,3.6703,3.7041,3.855,3.9314,3.9545,3.9518,4.0595,4.0588,3.9409,3.8629,3.7808,3.7211,3.6921,3.6665,3.634,3.6921,3.709,3.7058,3.754,3.7702,3.7501,3.7325,3.697,3.646,3.5848,3.5129,3.4403,3.4403,3.3902,3.3038,3.2492,3.2237,3.1982,5.7289,5.7348,5.7807,5.9031,5.9318,5.9724,6.0854,6.1053,6.0802,6.0292,6.0206,6.012,5.9772,6.0141,6.0534,6.0837,6.1862,6.26,6.2787,6.3531,6.4037,6.4037,6.4037,6.3965,6.3747,6.3452,6.3377,6.3452,6.3152,6.3076,6.3227,6.3,6.2847,6.2727,6.2819,6.3035,6.3497,6.4979,6.6334,6.7561,6.8893,6.9669,7.0062,7.0202,6.9814,6.9135,6.8717,6.8151,6.7373,6.5863,6.4813,6.3869,6.237,6.1534,6.1006,6.0691,6.0925,6.1257,6.114,6.0722,6.0135,5.9418,5.8875,5.8351,5.7881,5.748,5.7406,5.7954,5.764,5.719,5.7114,5.6314,5.4454,5.0579,4.726,4.4149,4.1357,3.7689,3.5466,3.5617,3.4447,3.4388,3.6493,3.6258,3.6794,3.8862,3.9451,3.957,3.9494,4.0258,4.0144,3.9086,3.7419,3.6162,3.5601,3.5778,3.5685,3.5378,3.6036,3.6484,3.6851,3.6989,3.6748,3.6282,3.6404,3.611,3.5231,3.4612,3.4423,3.4423,3.367,3.3165,3.2765,3.1707,3.1047,3.0401,5.7289,5.752,5.786,5.8459,5.874,5.9121,5.9729,5.9859,5.9859,5.9772,5.9772,5.9772,5.9652,5.9739,6.0226,6.1413,6.1609,6.2167,6.3417,6.3452,6.3452,6.3673,6.3673,6.3526,6.3302,6.3302,6.3227,6.3076,6.3,6.3,6.3,6.2847,6.2693,6.2727,6.2978,6.3074,6.329,6.5963,6.7156,6.7371,6.9138,7.0096,7.0341,6.974,6.9175,6.8717,6.8361,6.7197,6.5652,6.4813,6.3939,6.2997,6.2127,6.2086,6.224,6.2,6.1652,6.1198,6.0686,6.0415,6.01,5.9217,5.8875,5.8597,5.8243,5.8243,5.8419,5.8419,5.7873,5.7291,5.7117,5.5508,5.3402,5.1179,4.7186,4.3401,4.0575,3.7416,3.4803,3.3056,3.3325,3.3955,3.4677,3.5583,3.6677,3.8268,3.8732,3.915,3.9333,3.9786,3.9124,3.7234,3.6566,3.5445,3.3791,3.4401,3.4936,3.5378,3.6036,3.63,3.6346,3.6828,3.6365,3.5321,3.4896,3.4329,3.345,3.2884,3.2804,3.3038,3.3292,3.2638,3.1451,3.1322,3.0401,2.9117,5.6525,5.6962,5.7445,5.7804,5.8385,5.8961,5.9555,5.9684,5.9596,5.9331,5.9241,5.9062,5.8578,5.8578,5.876,5.9024,6.0043,6.097,6.1461,6.2547,6.3152,6.3227,6.3227,6.3227,6.3152,6.2847,6.2847,6.3,6.2581,6.2503,6.277,6.2615,6.2696,6.2978,6.3087,6.3564,6.4355,6.6086,6.7074,6.7601,6.9052,6.9278,6.8821,6.8565,6.8074,6.7409,6.6631,6.6034,6.5407,6.3867,6.3135,6.2612,6.1672,6.1779,6.2112,6.1793,6.1238,6.0538,6.0072,5.9879,5.9718,5.9149,5.8667,5.8385,5.8351,5.8314,5.8385,5.8597,5.7945,5.726,5.6713,5.5173,5.3584,5.2357,4.709,4.2875,4.1978,3.6852,3.2985,3.2395,3.2436,3.2922,3.4185,3.5091,3.6236,3.7702,3.8136,3.8271,3.8507,3.8099,3.7043,3.5157,3.4955,3.4441,3.3636,3.4155,3.4803,3.5378,3.6036,3.6277,3.6277,3.569,3.4906,3.3907,3.3207,3.2574,3.2034,3.2229,3.2024,3.1626,3.1997,3.1194,2.99,2.8969,2.8328,2.7535,5.5927,5.6515,5.7048,5.728,5.7978,5.8695,5.9145,5.9241,5.9152,5.8824,5.8733,5.8427,5.7965,5.7778,5.7933,5.8332,5.9522,6.0468,6.1086,6.2234,6.2923,6.3,6.3,6.2923,6.2847,6.2537,6.2459,6.2581,6.2076,6.211,6.2459,6.2539,6.275,6.3256,6.353,6.4137,6.5109,6.6357,6.725,6.7696,6.8613,6.86,6.7854,6.7609,6.7085,6.6206,6.5575,6.5053,6.4495,6.3132,6.247,6.2085,6.1809,6.2196,6.2697,6.2088,6.1312,6.0516,5.9656,5.9386,5.9319,5.8944,5.8526,5.8243,5.8422,5.8385,5.8317,5.8497,5.7741,5.6782,5.6098,5.4702,5.3542,5.297,4.7086,4.2493,4.2265,3.6203,3.1747,3.1496,3.1652,3.2261,3.332,3.4368,3.5505,3.6511,3.6906,3.7031,3.6967,3.6805,3.5904,3.4022,3.4022,3.3909,3.384,3.4267,3.4803,3.5378,3.6036,3.6145,3.5708,3.4914,3.3855,3.254,3.2096,3.1621,3.1123,3.1294,3.1021,3.0754,3.0519,2.9665,2.8477,2.7531,2.6847,2.5831,5.5409,5.6156,5.6774,5.6774,5.7598,5.8274,5.8274,5.8274,5.8274,5.8274,5.8089,5.7903,5.7903,5.7684,5.8272,6.0043,6.0214,6.1003,6.2923,6.2804,6.2804,6.3,6.3,6.2847,6.2381,6.2381,6.2144,6.1709,6.1709,6.179,6.1997,6.2561,6.3093,6.3599,6.4522,6.5024,6.5143,6.6903,6.7535,6.742,6.7945,6.8036,6.7784,6.705,6.6136,6.5294,6.5294,6.4141,6.268,6.268,6.191,6.1318,6.2823,6.3749,6.4031,6.3029,6.2088,6.1119,5.9492,5.9012,5.8944,5.8561,5.8348,5.8314,5.8667,5.8597,5.8425,5.8215,5.7189,5.6064,5.521,5.4093,5.311,5.2903,4.7258,4.2329,4.0887,3.5579,3.1361,3.002,3.0956,3.1787,3.1787,3.3459,3.4469,3.4469,3.5125,3.539,3.5001,3.6064,3.5795,3.4,3.4022,3.4134,3.4469,3.4469,3.4825,3.5378,3.6036,3.5708,3.4469,3.4803,3.3551,3.1305,3.1721,3.1564,3.0907,2.9737,2.9744,3.0591,2.934,2.8013,2.7051,2.7415,2.6103,2.4008,5.4998,5.5569,5.6198,5.6359,5.7006,5.7706,5.8211,5.8592,5.8688,5.8688,5.8938,5.893,5.8865,5.8767,5.8833,5.9157,6.05,6.2015,6.4017,6.3937,6.389,6.389,6.3035,6.2696,6.2885,6.2219,6.2058,6.2479,6.1814,6.1628,6.179,6.2479,6.3198,6.3784,6.3969,6.43,6.482,6.5651,6.5915,6.5915,6.6934,6.6843,6.6028,6.5819,6.5117,6.4312,6.4166,6.3854,6.3474,6.3255,6.2896,6.2798,6.3798,6.3344,6.2436,6.2657,6.141,5.9798,5.915,5.8806,5.8631,5.8348,5.8314,5.8422,5.8806,5.8428,5.8048,5.8276,5.7006,5.5678,5.5208,5.4126,5.3247,5.2972,4.8787,4.4448,4.1144,3.689,3.2974,2.9848,3.0156,3.0757,3.1284,3.2475,3.3399,3.3945,3.4926,3.4863,3.3353,3.4571,3.4186,3.1984,3.2746,3.3388,3.384,3.4267,3.5046,3.6036,3.5378,3.4825,3.4469,3.2758,3.1727,3.1285,3.0488,2.9855,2.9278,2.9197,2.8462,2.7433,2.7311,2.6176,2.4481,2.5004,2.4158,2.2735,5.4879,5.5484,5.601,5.6383,5.7207,5.7995,5.8311,5.8781,5.9124,5.9124,5.9274,5.9358,5.9191,5.9092,5.916,5.9327,6.1049,6.2706,6.4252,6.4203,6.412,6.412,6.341,6.306,6.3332,6.2732,6.2649,6.3033,6.2099,6.1816,6.1981,6.2366,6.2883,6.3484,6.3566,6.3848,6.43,6.5039,6.5265,6.5309,6.6241,6.6073,6.5294,6.4981,6.4454,6.3747,6.3673,6.3673,6.3747,6.3377,6.3526,6.3858,6.4323,6.3554,6.2472,6.2427,6.1113,5.9632,5.8978,5.8667,5.8419,5.8171,5.8243,5.8424,5.8565,5.8219,5.7769,5.7573,5.6482,5.5335,5.4764,5.4023,5.3349,5.2972,4.9567,4.5425,4.1074,3.73,3.3436,2.9577,2.9521,3.0056,3.058,3.165,3.249,3.3003,3.4071,3.3794,3.1805,3.2771,3.2788,3.1103,3.184,3.2654,3.3614,3.4155,3.4714,3.5268,3.4692,3.4022,3.2985,3.1632,3.0937,3.0723,2.9599,2.9075,2.8853,2.8008,2.6865,2.5535,2.5242,2.418,2.2722,2.3117,2.2677,2.1772,5.4995,5.5658,5.6289,5.6709,5.7778,5.8656,5.84,5.9055,5.9425,5.9425,5.9384,5.9377,5.9377,5.9178,5.9315,6.0135,6.1795,6.3078,6.3866,6.4036,6.4069,6.4069,6.4069,6.3985,6.3815,6.3615,6.3463,6.3272,6.2477,6.2164,6.2416,6.223,6.2399,6.2814,6.3266,6.3515,6.3651,6.4744,6.5181,6.5147,6.5613,6.5548,6.512,6.4459,6.3965,6.36,6.36,6.36,6.36,6.3452,6.3785,6.4393,6.4602,6.4245,6.3436,6.2194,6.1155,6.0082,5.8872,5.849,5.8385,5.7959,5.814,5.8392,5.7979,5.7872,5.7521,5.6453,5.5726,5.5098,5.4182,5.3849,5.3445,5.2496,4.935,4.5237,4.0203,3.6671,3.3067,2.9124,2.9138,2.9518,2.9667,3.1,3.1984,3.2059,3.2721,3.2345,3.0467,3.1225,3.1443,3.0983,3.1421,3.223,3.3438,3.4134,3.4246,3.3593,3.4134,3.3098,3.082,3.1092,3.0665,2.9761,2.8949,2.8745,2.8867,2.6469,2.513,2.4613,2.3328,2.2308,2.1622,2.1874,2.1545,2.0828,5.5637,5.5615,5.5746,5.6465,5.684,5.7215,5.762,5.8581,5.929,5.929,6.002,6.0465,6.0465,6.0363,6.0363,6.0332,6.1747,6.3189,6.4383,6.5017,6.5401,6.5401,6.5401,6.5313,6.505,6.353,6.2931,6.3272,6.198,6.1351,6.1434,6.1914,6.2315,6.2566,6.2514,6.2883,6.3438,6.3494,6.3714,6.4127,6.4743,6.4813,6.4567,6.4321,6.4037,6.382,6.3673,6.36,6.3673,6.3858,6.3858,6.3858,6.4463,6.3622,6.2298,6.1987,6.0704,5.9219,5.8805,5.8631,5.8283,5.7491,5.7844,5.8248,5.801,5.759,5.7078,5.6458,5.5653,5.4953,5.4465,5.411,5.2672,4.8779,4.7084,4.363,3.6135,3.4083,3.2064,2.8545,2.8224,2.8516,2.9186,3.0726,3.2024,3.2924,3.2712,3.2148,3.1327,3.1254,3.0801,3.0077,3.1096,3.184,3.2301,3.3738,3.4246,3.3572,3.3212,3.2301,3.084,3.0481,2.9795,2.8828,2.9223,2.839,2.6628,2.5273,2.4072,2.3195,2.2136,2.1096,2.0503,2.0828,1.9703,1.8131,5.6056,5.6027,5.6186,5.7088,5.7275,5.7617,5.8417,5.8814,5.9209,5.9858,6.0188,6.0424,6.0763,6.0794,6.0794,6.0969,6.2022,6.3164,6.4235,6.5123,6.5603,6.5603,6.5603,6.5514,6.5425,6.3723,6.3245,6.3802,6.2345,6.1616,6.1616,6.1649,6.1733,6.1816,6.1733,6.19,6.2326,6.2683,6.3049,6.3422,6.4323,6.4568,6.4393,6.4251,6.4072,6.382,6.3673,6.3526,6.3526,6.3967,6.4074,6.4074,6.4533,6.3482,6.2121,6.1952,6.0497,5.8944,5.8701,5.8321,5.7805,5.7114,5.7221,5.7318,5.6936,5.685,5.6729,5.6019,5.5331,5.4807,5.4557,5.4239,5.2978,4.9928,4.9068,4.5741,3.7064,3.5711,3.3576,2.8133,2.7555,2.8174,2.9428,3.0785,3.1812,3.2196,3.1891,3.1278,3.066,3.0054,2.9769,2.9796,3.0681,3.1461,3.2469,3.3247,3.3346,3.2644,3.2623,3.1828,3.0206,3.0092,2.9568,2.8747,2.8885,2.7899,2.6116,2.4554,2.3398,2.2483,2.1258,1.9969,1.8821,1.8681,1.784,1.6291,5.6559,5.6684,5.7026,5.7921,5.8102,5.8597,5.9439,5.9224,5.9347,6.0383,6.0137,6.0075,6.0628,6.0586,6.0763,6.1418,6.2189,6.3004,6.38,6.4852,6.5425,6.5425,6.5425,6.5425,6.5425,6.4001,6.357,6.42,6.2709,6.198,6.198,6.1384,6.1119,6.1119,6.1119,6.1202,6.1334,6.2469,6.2973,6.3124,6.4252,6.4568,6.4428,6.4322,6.4109,6.3892,6.3747,6.3526,6.3377,6.3895,6.4252,6.4428,6.4462,6.358,6.2319,6.1846,6.0461,5.8909,5.846,5.7841,5.7259,5.6636,5.6429,5.6125,5.549,5.6082,5.6447,5.5459,5.5053,5.478,5.4655,5.4303,5.345,5.1581,5.0932,4.7765,3.9369,3.7828,3.5157,2.8752,2.7793,2.8155,2.9743,3.0888,3.1403,3.1073,3.0888,3.0474,2.9513,2.8814,2.8779,2.9567,3.0198,3.1085,3.2343,3.2612,3.233,3.1364,3.2119,3.1505,2.958,2.9849,2.9596,2.8794,2.7972,2.6937,2.5743,2.3607,2.2193,2.1333,1.9992,1.8347,1.6666,1.6291,1.5735,1.5017,5.7055,5.736,5.766,5.7845,5.8338,5.88,5.8885,5.9347,5.9614,5.9593,6.0053,6.0285,6.0092,5.9849,6.0031,6.1113,6.1891,6.2778,6.38,6.4852,6.5425,6.5425,6.5425,6.5425,6.5425,6.4001,6.3338,6.3438,6.198,6.1251,6.1251,6.1152,6.1119,6.1119,6.1119,6.1417,6.1917,6.2625,6.3199,6.3716,6.4393,6.4706,6.4637,6.4428,6.4287,6.4109,6.3892,6.36,6.3377,6.3895,6.4252,6.4288,6.383,6.3225,6.2446,6.125,6.0113,5.9045,5.8084,5.7604,5.702,5.5485,5.5409,5.5391,5.4449,5.5399,5.6304,5.5566,5.5174,5.493,5.493,5.4557,5.2634,4.804,4.6708,4.4365,3.8899,3.5746,3.3511,3.2038,2.9894,2.8688,2.9237,3.0681,3.13,3.0535,3.066,3.0453,2.9597,2.892,2.8767,2.8827,3.0146,3.059,2.9964,3.2187,3.2193,3.0294,3.1479,3.1277,2.9599,2.9404,2.8707,2.7748,2.6105,2.4625,2.3328,2.1094,1.9333,1.7922,1.7179,1.6015,1.4649,1.3973,1.3753,1.3317,5.751,5.7968,5.8454,5.8824,5.8824,5.9039,5.9778,5.9532,5.9399,5.993,5.9857,5.9875,5.9955,5.9667,5.9713,6.0106,6.0908,6.1891,6.2972,6.3955,6.4852,6.5425,6.5425,6.5425,6.5425,6.4001,6.3272,6.3272,6.1815,6.1119,6.1119,6.1119,6.1119,6.1119,6.1119,6.1547,6.2324,6.2905,6.3535,6.4112,6.474,6.4911,6.4637,6.4463,6.4287,6.4109,6.382,6.36,6.3526,6.4002,6.4323,6.4462,6.3758,6.3119,6.2446,6.111,5.9731,5.8492,5.7741,5.685,5.5894,5.4941,5.4832,5.4775,5.4114,5.4957,5.5729,5.5294,5.5113,5.4992,5.4992,5.4557,5.3157,5.0097,4.9155,4.7099,4.2148,3.8212,3.4324,3.0214,2.8948,2.8601,2.9026,3.0183,3.0785,3.0349,3.0474,3.0266,2.9513,2.9026,2.8727,2.894,3.0431,3.1113,3.0893,3.2099,3.2157,3.1073,3.1266,3.0903,3.0259,2.958,2.869,2.7834,2.5646,2.4095,2.278,2.0478,1.8721,1.7534,1.6586,1.5192,1.3356,1.1681,1.1018,1.0731]},{"header":{"parameterUnit":"m.s-1","parameterCategory":1,"la1":30.6,"la2":28.766,"lo1":-90.7593,"lo2":-88.6598,"dx":0.0162,"dy":0.0183,"nx":116,"ny":114,"refTime":"2023-01-05T18:00:00:Z","depth":0,"parameterNumber":3,"parameterNumberName":"V-component_of_WINDS"},"data":[0.0,0.0,0.0,0.0,0.0,0.0,0.0,0.0,0.0,0.0,0.0,0.0,0.0,0.0,0.0,0.0,0.0,0.0,0.0,0.0,0.0,0.0,0.0,0.0,0.0,0.0,0.0,0.0,0.0,0.0,0.0,0.0,0.0,0.0,0.0,0.0,0.0,0.0,0.0,0.0,0.0,0.0,0.0,0.0,0.0,0.0,0.0,0.0,0.0,0.0,0.0,0.0,0.0,0.0,0.0,0.0,0.0,0.0,0.0,0.0,0.0,0.0,0.0,0.0,0.0,0.0,0.0,0.0,0.0,0.0,0.0,0.0,0.0,0.0,0.0,0.0,0.0,0.0,0.0,0.0,0.0,0.0,0.0,0.0,0.0,0.0,0.0,0.0,0.0,0.0,0.0,0.0,0.0,0.0,0.0,0.0,0.0,0.0,0.0,0.0,0.0,0.0,0.0,0.0,0.0,0.0,0.0,0.0,0.0,0.0,0.0,0.0,0.0,0.0,0.0,0.0,0.0,0.0,0.0,0.0,0.0,0.0,0.0,0.0,0.0,0.0,0.0,0.0,0.0,0.0,0.0,0.0,0.0,0.0,0.0,0.0,0.0,0.0,0.0,0.0,0.0,0.0,0.0,0.0,0.0,0.0,0.0,0.0,0.0,0.0,0.0,0.0,0.0,0.0,0.0,0.0,0.0,0.0,0.0,0.0,0.0,0.0,0.0,0.0,0.0,0.0,0.0,0.0,0.0,0.0,0.0,0.0,0.0,0.0,0.0,0.0,0.0,0.0,0.0,0.0,0.0,0.0,0.0,0.0,0.0,0.0,0.0,0.0,0.0,0.0,0.0,0.0,0.0,0.0,0.0,0.0,0.0,0.0,0.0,0.0,0.0,0.0,0.0,0.0,0.0,0.0,0.0,0.0,0.0,0.0,0.0,0.0,0.0,0.0,0.0,0.0,0.0,0.0,0.0,0.0,0.0,0.0,0.0,0.0,0.0,0.0,0.0,0.0,0.0,0.0,0.0,0.0,0.0,0.0,0.0,0.0,0.0,0.0,0.0,0.0,0.0,0.0,0.0,0.0,0.0,0.0,0.0,0.0,0.0,0.0,0.0,0.0,0.0,0.0,0.0,0.0,0.0,0.0,0.0,0.0,0.0,0.0,0.0,0.0,0.0,0.0,0.0,0.0,0.0,0.0,0.0,0.0,0.0,0.0,0.0,0.0,0.0,0.0,0.0,0.0,0.0,0.0,0.0,0.0,0.0,0.0,0.0,0.0,0.0,0.0,0.0,0.0,0.0,0.0,0.0,0.0,0.0,0.0,0.0,0.0,0.0,0.0,0.0,0.0,0.0,0.0,0.0,0.0,0.0,0.0,0.0,0.0,0.0,0.0,0.0,0.0,0.0,0.0,0.0,0.0,0.0,0.0,0.0,0.0,0.0,0.0,0.0,0.0,0.0,0.0,0.0,0.0,0.0,0.0,0.0,0.0,0.0,0.0,0.0,0.0,0.0,0.0,0.0,0.0,0.0,0.0,0.0,0.0,0.0,0.0,0.0,0.0,0.0,0.0,0.0,0.0,0.0,0.0,0.0,0.0,0.0,0.0,0.0,0.0,0.0,0.0,0.0,0.0,0.0,0.0,0.0,0.0,0.0,0.0,0.0,0.0,0.0,0.0,0.0,0.0,0.0,0.0,0.0,0.0,0.0,0.0,0.0,0.0,0.0,0.0,0.0,0.0,0.0,0.0,0.0,0.0,0.0,0.0,0.0,0.0,0.0,0.0,0.0,0.0,0.0,0.0,0.0,0.0,0.0,0.0,0.0,0.0,0.0,0.0,0.0,0.0,0.0,0.0,0.0,0.0,0.0,0.0,0.0,0.0,0.0,0.0,0.0,0.0,0.0,0.0,0.0,0.0,0.0,0.0,0.0,0.0,0.0,0.0,0.0,0.0,0.0,0.0,0.0,0.0,0.0,0.0,0.0,0.0,0.0,0.0,0.0,0.0,0.0,0.0,0.0,0.0,0.0,0.0,0.0,0.0,0.0,0.0,0.0,0.0,0.0,0.0,0.0,0.0,0.0,0.0,0.0,0.0,0.0,0.0,0.0,0.0,0.0,0.0,0.0,0.0,0.0,0.0,0.0,0.0,0.0,0.0,0.0,0.0,0.0,0.0,0.0,0.0,0.0,0.0,0.0,0.0,0.0,0.0,0.0,0.0,0.0,0.0,0.0,0.0,0.0,0.0,0.0,0.0,0.0,0.0,0.0,0.0,0.0,0.0,0.0,0.0,0.0,0.0,0.0,0.0,0.0,0.0,0.0,0.0,0.0,0.0,0.0,0.0,0.0,0.0,0.0,0.0,0.0,0.0,0.0,0.0,0.0,0.0,0.0,0.0,0.0,0.0,0.0,0.0,0.0,0.0,0.0,0.0,0.0,0.0,0.0,0.0,0.0,0.0,0.0,0.0,0.0,0.0,0.0,0.0,0.0,0.0,0.0,0.0,0.0,0.0,0.0,0.0,0.0,0.0,0.0,0.0,0.0,0.0,0.0,0.0,0.0,0.0,0.0,0.0,0.0,0.0,0.0,0.0,0.0,0.0,0.0,0.0,0.0,0.0,0.0,0.0,0.0,0.0,0.0,0.0,0.0,0.0,0.0,0.0,0.0,0.0,0.0,0.0,0.0,0.0,0.0,0.0,0.0,0.0,0.0,0.0,0.0,0.0,0.0,0.0,0.0,0.0,0.0,0.0,0.0,0.0,0.0,0.0,0.0,0.0,0.0,0.0,0.0,0.0,0.0,0.0,0.0,0.0,0.0,0.0,0.0,0.0,0.0,0.0,0.0,0.0,0.0,0.0,0.0,0.0,0.0,0.0,0.0,0.0,0.0,0.0,0.0,0.0,0.0,0.0,0.0,0.0,0.0,0.0,0.0,0.0,0.0,0.0,0.0,0.0,0.0,0.0,0.0,0.0,0.0,0.0,0.0,0.0,0.0,0.0,0.0,0.0,0.0,0.0,0.0,0.0,0.0,0.0,0.0,0.0,0.0,0.0,0.0,0.0,0.0,0.0,0.0,0.0,0.0,0.0,0.0,0.0,0.0,0.0,0.0,0.0,0.0,0.0,0.0,0.0,0.0,0.0,0.0,0.0,0.0,0.0,0.0,0.0,0.0,0.0,0.0,0.0,0.0,0.0,0.0,0.0,0.0,0.0,0.0,0.0,0.0,0.0,0.0,0.0,0.0,0.0,0.0,0.0,0.0,0.0,0.0,0.0,0.0,0.0,0.0,0.0,0.0,0.0,0.0,0.0,0.0,0.0,0.0,0.0,0.0,0.0,0.0,0.0,0.0,0.0,0.0,0.0,0.0,0.0,0.0,0.0,0.0,0.0,0.0,0.0,0.0,0.0,0.0,0.0,0.0,0.0,0.0,0.0,0.0,0.0,0.0,0.0,0.0,0.0,0.0,0.0,0.0,0.0,0.0,0.0,0.0,0.0,0.0,0.0,0.0,0.0,0.0,0.0,0.0,0.0,0.0,0.0,0.0,0.0,0.0,0.0,0.0,0.0,0.0,0.0,0.0,0.0,0.0,0.0,0.0,0.0,0.0,0.0,0.0,0.0,0.0,0.0,0.0,0.0,0.0,0.0,0.0,0.0,0.0,0.0,0.0,0.0,0.0,0.0,0.0,0.0,0.0,0.0,0.0,0.0,0.0,0.0,0.0,0.0,0.0,0.0,0.0,0.0,0.0,0.0,0.0,0.0,0.0,0.0,0.0,0.0,0.0,0.0,0.0,0.0,0.0,0.0,0.0,0.0,0.0,0.0,0.0,0.0,0.0,0.0,0.0,0.0,0.0,0.0,0.0,0.0,0.0,0.0,0.0,0.0,0.0,0.0,0.0,0.0,0.0,0.0,0.0,0.0,0.0,0.0,0.0,0.0,0.0,0.0,0.0,0.0,0.0,0.0,0.0,0.0,0.0,0.0,0.0,0.0,0.0,0.0,0.0,0.0,0.0,0.0,0.0,0.0,0.0,0.0,0.0,0.0,0.0,0.0,0.0,0.0,0.0,0.0,0.0,0.0,0.0,0.0,0.0,0.0,0.0,0.0,0.0,0.0,0.0,0.0,0.0,0.0,0.0,0.0,0.0,0.0,0.0,0.0,0.0,0.0,0.0,0.0,0.0,0.0,0.0,0.0,0.0,0.0,0.0,0.0,0.0,0.0,0.0,0.0,0.0,0.0,0.0,0.0,0.0,0.0,0.0,0.0,0.0,0.0,0.0,0.0,0.0,0.0,0.0,0.0,0.0,0.0,0.0,0.0,0.0,0.0,0.0,0.0,0.0,0.0,0.0,0.0,0.0,0.0,0.0,0.0,0.0,0.0,0.0,0.0,0.0,0.0,0.0,0.0,0.0,0.0,0.0,0.0,0.0,0.0,0.0,0.0,0.0,0.0,0.0,0.0,0.0,0.0,0.0,0.0,0.0,0.0,0.0,0.0,0.0,0.0,0.0,0.0,0.0,0.0,0.0,0.0,0.0,0.0,0.0,0.0,0.0,0.0,0.0,0.0,0.0,0.0,0.0,0.0,0.0,0.0,0.0,0.0,0.0,0.0,0.0,0.0,0.0,0.0,0.0,0.0,0.0,0.0,0.0,0.0,0.0,0.0,0.0,0.0,0.0,0.0,0.0,0.0,0.0,0.0,0.0,0.0,0.0,0.0,0.0,0.0,0.0,0.0,0.0,0.0,0.0,0.0,0.0,0.0,0.0,0.0,0.0,0.0,0.0,0.0,0.0,0.0,0.0,0.0,0.0,0.0,0.0,0.0,0.0,0.0,0.0,0.0,0.0,0.0,0.0,0.0,0.0,0.0,0.0,0.0,0.0,0.0,0.0,0.0,0.0,0.0,0.0,0.0,0.0,0.0,0.0,0.0,0.0,0.0,0.0,0.0,0.0,0.0,0.0,0.0,0.0,0.0,0.0,0.0,0.0,0.0,0.0,0.0,0.0,0.0,0.0,0.0,0.0,0.0,0.0,0.0,0.0,0.0,0.0,0.0,0.0,0.0,0.0,0.0,0.0,0.0,0.0,0.0,0.0,0.0,0.0,0.0,0.0,0.0,0.0,0.0,0.0,0.0,0.0,0.0,0.0,0.0,0.0,0.0,0.0,0.0,0.0,0.0,0.0,0.0,0.0,0.0,0.0,0.0,0.0,0.0,0.0,0.0,0.0,0.0,0.0,0.0,0.0,0.0,0.0,0.0,0.0,0.0,0.0,0.0,0.0,0.0,0.0,0.0,0.0,0.0,0.0,0.0,0.0,0.0,0.0,0.0,0.0,0.0,0.0,0.0,0.0,0.0,0.0,0.0,0.0,0.0,0.0,0.0,0.0,0.0,0.0,0.0,0.0,0.0,0.0,0.0,0.0,0.0,0.0,0.0,0.0,0.0,0.0,0.0,0.0,0.0,0.0,0.0,0.0,0.0,0.0,0.0,0.0,0.0,0.0,0.0,0.0,0.0,0.0,0.0,0.0,0.0,0.0,0.0,0.0,0.0,0.0,0.0,0.0,0.0,0.0,0.0,0.0,0.0,0.0,0.0,0.0,0.0,0.0,0.0,0.0,0.0,0.0,0.0,0.0,0.0,0.0,0.0,0.0,0.0,0.0,0.0,0.0,0.0,0.0,0.0,0.0,0.0,0.0,0.0,0.0,0.0,0.0,0.0,0.0,0.0,0.0,0.0,0.0,0.0,0.0,0.0,0.0,0.0,0.0,0.0,0.0,0.0,0.0,0.0,0.0,0.0,0.0,0.0,0.0,0.0,0.0,0.0,0.0,0.0,0.0,0.0,0.0,0.0,0.0,0.0,0.0,0.0,0.0,0.0,0.0,0.0,0.0,0.0,0.0,0.0,0.0,0.0,0.0,0.0,0.0,0.0,0.0,0.0,0.0,0.0,0.0,0.0,0.0,0.0,0.0,0.0,0.0,0.0,0.0,0.0,0.0,0.0,0.0,0.0,0.0,0.0,0.0,0.0,0.0,0.0,0.0,0.0,0.0,0.0,0.0,0.0,0.0,0.0,0.0,0.0,0.0,0.0,0.0,0.0,0.0,0.0,0.0,0.0,-0.2461,-0.2476,0.0,0.0,0.0,0.0,0.0,0.0,0.0,0.0,0.0,0.0,0.0,0.0,0.0,0.0,0.0,0.0,0.0,0.0,0.0,0.0,0.0,0.0,0.0,0.2887,0.2756,0.289,0.2589,0.0,0.0,0.0,0.0,0.0,0.0,0.0,0.0,0.0,0.2965,0.3213,0.3507,0.4134,0.509,0.4296,0.3779,0.3555,0.0,0.0,0.0,0.0,0.0,0.0,0.0,0.0,0.0,0.0,0.0,0.0,0.0,0.0,0.0,0.0,0.0,0.0,0.0,0.0,0.0,0.0,0.0,0.0,0.0,0.0,0.0,0.0,0.0,0.0,0.0,0.0,0.0,0.0,0.0,0.0,0.0,0.0,0.0,0.0,0.0,0.0,0.0,0.0,0.0,0.0,0.0,0.0,0.0,0.0,0.0,0.0,0.0,0.0,0.0,0.0,0.0,0.0,0.0,0.0,0.0,0.0,0.0,0.0,0.0,0.0,0.0,0.0,0.0,0.0,-0.2798,-0.2743,0.0,0.0,0.0,0.0,0.0,0.0,0.0,0.0,0.0,0.0,0.0,0.0,0.0,0.0,0.0,0.0,0.0,0.0,0.0,0.0,0.0,0.3003,0.315,0.2881,0.2767,0.2887,0.2789,0.2724,0.2745,0.2631,0.0,0.0,0.0,0.0,0.2898,0.3095,0.3362,0.3675,0.4435,0.5027,0.5342,0.5792,0.5488,0.4622,0.4629,0.0,0.0,0.0,0.0,0.0,0.0,0.0,0.0,0.0,0.0,0.0,0.0,0.0,0.0,0.0,0.0,0.0,0.0,0.0,0.0,0.0,0.0,0.0,0.0,0.0,0.0,0.0,0.0,0.0,0.0,0.0,0.0,0.0,0.0,0.0,0.0,0.0,0.0,0.0,0.0,0.0,0.0,0.0,0.0,0.0,0.0,0.0,0.0,0.0,0.0,0.0,0.0,0.0,0.0,0.0,0.0,0.0,0.0,0.0,0.0,0.0,0.0,0.0,-0.2646,-0.2673,-0.2673,-0.2881,-0.3008,-0.3148,-0.3166,-0.3055,-0.3006,-0.3006,0.0,0.0,0.0,0.0,0.0,0.0,0.0,0.0,0.0,0.0,0.0,0.0,0.0,0.0,0.0,0.0,0.0,0.0,0.0,0.3102,0.2959,0.2887,0.2892,0.2965,0.2914,0.2887,0.2949,0.2887,0.0,0.0,0.0,0.2944,0.2976,0.3881,0.4282,0.4045,0.6448,0.7326,0.6739,0.891,0.9068,0.7541,0.5638,0.4671,0.4544,0.0,0.0,0.0,0.0,0.0,0.0,0.0,0.0,0.0,0.0,0.0,0.0,0.0,0.0,0.0,0.0,0.0,0.0,0.0,0.0,0.0,0.0,0.0,0.0,0.0,0.0,0.0,0.0,0.0,0.0,0.0,0.0,0.0,0.0,0.0,0.0,0.0,0.0,0.0,0.0,0.0,0.0387,-0.1089,0.0,0.0,0.0,0.0,0.0,0.0,0.0,0.0,0.0,0.0,0.0,0.0,0.0,-0.2324,-0.2434,-0.2769,-0.3053,-0.306,-0.327,-0.3429,-0.3429,-0.354,-0.3545,-0.3553,-0.3575,0.0,-0.3194,-0.3194,0.0,0.0,0.0,0.0,0.0,0.0,0.0,0.0,0.0,0.0,0.0,0.0,0.0,0.0,0.0,0.0,0.0,0.0,0.0,0.0,0.0,0.4273,0.4142,0.4365,0.3989,0.3637,0.3495,0.3561,0.0,0.0,0.3485,0.349,0.349,0.4194,0.4993,0.5867,0.7217,0.776,0.7629,0.9309,0.9357,0.8063,0.7584,0.6743,0.5595,0.4967,0.0,0.0,0.0,0.0,0.0,0.0,0.0,0.0,0.0,0.0,0.0,0.0,0.0,0.0,0.0,0.0,0.0,0.0,0.0,0.0,0.0,0.0,0.0,0.0,0.0,0.0,0.0,0.0,0.0,0.0,0.0,0.0,0.0,0.0,0.0,0.0,0.0,0.0,0.0,0.1084,0.0477,0.0414,0.0569,0.0563,0.0,0.0,0.0,0.0,0.0,0.0,0.0,0.0,0.0,-0.2668,-0.2739,-0.2893,-0.3025,-0.3268,-0.345,-0.345,-0.3649,-0.3689,-0.3689,-0.3689,-0.3689,-0.3692,-0.3717,-0.3673,-0.3578,-0.351,-0.3414,-0.3411,0.0,0.0,0.0,0.0,-0.5223,-0.6116,0.0,0.0,0.0,0.0,0.0,0.0,0.0,0.0,0.0,0.0,0.0,0.0,0.5675,0.5417,0.5368,0.5642,0.5332,0.4906,0.451,0.4493,0.4394,0.4052,0.4039,0.4072,0.4072,0.4763,0.5886,0.757,0.7851,0.7984,0.7925,0.9015,0.9114,0.8315,0.8788,0.8291,0.6986,0.6028,0.5407,0.5097,0.0,0.0,0.0,0.0,0.0,0.0,0.0,0.0,0.0,0.0,0.0,0.0,0.0,0.0,0.0,0.0,0.0,0.0,0.0,0.0,0.0,0.0,0.0,0.0,0.0,0.0,0.0,0.0,0.0,0.0,0.0,0.0,0.0,0.0,0.0,0.0,0.0,0.1146,0.0418,0.114,0.0862,0.0598,0.0,0.0,0.0,0.0,0.0,0.0,-0.2453,-0.2487,-0.2753,-0.3173,-0.3232,-0.339,-0.3542,-0.3662,-0.3717,-0.3703,-0.3779,-0.3807,-0.3793,-0.3809,-0.3815,-0.3815,-0.3815,-0.3842,-0.3875,-0.3752,-0.3791,-0.3966,-0.4345,-0.4632,-0.4822,-0.5363,-0.6273,-0.734,0.0,0.0,0.0,0.0,0.0,0.0,0.0,0.0,0.0,0.0,0.0,0.4809,0.5257,0.5642,0.5942,0.6044,0.684,0.6974,0.6037,0.5894,0.5464,0.4676,0.4501,0.4442,0.4442,0.5951,0.7217,0.8177,0.8934,0.8788,0.7832,0.8825,0.932,0.9221,0.8322,0.8311,0.8882,0.7649,0.708,0.6726,0.5512,0.0,0.0,0.0,0.0,0.0,0.0,0.0,0.0,0.0,0.0,0.0,0.0,0.0,0.0,0.0,0.0,0.0,0.0,0.0,0.0,0.0,0.0,0.0,0.0,0.0,0.0,0.0,0.0,0.0,0.0,0.0,0.0,0.0,0.0,0.0,0.0,0.0,0.0,0.0092,-0.103,0.0,0.0,0.0,0.0,-0.1467,-0.0994,-0.1224,-0.2539,-0.2865,-0.3237,-0.357,-0.3632,-0.3668,-0.367,-0.379,-0.3823,-0.3766,-0.3886,-0.3913,-0.3858,-0.3916,-0.3943,-0.3943,-0.3943,-0.3943,-0.3937,-0.3815,-0.4115,-0.4688,-0.4728,-0.4991,-0.5601,-0.6247,-0.6507,-0.6858,0.0,0.0,0.0,0.4318,0.4272,0.4377,0.4723,0.5085,0.554,0.6136,0.6209,0.6365,0.6739,0.639,0.6395,0.7141,0.7194,0.7224,0.731,0.7446,0.7313,0.6842,0.6261,0.583,0.5502,0.6512,0.7396,0.8294,0.8514,0.8473,0.8354,1.0241,1.0826,1.0184,1.0489,1.0604,1.0635,0.7828,0.6578,0.6299,0.6505,0.5958,0.0,0.0,0.0,0.0,0.0,0.0,0.0,0.0,0.0,0.0,0.0,0.0,0.0,0.0,0.0,0.0,0.0,0.0,0.0,0.0,0.0,0.0,0.0,0.0,0.0,0.0,0.0,0.0,0.0,0.0,0.0,0.0,0.0,0.0,0.0,0.0,0.0,0.0585,-0.0298,0.0,-0.1209,-0.1125,-0.1454,-0.2527,-0.2543,-0.2698,-0.324,-0.3471,-0.3508,-0.3703,-0.3763,-0.3815,-0.3853,-0.3932,-0.3981,-0.4,-0.4044,-0.4052,-0.4033,-0.4055,-0.4063,-0.406,-0.4022,-0.4279,-0.4684,-0.4542,-0.4606,-0.4965,-0.5778,-0.6222,-0.6551,-0.7184,-0.7801,-0.8402,0.0,0.0,0.0,0.4318,0.4557,0.4845,0.5197,0.5803,0.6365,0.6794,0.6903,0.7138,0.759,0.7257,0.7432,0.8418,0.8284,0.813,0.8098,0.7998,0.7658,0.7104,0.6646,0.6486,0.6608,0.7561,0.8394,0.8996,0.9474,0.9747,0.9684,1.1236,1.1561,1.1044,1.1643,1.1522,1.0623,0.83,0.7042,0.6543,0.6869,0.628,0.5366,0.0,0.0,0.0,0.0,0.0,0.0,0.0,0.0,0.0,0.0,0.0,0.0,0.0,0.0,0.0,0.0,0.0,0.0,0.0,0.0,0.0,0.0,0.0,0.0,0.0,0.0,0.0,0.0,0.0,0.0,0.0,0.0,0.0,0.0,0.0479,-0.0398,0.0203,-0.0728,-0.1478,-0.1584,-0.1832,-0.2304,-0.3001,-0.3243,-0.3519,-0.3617,-0.376,-0.3796,-0.3858,-0.3918,-0.397,-0.4008,-0.4065,-0.4117,-0.4155,-0.4177,-0.4188,-0.4188,-0.4188,-0.4188,-0.4183,-0.438,-0.4759,-0.5182,-0.556,-0.5749,-0.5745,-0.6548,-0.7011,-0.7255,-0.775,-0.8238,-0.897,0.0,0.0,0.4329,0.4329,0.4698,0.5186,0.562,0.6299,0.6843,0.7131,0.6863,0.6998,0.7756,0.8325,0.8982,0.9767,1.014,0.9739,0.8487,0.7461,0.6466,0.5471,0.5709,0.6374,0.7724,0.9314,1.0092,1.0176,1.1919,1.2411,1.1569,1.1586,1.1562,1.1837,1.1537,1.0689,0.9272,0.914,0.8581,0.7726,0.6444,0.592,0.5877,0.0,0.0,0.0,0.0,0.0,0.0,0.0,0.0,0.0,0.0,0.0,0.0,0.0,0.0,0.0,0.0,0.0,0.0,0.0,0.0,0.0,0.0,0.0,0.0,0.0,0.0,0.0,0.0,0.0,0.0,0.0,0.0,0.0,0.0287,-0.0395,-0.112,-0.1141,-0.2361,-0.2962,-0.2743,-0.3049,-0.3105,-0.2877,-0.3153,-0.3322,-0.3379,-0.3676,-0.3978,-0.4036,-0.4095,-0.4128,-0.4131,-0.4188,-0.4218,-0.4224,-0.4281,-0.4308,-0.4308,-0.4308,-0.4308,-0.4305,-0.5036,-0.5267,-0.5391,-0.6735,-0.7335,-0.7316,-0.6979,-0.7388,-0.7883,-0.7883,-0.7883,-0.825,0.4557,0.4511,0.4511,0.4511,0.505,0.5577,0.5879,0.6635,0.7443,0.8014,0.8009,0.821,0.8657,0.8785,0.886,0.8903,0.93,0.9216,0.8674,0.8462,0.7818,0.6821,0.775,0.8336,0.8385,0.9623,1.0542,1.1216,1.171,1.2072,1.2147,1.3143,1.3609,1.3646,1.3297,1.284,1.2346,1.0107,0.8927,0.8628,0.7883,0.7003,0.6244,0.0,0.0,0.0,0.0,0.0,0.0,0.0,0.0,0.0,0.0,0.0,0.0,0.0,0.0,0.0,0.0,0.0,0.0,0.0,0.0,0.0,0.0,0.0,0.0,0.0,0.0,0.0,0.0,0.0,0.0,0.0,-0.039,-0.1298,-0.0695,-0.1677,-0.251,-0.2633,-0.2941,-0.3349,-0.3464,-0.3609,-0.3643,-0.3569,-0.3706,-0.3759,-0.3857,-0.3878,-0.4038,-0.4098,-0.4117,-0.4169,-0.4256,-0.4232,-0.4262,-0.4349,-0.4322,-0.4308,-0.4308,-0.4308,-0.4308,-0.4305,-0.5036,-0.5529,-0.6046,-0.6993,-0.7591,-0.797,-0.7907,-0.8007,-0.8133,-0.8133,-0.8133,-0.8385,0.4817,0.4759,0.4759,0.4759,0.5351,0.5868,0.5997,0.6649,0.7401,0.8092,0.8143,0.8407,0.9346,0.947,0.9357,0.9087,0.9142,0.8792,0.8087,0.7766,0.7436,0.6969,0.8301,0.9006,0.896,1.0802,1.174,1.1692,1.2449,1.2935,1.3233,1.402,1.4712,1.5302,1.4951,1.4449,1.3636,1.1876,1.0689,0.9958,0.9004,0.7698,0.6498,0.69,0.6602,0.5855,0.5665,0.5638,0.5648,0.5344,0.0,0.0,0.0,0.0,0.0,0.0,0.0,0.0,0.0,0.0,0.0,0.0,0.0,0.0,0.0,0.0,0.0,0.0,0.0,0.0,0.0,0.0,0.0,0.0,-0.1442,-0.2217,-0.2111,-0.2841,-0.338,-0.3429,-0.3536,-0.3595,-0.3809,-0.3853,-0.3886,-0.3897,-0.3921,-0.3962,-0.403,-0.4106,-0.4166,-0.4202,-0.4226,-0.4273,-0.4343,-0.4286,-0.4303,-0.4398,-0.4362,-0.4357,-0.4382,-0.4382,-0.4382,-0.4376,-0.5393,-0.6027,-0.6419,-0.7379,-0.7992,-0.8372,0.0,0.0,0.0,0.0,-0.8236,-0.8486,0.5127,0.5045,0.5045,0.5045,0.5588,0.6062,0.6062,0.6504,0.7116,0.785,0.7821,0.8365,0.9819,1.0288,1.0267,0.9823,0.9357,0.8513,0.7141,0.6471,0.6328,0.6642,0.7969,0.9089,0.9745,1.2334,1.312,1.231,1.3642,1.443,1.4894,1.4576,1.5342,1.6689,1.6327,1.5248,1.3899,1.3721,1.2767,1.1356,0.9771,0.8291,0.6855,0.652,0.6252,0.6132,0.6024,0.5986,0.5947,0.5725,0.0,0.0,0.0,0.0,0.0,0.0,0.0,0.0,0.0,0.0,0.0,0.0,0.0,0.0,0.0,0.0,0.0,0.0,0.0,0.0,0.0,0.0,0.0,0.0,-0.2639,-0.3605,-0.3624,-0.3621,-0.3659,-0.3777,-0.3886,-0.3932,-0.3886,-0.3973,-0.4014,-0.3965,-0.4014,-0.4052,-0.4065,-0.4213,0.0,0.0,0.0,-0.4392,-0.4398,-0.4338,-0.4338,-0.4398,-0.4392,-0.4414,-0.4463,-0.4463,-0.4463,-0.4739,-0.5913,-0.6566,-0.6694,-0.8092,-0.859,-0.8568,-0.8356,-0.8274,-0.8274,-0.8274,-0.8274,-0.8531,0.5458,0.5323,0.5244,0.5244,0.5836,0.632,0.632,0.7051,0.788,0.8627,0.9135,0.9818,1.071,1.1173,1.0771,0.9114,0.9072,0.8394,0.6547,0.7447,0.8139,0.8208,0.8838,1.0433,1.2767,1.2475,1.3464,1.5689,1.4886,1.5169,1.655,1.6497,1.6636,1.6926,1.5543,1.476,1.4402,1.2952,1.2076,1.1495,1.023,0.9298,0.8425,0.7206,0.6622,0.6513,0.6491,0.648,0.6458,0.6312,0.6279,0.6257,0.6024,0.585,0.0,0.0,0.0,0.0,0.0,0.0,0.0,0.0,0.0,0.0,0.0,0.0,0.0,0.0,0.0,0.0,0.0,0.0,0.0,-0.1326,-0.2709,-0.3711,-0.3861,-0.3839,-0.3834,-0.3907,-0.3935,-0.3965,-0.3997,-0.4022,-0.403,-0.4019,-0.4074,-0.415,-0.4248,-0.4243,-0.4281,-0.4376,-0.4343,-0.4349,-0.4398,-0.4338,-0.4338,-0.4398,-0.4349,0.0,-0.4341,-0.4341,-0.4612,-0.5288,-0.608,-0.6745,-0.7407,-0.8195,-0.859,-0.8584,-0.8535,-0.8519,-0.8519,-0.8519,-0.8651,-0.9042,0.5775,0.5616,0.5524,0.5642,0.6073,0.6439,0.6546,0.6925,0.7573,0.8548,0.9019,0.959,1.0573,1.0961,1.06,0.9314,0.9208,0.8438,0.6373,0.8426,0.9367,0.8682,1.0459,1.2121,1.3622,1.3301,1.3904,1.564,1.4318,1.441,1.5954,1.5954,1.6353,1.7001,1.61,1.5741,1.5493,1.4005,1.3172,1.2725,1.0716,0.9744,0.9306,0.7662,0.6942,0.6872,0.6752,0.6709,0.6692,0.6567,0.6486,0.6415,0.6301,0.6181,0.5946,0.0,0.0,0.0,0.0,0.0,0.0,0.0,0.0,0.0,0.0,0.0,0.0,0.0,0.0,0.4073,0.2681,0.0,0.0563,-0.0916,-0.1876,-0.2276,-0.2433,-0.2823,-0.3341,-0.3865,-0.3992,-0.4003,-0.4033,-0.4063,-0.4093,-0.4123,-0.4183,-0.4256,-0.4349,-0.4379,-0.4409,-0.4439,-0.4412,-0.4395,-0.4398,-0.4338,-0.4322,-0.4352,-0.4322,-0.4308,-0.4308,-0.4308,-0.4711,-0.5383,-0.6049,-0.6849,-0.7512,-0.8318,-0.859,-0.859,-0.859,-0.859,-0.859,-0.859,-0.8851,-0.925,0.6044,0.5881,0.5803,0.5986,0.6223,0.6471,0.6646,0.6829,0.7269,0.8324,0.8572,0.8995,1.0033,1.0444,1.0234,0.9442,0.9531,0.8657,0.6278,0.922,1.0482,0.9211,1.1881,1.3683,1.4149,1.3825,1.4113,1.5051,1.3518,1.3718,1.5303,1.5303,1.5954,1.7001,1.6742,1.6508,1.6212,1.4795,1.4152,1.3573,1.1165,1.0012,0.9674,0.8026,0.7252,0.716,0.6948,0.6872,0.685,0.673,0.6611,0.6502,0.648,0.641,0.6192,0.5482,0.5308,0.0,0.0,0.0,0.0,0.0,0.0,0.0,0.0,0.4189,0.4406,0.4086,0.4069,0.3726,0.2251,0.1728,0.0939,-0.0593,-0.0851,-0.0864,-0.0978,-0.1617,-0.2525,-0.3544,-0.3915,-0.4044,-0.4068,-0.4125,-0.4185,-0.4248,-0.4308,-0.4368,-0.4428,-0.4512,-0.454,-0.4501,-0.4477,-0.4444,-0.4398,-0.4338,-0.4308,-0.4308,-0.4319,-0.4324,-0.4324,-0.447,-0.5018,-0.5694,-0.6504,-0.7179,-0.7843,-0.836,-0.8622,-0.8622,-0.8595,-0.859,-0.859,-0.859,-0.8856,-0.9256,0.6135,0.6078,0.5986,0.6019,0.6223,0.6471,0.6646,0.7287,0.7832,0.8151,0.874,0.9275,0.9626,1.0239,1.007,0.8683,0.9678,0.9181,0.6272,0.9619,1.154,1.0978,1.2239,1.4025,1.5968,1.3331,1.3528,1.67,1.4101,1.411,1.6742,1.6742,1.6872,1.7001,1.5694,1.5154,1.5005,1.3552,1.28,1.2507,1.1077,1.0256,0.9861,0.8337,0.7595,0.7296,0.7165,0.7116,0.71,0.698,0.6861,0.6741,0.6632,0.639,0.6134,0.5611,0.533,0.516,0.466,0.4638,0.4773,0.4773,0.4448,0.4126,0.0,0.38,0.3524,0.3534,0.3762,0.3381,0.1754,0.1454,0.0994,-0.0614,-0.0871,-0.0884,-0.1023,-0.1015,-0.1521,-0.2566,-0.3431,-0.4076,-0.4185,-0.4251,-0.4313,-0.4373,-0.4431,-0.4491,-0.4551,-0.4515,-0.4515,-0.4561,-0.4463,-0.4403,-0.4398,-0.4338,-0.4308,-0.4308,-0.4362,-0.4387,-0.439,-0.5131,-0.5851,-0.6684,-0.808,-0.8634,-0.8761,-0.8796,-0.8747,-0.8742,-0.8628,-0.859,-0.859,-0.859,-0.8989,-0.9661,0.6413,0.6329,0.6277,0.6368,0.6525,0.6676,0.6902,0.7311,0.7634,0.7731,0.8366,0.884,0.8947,0.9841,0.9637,0.7816,1.0124,1.0306,0.6976,1.0804,1.2695,1.1657,1.3311,1.4696,1.5688,1.4014,1.4336,1.6807,1.4976,1.5033,1.7001,1.7001,1.7001,1.7001,1.6353,1.5694,1.4782,1.3456,1.2235,1.1257,0.9952,0.9275,0.8896,0.8273,0.7752,0.7426,0.7301,0.7258,0.0,0.7122,0.7008,0.6899,0.6632,0.6463,0.6157,0.5541,0.539,0.539,0.5006,0.4937,0.489,0.4579,0.4428,0.4247,0.3453,0.3416,0.351,0.3233,0.3259,0.3043,0.2477,0.2004,0.1509,0.0875,0.0759,0.0764,0.0756,0.0256,-0.0517,-0.1676,-0.2622,-0.3452,-0.4134,-0.4324,-0.4398,-0.4493,-0.4523,-0.4561,-0.4624,-0.4602,-0.4583,-0.4572,-0.4526,-0.4482,-0.4447,-0.4422,-0.4409,-0.4409,-0.4436,-0.4447,-0.4447,-0.475,-0.56,-0.6717,-0.8253,-0.8954,-0.8948,-0.8899,-0.901,-0.9136,-0.9013,-0.9098,-0.9355,-0.9012,-0.9256,-0.9661,0.6619,0.6531,0.6557,0.6794,0.6826,0.6891,0.7052,0.7289,0.7394,0.7394,0.7957,0.8388,0.8592,0.9378,0.9306,0.7658,1.0144,1.0631,0.7908,1.1404,1.3195,1.2068,1.3868,1.5009,1.5343,1.4439,1.4814,1.6571,1.4923,1.5148,1.6904,1.6518,1.655,1.7001,1.6613,1.6053,1.5216,1.3457,1.198,1.0911,0.9478,0.857,0.8122,0.8035,0.7801,0.738,0.7231,0.715,0.7113,0.6916,0.679,0.6679,0.6418,0.6251,0.6027,0.5462,0.5417,0.5422,0.5214,0.5161,0.511,0.4676,0.4448,0.416,0.3171,0.3129,0.322,0.2768,0.2626,0.2628,0.2696,0.231,0.2041,0.2033,0.2049,0.2052,0.2018,0.1422,0.0527,-0.1051,-0.1765,-0.2767,-0.4247,-0.442,-0.4488,-0.4591,-0.46,-0.4619,-0.4662,-0.4665,-0.4643,-0.46,-0.4583,-0.4553,-0.4507,-0.4491,-0.4482,-0.4482,-0.4499,-0.4648,-0.4788,-0.5229,-0.6222,-0.7495,-0.8484,-0.9046,-0.9046,-0.9014,-0.9142,-0.9405,-0.9377,-0.9443,-0.9703,-0.943,-0.9522,-0.9927,0.6686,0.6678,0.6805,0.7031,0.7074,0.7074,0.7085,0.7289,0.7394,0.7394,0.7666,0.8086,0.8775,0.895,0.8894,0.8637,0.972,0.9906,0.8747,1.0837,1.2231,1.2342,1.3316,1.4406,1.5569,1.3947,1.4162,1.6323,1.3672,1.3897,1.6667,1.5376,1.5613,1.7001,1.5564,1.5584,1.6403,1.3383,1.2065,1.1913,1.0418,0.8977,0.7883,0.7877,0.7605,0.7132,0.6909,0.6759,0.6552,0.6226,0.5979,0.5841,0.6051,0.5826,0.5532,0.5629,0.5312,0.5108,0.5108,0.5296,0.5496,0.5496,0.4634,0.3937,0.3812,0.2958,0.2109,0.2012,0.2018,0.2026,0.2059,0.2087,0.2097,0.2067,0.2063,0.2074,0.2101,0.2108,0.1198,-0.0956,-0.1264,-0.2141,-0.4422,-0.4567,-0.4594,-0.4657,-0.4662,-0.4662,-0.4665,-0.4665,-0.4662,-0.4662,-0.4605,-0.4572,-0.457,-0.4512,-0.4482,-0.4482,-0.4542,-0.4997,-0.5713,-0.7221,-0.842,-0.9291,-0.9291,-0.9291,-0.9285,-0.9171,-0.9128,-0.9106,-0.9274,-0.9313,-0.9431,-0.9977,-1.0193,-1.0193,0.6956,0.6966,0.6988,0.7074,0.7085,0.7085,0.7085,0.7149,0.7203,0.7203,0.7419,0.0,0.0,0.0,0.0,0.0,0.9638,1.009,0.9,1.0353,1.1632,1.2381,1.2595,1.3332,1.4654,1.4427,1.4802,1.5838,1.5126,1.5309,1.6431,1.5919,1.5574,1.5256,1.5492,1.4873,1.3545,1.3224,1.2004,1.0365,0.9774,0.8871,0.7747,0.7665,0.7322,0.6705,0.0,0.6364,0.633,0.6112,0.6022,0.5941,0.5932,0.5769,0.5541,0.5392,0.5347,0.5316,0.5431,0.5618,0.5658,0.5294,0.4611,0.3986,0.3436,0.2709,0.2091,0.208,0.2079,0.2076,0.2065,0.2072,0.2076,0.2065,0.2046,0.2052,0.2102,0.1461,0.0405,-0.1109,-0.1851,-0.2895,-0.4488,-0.4632,-0.4643,-0.4662,-0.4665,-0.4665,-0.4665,-0.4665,-0.4665,-0.4665,-0.4646,-0.4632,-0.4632,-0.4613,-0.4889,-0.532,-0.5922,-0.6365,-0.6657,-0.7693,-0.8285,-0.8574,-0.9013,-0.9302,-0.9302,-0.9264,-0.9534,-1.009,-0.9912,-1.0209,-1.0522,-1.0657,-1.0672,-1.0585,0.7085,0.7085,0.7085,0.7085,0.7085,0.0,0.0,0.0,0.0,0.0,0.0,0.0,0.0,0.0,0.0,0.0,0.0,0.9854,0.9163,1.024,1.1141,1.1683,1.1717,1.2226,1.3162,1.364,1.4044,1.428,1.4611,1.5084,1.5565,1.5276,1.5115,1.4799,1.4942,1.4191,1.2901,1.2624,1.1386,0.9787,0.9347,0.8292,0.7194,0.6997,0.6649,0.0,0.596,0.5793,0.5643,0.5647,0.5638,0.5611,0.556,0.5547,0.5392,0.53,0.5402,0.5508,0.5655,0.5827,0.585,0.55,0.4753,0.4079,0.3668,0.2778,0.2133,0.2113,0.2109,0.2104,0.2083,0.2089,0.209,0.2067,0.2048,0.1927,0.1587,0.0803,-0.0136,-0.1697,-0.2451,-0.335,-0.4519,-0.4665,-0.4665,-0.4665,-0.4665,-0.4665,-0.4665,-0.4665,-0.4665,-0.4665,-0.4665,-0.4665,-0.4665,-0.4665,-0.5101,-0.5825,-0.6841,-0.7421,-0.7421,-0.814,-0.8574,-0.8574,-0.9013,-0.9446,-0.9446,-0.9446,-0.9879,-1.0443,-1.0457,-1.0595,-1.1007,-1.0866,-1.0853,-1.0717,0.7085,0.7085,0.7085,0.0,0.0,0.0,0.0,0.0,0.0,0.0,0.0,0.0,0.0,0.0,0.0,0.0,0.0,0.0,0.9077,1.0182,1.073,1.0464,1.0808,1.1134,1.1435,1.1846,1.1954,1.1729,1.2229,1.299,1.3901,1.3433,1.3995,1.5258,1.3732,1.3644,1.4456,1.1661,1.039,1.0166,0.8757,0.7506,0.6346,0.6046,0.5765,0.5458,0.5367,0.5014,0.4614,0.4875,0.4973,0.5002,0.5092,0.519,0.53,0.5471,0.5586,0.568,0.5774,0.5933,0.6088,0.6174,0.5219,0.4234,0.4283,0.3191,0.2108,0.2105,0.2105,0.2104,0.2102,0.2128,0.2129,0.2074,0.2064,0.1564,0.0537,0.027,-0.055,-0.2606,-0.2912,-0.3496,-0.4519,-0.4665,-0.4665,-0.481,-0.4665,-0.4665,-0.4665,-0.4665,-0.4665,-0.481,-0.4665,-0.4665,-0.481,-0.481,-0.5244,-0.597,-0.7417,-0.814,-0.814,-0.9013,-0.9302,-0.9302,-0.9302,-0.959,-0.9879,-0.9879,-1.0167,-1.0587,-1.0747,-1.0747,-1.0606,-1.0873,-1.086,-1.0731,0.0,0.0,0.0,0.0,0.0,0.0,0.0,0.0,0.0,0.0,0.0,0.0,0.0,0.0,0.0,0.0,0.0,0.0,0.8288,0.8923,0.9442,0.9702,1.0102,1.0435,1.0603,1.0839,1.0654,1.0166,1.0706,1.1241,1.1806,1.2342,1.2246,1.1744,1.2246,1.1746,1.0582,1.054,0.968,0.8223,0.7737,0.6929,0.5822,0.5766,0.5443,0.516,0.5214,0.4958,0.4602,0.4802,0.5006,0.519,0.5284,0.5418,0.5565,0.568,0.5774,0.588,0.6035,0.6161,0.6272,0.6362,0.5738,0.4942,0.4378,0.3564,0.275,0.2178,0.2041,0.2035,0.2015,0.2034,0.1799,0.0902,0.0774,0.0525,-0.0551,-0.1512,-0.2222,-0.2898,-0.3641,-0.4371,-0.4665,-0.4665,-0.4956,-0.5535,-0.4956,-0.4665,-0.4665,-0.4665,-0.4956,-0.5538,-0.4956,-0.4956,-0.5538,-0.6119,-0.6841,-0.7562,-0.8574,-0.9013,-0.9013,-0.9157,-0.9302,-0.9302,-0.959,-0.9735,-0.9879,-1.0167,-1.0606,-1.0894,-1.0862,-1.1044,-1.1174,-1.1165,-1.1152,-1.1277,0.0,0.0,0.0,0.0,0.0,0.0,0.0,0.0,0.0,0.0,0.0,0.0,0.0,0.0,0.0,0.0,0.0,0.0,0.0,0.8225,0.8494,0.7956,0.8739,0.9139,0.9072,0.9328,0.914,0.8532,0.9371,0.9797,0.9799,1.0681,1.0704,1.0063,1.0638,1.0149,0.9094,0.9076,0.8322,0.0,0.0,0.5889,0.5318,0.5133,0.4935,0.4699,0.4801,0.4733,0.4598,0.4773,0.5043,0.5312,0.5365,0.5529,0.572,0.5814,0.5933,0.6063,0.6202,0.6308,0.639,0.6443,0.5647,0.4824,0.4361,0.3539,0.259,0.2138,0.2,0.1996,0.1979,0.1624,0.114,0.0514,0.0,-0.0656,-0.1793,-0.2483,-0.3066,-0.3624,-0.4226,-0.481,-0.5101,-0.4956,-0.4956,-0.5683,-0.5389,-0.5389,-0.568,-0.568,-0.5825,-0.6264,-0.597,-0.597,-0.6264,-0.7131,-0.7706,-0.814,-0.8868,-0.9302,-0.9302,-0.9302,-0.9302,-0.9302,-0.9735,-1.0023,-1.0167,-1.0606,-1.0894,-1.1332,-1.1332,-1.1382,-1.1664,-1.1573,-1.1674,-1.1738,0.0,0.0,0.0,0.0,0.0,0.0,0.0,0.0,0.0,0.8129,0.8021,0.814,0.856,0.8388,0.0,0.0,0.0,0.0,0.0,0.0,0.7908,0.6286,0.7415,0.7918,0.7414,0.7842,0.7738,0.6938,0.8027,0.8258,0.7805,0.8679,0.9123,0.9108,0.8847,0.863,0.8517,0.7285,0.6649,0.6339,0.536,0.4814,0.4736,0.0,0.441,0.4389,0.4312,0.4414,0.4618,0.4794,0.5079,0.5369,0.5406,0.5594,0.5818,0.5921,0.6068,0.6219,0.6308,0.6394,0.6455,0.6321,0.5369,0.4409,0.4218,0.3114,0.2164,0.1982,0.1967,0.1966,0.197,0.1246,0.0632,0.0257,-0.0516,-0.1574,-0.2997,-0.316,-0.363,-0.4777,-0.495,-0.5101,-0.5825,-0.5392,-0.5247,-0.597,-0.6116,-0.6261,-0.6845,-0.699,-0.699,-0.699,-0.7135,-0.7131,-0.7131,-0.7706,-0.814,-0.8285,-0.9013,-0.9302,-0.9446,-0.9446,-0.9446,-0.9446,-0.9879,-1.0311,-1.0599,-1.0894,-1.1332,-1.1619,-1.1619,-1.1823,-1.1988,-1.1966,-1.2058,-1.221,0.0,0.0,0.0,0.0,0.0,0.0,0.0,0.0,0.0,0.0,0.9206,0.899,0.0,0.0,0.0,0.0,0.0,0.0,0.0,0.0,0.0,0.6825,0.8027,0.8112,0.6741,0.7186,0.6837,0.5463,0.5764,0.5836,0.594,0.6734,0.7182,0.7182,0.7341,0.6994,0.6317,0.5986,0.5491,0.4771,0.4572,0.4365,0.4385,0.434,0.0,0.0,0.4202,0.4406,0.4712,0.4888,0.5092,0.5308,0.5529,0.5733,0.5925,0.6088,0.621,0.6313,0.6406,0.6443,0.6317,0.5781,0.5331,0.4873,0.3637,0.3044,0.2723,0.2067,0.1919,0.1909,0.1934,0.184,0.1121,-0.0505,-0.1034,-0.1982,-0.4577,-0.4541,-0.4777,-0.629,-0.5932,-0.597,-0.67,-0.67,-0.67,-0.6845,-0.7417,-0.7272,-0.6116,-0.67,-0.699,-0.699,-0.7566,-0.7851,-0.7851,-0.7996,-0.843,-0.9157,-0.9302,-0.9446,-0.9735,-0.9735,-1.0023,-1.0311,-1.0606,-1.09,-1.09,-1.1332,-1.1476,-1.1619,-1.1619,-1.1893,-1.2137,-1.2009,-1.2344,-1.2967,0.0,0.0,0.0,0.0,0.0,0.0,0.0,0.9701,0.9992,1.0584,1.0466,1.0132,0.9626,0.926,0.899,0.0,0.0,0.0,0.0,0.0,0.0,0.6231,0.6845,0.6995,0.6388,0.6767,0.6499,0.5712,0.0,0.522,0.4917,0.5388,0.5624,0.5624,0.5619,0.5428,0.505,0.4949,0.4723,0.4361,0.4316,0.4271,0.4234,0.0,0.0,0.0,0.4157,0.434,0.4594,0.4773,0.5051,0.5361,0.5631,0.5872,0.6072,0.6153,0.628,0.6398,0.6443,0.6455,0.6321,0.5647,0.5059,0.4461,0.3364,0.2774,0.2325,0.1896,0.1859,0.1843,0.1857,0.1404,0.0834,-0.0124,-0.1523,-0.299,-0.4417,-0.5198,-0.5862,-0.6693,-0.6463,-0.6645,-0.7562,-0.7276,-0.7131,-0.7566,-0.7851,-0.7706,-0.6982,-0.7711,-0.8145,-0.8145,-0.8579,-0.8724,-0.8724,-0.8724,-0.8868,-0.9302,-0.9446,-0.9735,-0.9879,-1.0167,-1.0311,-1.0455,-1.0894,-1.1044,-1.1044,-1.1476,-1.1763,-1.1907,-1.1907,-1.2187,-1.2753,-1.2671,-1.3013,-1.3348,0.0,0.0,0.0,0.0,0.0,0.0,0.0,1.0336,1.0638,1.1402,1.1413,1.0984,1.0304,0.9755,0.9324,0.0,0.0,0.0,0.0,0.0,0.0,0.0,0.0,0.0,0.5917,0.0,0.0,0.5881,0.5463,0.0,0.0,0.0,0.0,0.0,0.4438,0.4406,0.4402,0.4328,0.43,0.0,0.0,0.423,0.4169,0.0,0.0,0.0,0.0,0.4259,0.4438,0.4663,0.4986,0.5345,0.5631,0.5921,0.6149,0.6129,0.6268,0.6423,0.6423,0.6305,0.6049,0.5379,0.4649,0.3791,0.3101,0.2378,0.1926,0.1855,0.1806,0.1778,0.1785,0.1119,0.0572,0.0484,-0.149,-0.319,-0.3973,-0.5146,-0.6218,-0.7059,-0.711,-0.7451,-0.8246,-0.7842,-0.7711,-0.814,-0.814,-0.814,-0.8285,-0.9013,-0.9302,-0.9302,-0.9302,-0.9302,-0.9302,-0.9302,-0.9302,-0.9446,-0.9735,-1.0023,-1.0167,-1.0455,-1.0599,-1.0743,-1.1038,-1.1332,-1.1332,-1.1763,-1.2043,-1.2338,-1.2338,-1.276,-1.3325,-1.3468,-1.3531,-1.3842,0.0,0.0,0.0,0.0,0.0,0.0,0.0,1.0476,1.0939,1.1865,1.1618,1.123,1.1145,1.0606,1.0013,0.0,0.0,0.0,0.0,0.0,0.0,0.0,0.0,0.0,0.0,0.0,0.0,0.4971,0.4615,0.0,0.0,0.0,0.0,0.0,0.0,0.4312,0.4312,0.4304,0.0,0.0,0.0,0.0,0.0,0.0,0.0,0.0,0.0,0.4161,0.4365,0.4708,0.4908,0.5071,0.5422,0.5778,0.6047,0.5965,0.6125,0.6329,0.6329,0.5859,0.5379,0.4571,0.3821,0.2968,0.2322,0.1954,0.185,0.1842,0.1772,0.172,0.1749,0.1776,0.1362,0.0588,0.0123,-0.114,-0.4251,-0.4414,-0.5214,-0.825,-0.8159,-0.814,-0.9007,-0.9098,-0.8868,-0.814,-0.814,-0.843,-0.9157,-0.9302,-0.9302,-0.9302,-0.9302,-0.9302,-0.9302,-0.9302,-0.9446,-0.9879,-0.9879,-1.0317,-1.09,-1.09,-1.1188,-1.1476,-1.1907,-1.2051,-1.2051,-1.2474,-1.2753,-1.2753,-1.2753,-1.3039,-1.3325,-1.3753,-1.4039,-1.4449,0.0,0.0,0.0,0.0,0.0,0.0,1.0552,1.067,1.0972,1.201,1.1333,1.0672,1.0415,1.0149,0.9908,0.9658,0.0,0.0,0.0,0.0,0.0,0.0,0.0,0.0,0.0,0.0,0.5173,0.4961,0.4976,0.0,0.0,0.0,0.0,0.0,0.0,0.43,0.43,0.43,0.0,0.0,0.0,0.0,0.0,0.0,0.0,0.0,0.0,0.0,0.4263,0.4508,0.4724,0.4932,0.5186,0.5443,0.5696,0.5929,0.6112,0.613,0.5841,0.5626,0.5111,0.39,0.3402,0.2927,0.2164,0.1921,0.1808,0.179,0.1729,0.1682,0.1695,0.172,0.165,0.1251,0.0,-0.1606,-0.3668,-0.5497,-0.7273,-0.8617,-0.8644,-0.863,-0.9128,-0.9237,-0.9157,-0.8868,-0.8868,-0.9013,-0.9302,-0.9302,-0.9302,-0.9302,-0.959,-0.959,-0.959,-0.9879,-1.0167,-1.0311,-1.0462,-1.0756,-1.1044,-1.1188,-1.1619,-1.1907,-1.2194,-1.2338,-1.2617,-1.2896,-1.3182,-1.3468,-1.3761,-1.4047,-1.4332,-1.4474,-1.5044,-1.5603,0.0,0.0,0.0,0.0,0.0,0.9583,1.0713,1.0735,1.0835,1.1457,1.0829,1.0173,0.9446,0.9365,0.9442,0.9428,0.9553,0.0,0.0,0.0,0.0,0.0,0.0,0.0,0.0,0.0,0.4734,0.4651,0.4952,0.4761,0.0,0.0,0.43,0.43,0.0,0.0,0.0,0.0,0.0,0.0,0.0,0.0,0.0,0.0,0.0,0.0,0.0,0.0,0.0,0.0,0.0,0.452,0.4747,0.4797,0.4867,0.5402,0.5761,0.5785,0.5119,0.4929,0.444,0.3497,0.3007,0.2662,0.2136,0.1896,0.1782,0.1734,0.1677,0.1636,0.1636,0.1659,0.1701,0.177,0.0464,-0.0967,-0.2003,-0.5293,-0.7837,-0.8698,-0.8861,-0.8986,-0.9073,-0.9215,-0.9302,-0.9302,-0.9446,-0.9446,-0.9446,-0.959,-0.959,-0.9446,-0.9879,-1.0023,-1.0023,-1.0311,-1.0599,-1.0599,-1.0894,-1.1188,-1.1332,-1.1619,-1.2051,-1.2474,-1.2624,-1.2904,-1.3325,-1.3611,-1.3904,-1.4332,-1.4759,-1.5186,-1.547,-1.5753,-1.6169,-1.6725,0.0,0.0,0.0,0.0,0.0,0.0,1.0487,1.0638,1.047,1.0144,1.0115,0.968,0.8632,0.8467,0.8623,0.9073,0.9438,0.0,0.0,0.0,0.0,0.0,0.0,0.0,0.0,0.0,0.3899,0.3899,0.4083,0.4173,0.4177,0.4259,0.43,0.43,0.0,0.0,0.0,0.0,0.0,0.0,0.0,0.0,0.0,0.0,0.0,0.0,0.0,0.0,0.0,0.0,0.0,0.0,0.0,0.3736,0.35,0.4375,0.4807,0.4916,0.429,0.3646,0.3228,0.3228,0.2634,0.2048,0.199,0.1883,0.177,0.1681,0.1614,0.1572,0.1572,0.1598,0.1647,0.1735,0.1827,0.1676,0.1001,-0.2451,-0.595,-0.8328,-0.8818,-0.8954,-0.8954,-0.9166,-0.9302,-0.9302,-0.9735,-0.9879,-0.9879,-1.0311,-1.0311,-0.9879,-1.0311,-1.0455,-1.0455,-1.0455,-1.0606,-1.1044,-1.1044,-1.1476,-1.2194,-1.2194,-1.2617,-1.3325,-1.3753,-1.4047,-1.4474,-1.491,-1.5052,-1.5052,-1.5886,-1.616,-1.6301,-1.7439,-1.7861,-1.7861,0.0,0.0,0.0,0.0,0.0,0.0,0.0,1.0143,1.0236,1.0378,0.934,0.8522,0.8424,0.7673,0.753,0.8271,0.8852,0.0,0.0,0.0,0.0,0.0,0.0,0.0,0.0,0.3932,0.3993,0.3993,0.4173,0.423,0.4177,0.4259,0.43,0.43,0.43,0.4251,0.0,0.0,0.0,0.0,0.0,0.0,0.3765,0.0,0.0,0.0,0.0,0.0,0.0,0.0,0.0,0.0,0.0,0.0,0.0,0.3214,0.3635,0.4064,0.3494,0.3315,0.2962,0.2448,0.2126,0.1937,0.1918,0.1805,0.169,0.1641,0.1599,0.1572,0.1572,0.1596,0.164,0.171,0.1459,0.0588,-0.0984,-0.3177,-0.549,-0.8302,-0.8807,-0.9014,-0.9177,-0.9546,-0.9735,-0.9735,-1.0023,-1.0311,-1.0311,-1.0606,-1.075,-1.0311,-1.0606,-1.0894,-1.0894,-1.1038,-1.1476,-1.1763,-1.1763,-1.2043,-1.2617,-1.2617,-1.3047,-1.3753,-1.3904,-1.4189,-1.4901,-1.5186,-1.5744,-1.6169,-1.6734,-1.7298,-1.771,-1.8131,-1.8552,-1.8993,0.0,0.0,0.0,0.0,0.0,0.0,0.0,0.9787,0.9776,0.9843,0.8843,0.8024,0.7781,0.6993,0.6908,0.7827,0.791,0.0,0.0,0.0,0.0,0.0,0.0,0.0,0.3846,0.3936,0.4034,0.4136,0.4279,0.4357,0.4377,0.443,0.4418,0.4349,0.4349,0.4283,0.0,0.0,0.0,0.0,0.0,0.0,0.3765,0.0,0.0,0.0,0.0,0.0,0.0,0.0,0.0,0.0,0.0,0.0,0.0,0.0,0.2592,0.2923,0.2639,0.2583,0.2483,0.211,0.1936,0.1877,0.1842,0.1753,0.1663,0.161,0.1584,0.1572,0.1572,0.1596,0.164,0.1605,0.1342,-0.0234,-0.4071,-0.5459,-0.6666,-0.8553,-0.8861,-0.9046,-0.9424,-0.9735,-1.0023,-1.0167,-1.0455,-1.075,-1.075,-1.1044,-1.1181,-1.0894,-1.1181,-1.1188,-1.1188,-1.1476,-1.1763,-1.2194,-1.2194,-1.2617,-1.3182,-1.3182,-1.3753,-1.4466,-1.4466,-1.5044,0.0,-1.6178,-1.6734,-1.7439,-1.8096,-1.8693,-1.9256,-1.964,-2.0239,-2.0674,0.0,0.0,0.0,0.0,0.0,0.0,0.0,0.954,0.9406,0.8788,0.8666,0.813,0.6784,0.6451,0.6673,0.764,0.0,0.0,0.0,0.0,0.0,0.0,0.0,0.0,0.3781,0.3879,0.405,0.43,0.4402,0.454,0.4708,0.4708,0.4618,0.4455,0.4442,0.4332,0.4153,0.0,0.0,0.0,0.3765,0.3765,0.0,0.0,0.0,0.0,0.0,0.0,0.0,0.0,0.0,0.0,0.0,0.0,0.0,0.0,0.0,0.0,0.0,0.1873,0.1921,0.1921,0.1899,0.1854,0.1768,0.1723,0.0,0.159,0.1572,0.1572,0.1575,0.1598,0.1647,0.163,0.1578,-0.0706,-0.7406,-0.8481,-0.8727,-0.8899,-0.8954,-0.9187,-0.9856,-0.9879,-1.0167,-1.0455,-1.0894,-1.1044,-1.1044,-1.1476,-1.1619,-1.1619,-1.1619,-1.1619,-1.1619,-1.1619,-1.1907,-1.2338,-1.2338,-1.2904,-1.3904,-1.3904,-1.4608,-1.5744,-1.5744,-1.631,-1.7449,-1.7449,-1.7872,-1.8595,-1.9532,-2.019,-2.0663,-2.1783,-2.2312,-2.2561,0.0,0.0,0.0,0.0,0.0,0.0,0.0,0.0,0.0,0.0,0.8134,0.7425,0.718,0.6087,0.5732,0.0,0.0,0.0,0.0,0.0,0.0,0.0,0.0,0.0,0.3969,0.4124,0.4234,0.43,0.4532,0.4667,0.4708,0.4708,0.4687,0.4638,0.45,0.43,0.4063,0.3948,0.0,0.0,0.3374,0.3295,0.0,0.0,0.0,0.0,0.2823,0.2823,0.0,0.0,0.0,0.0,0.0,0.0,0.0,0.0,0.1592,0.1609,0.1684,0.0,0.1827,0.1827,0.1804,0.1776,0.0,0.1692,0.1625,0.158,0.1572,0.1579,0.1602,0.1611,0.155,0.1545,0.1606,-0.0,-0.463,-0.7154,-0.8622,-0.8916,-0.9226,-0.9462,-0.9856,-1.0462,-1.075,-1.0894,-1.1188,-1.1476,-1.1476,-1.1907,-1.2051,-1.2051,-1.233,-1.233,-1.2051,-1.233,-1.2753,-1.3047,-1.3333,-1.3761,-1.4332,-1.4617,-1.5328,-1.6452,-1.6452,-1.7147,-1.8131,-1.8131,-1.866,-1.9532,-1.9884,-2.0591,-2.1795,-2.2001,-2.2312,-2.2612,0.0,0.0,0.0,0.0,0.0,0.0,0.0,0.0,0.0,0.0,0.0,0.7479,0.7138,0.6119,0.0,0.0,0.0,0.0,0.0,0.0,0.0,0.0,0.0,0.3961,0.4095,0.4271,0.4422,0.4545,0.4777,0.4912,0.4953,0.4953,0.4888,0.4757,0.4532,0.4105,0.3695,0.365,0.348,0.3214,0.2904,0.0,0.0,0.0,0.0,0.0,0.251,0.251,0.0,0.2361,0.2144,0.1916,0.0,0.0,0.0,0.0,0.155,0.1579,0.1611,0.1677,0.1734,0.1734,0.1731,0.1726,0.1712,0.1682,0.1652,0.1636,0.1633,0.1639,0.1655,0.0317,-0.0762,-0.0683,-0.0948,-0.2337,-0.5755,-0.7685,-0.8877,-0.9204,-0.9422,-0.9812,-1.0293,-1.075,-1.1044,-1.1332,-1.1619,-1.1907,-1.1907,-1.2187,-1.2474,-1.2474,-1.3047,-1.3039,-1.2474,-1.2896,-1.3182,-1.3611,-1.4315,-1.5035,-1.5461,-1.6028,-1.6734,-1.7429,-1.7429,-1.8044,-1.9138,-1.9279,-1.9991,-2.0947,-2.1222,-2.1931,-2.2815,-2.2942,-2.3126,-2.3562,0.0,0.0,0.0,0.0,0.0,0.0,0.0,0.0,0.0,0.0,0.0,0.0,0.0,0.0,0.0,0.0,0.0,0.0,0.0,0.0,0.0,0.0,0.3903,0.4038,0.421,0.4398,0.4614,0.4855,0.5067,0.521,0.5284,0.5284,0.5116,0.4806,0.4565,0.4028,0.336,0.336,0.3027,0.251,0.2431,0.0,0.0,0.0,0.0,0.0,0.0,0.0,0.0,0.2016,0.1865,0.1861,0.1524,0.0,0.0,0.0,0.0,0.0,0.157,0.1615,0.1663,0.1667,0.1686,0.1699,0.168,0.169,0.1704,0.1704,0.171,0.1609,0.1187,-0.1008,-0.3021,-0.4154,-0.469,-0.5762,-0.8296,-0.8773,-0.9086,-0.9492,-0.976,-1.0179,-1.0887,-1.1044,-1.1332,-1.1619,-1.2051,-1.2194,-1.2338,-1.276,-1.3039,-1.3039,-1.3611,-1.3753,-1.3182,-1.3468,-1.3753,-1.4047,-1.5168,-1.616,-1.6734,-1.758,-1.8131,-1.8552,-1.8724,-1.9279,-2.019,-2.0651,-2.14,-2.2256,-2.2797,-2.3203,-2.3705,-2.3953,-2.4341,-2.4743,0.0,0.0,0.0,0.0,0.0,0.0,0.0,0.0,0.0,0.0,0.0,0.0,0.0,0.0,0.0,0.0,0.0,0.0,0.0,0.0,0.0,0.3989,0.4148,0.4287,0.4393,0.4643,0.483,0.4949,0.5284,0.5455,0.5467,0.5467,0.5202,0.4724,0.4602,0.4176,0.336,0.336,0.3027,0.2431,0.2118,0.0,0.0,0.0,0.0,0.0,0.0,0.0,0.0,0.1432,0.1372,0.1398,0.1355,0.0,0.0,0.0,0.0,0.0,0.1565,0.1615,0.1667,0.1692,0.1701,0.171,0.1731,0.1719,0.1704,0.1704,0.1725,0.0989,-0.1243,-0.0347,-0.107,-0.6836,-0.7832,-0.8029,-0.8568,-0.8963,-0.9359,-0.9492,-1.018,-1.0747,-1.1031,-1.1332,-1.1619,-1.2051,-1.2194,-1.2338,-1.2753,-1.3325,-1.3753,-1.3753,-1.4474,-1.4759,-1.4617,-1.4759,-1.4759,-1.491,-1.6028,-1.6583,-1.6734,-1.7851,-1.8692,-1.9401,-1.9887,-2.0721,-2.15,-2.2007,-2.2557,-2.2822,-2.3019,-2.3318,-2.3979,-2.4327,-2.4784,-2.5332,0.0,0.0,0.0,0.0,0.0,0.0,0.0,0.0,0.0,0.0,0.0,0.0,0.0,0.0,0.0,0.0,0.0,0.0,0.0,0.0,0.4164,0.4104,0.4279,0.4414,0.4508,0.4773,0.5002,0.5194,0.5455,0.5582,0.5578,0.5382,0.5108,0.4769,0.4342,0.3824,0.3025,0.2773,0.2376,0.1806,0.0,0.0,0.0,0.0,0.0,0.0,0.0,0.0,0.0,0.0,0.1325,0.1355,0.1385,0.0,0.0,0.0,0.0,0.0,0.1564,0.1615,0.1568,0.1073,0.0979,0.0993,0.1019,0.057,0.0342,0.0798,0.1377,0.0927,-0.1762,-0.3125,-0.4964,-0.8044,-0.853,-0.8596,-0.8851,-0.9098,-0.9496,-1.004,-1.0665,-1.1116,-1.1325,-1.1619,-1.2051,-1.2194,-1.2617,-1.2904,-1.3325,-1.3904,-1.4332,-1.4474,-1.5044,-1.547,-1.5886,-1.6178,-1.6178,-1.5895,-1.7007,-1.7991,-1.8552,-1.9667,-2.0438,-2.1011,-2.142,-2.1914,-2.2506,-2.2921,-2.3284,-2.3555,-2.3849,-2.4222,-2.4784,-2.6064,-2.6794,-2.7346,0.0,0.0,0.0,0.0,0.0,0.0,0.0,0.0,0.0,0.0,0.0,0.0,0.0,0.0,0.0,0.0,0.0,0.0,0.0,0.4042,0.4117,0.4132,0.4308,0.4487,0.4663,0.4908,0.5181,0.5475,0.5631,0.5696,0.5667,0.5308,0.503,0.4726,0.4164,0.3461,0.2776,0.227,0.1803,0.1335,0.0,0.0,0.0,0.0,0.0,0.0,0.0,0.0,0.0,0.0,0.0,0.0,0.0,0.0,0.0,0.1479,0.1502,0.1534,0.1572,0.1626,0.1479,0.0771,0.0672,0.0455,-0.0117,-0.1075,-0.1572,-0.0722,0.0242,0.0122,-0.2686,-0.6131,-0.8642,-0.864,-0.8607,-0.871,-0.9059,-0.9344,-0.9769,-1.0455,-1.0838,-1.1292,-1.1756,-1.2051,-1.2338,-1.2481,-1.3047,-1.3611,-1.4047,-1.4474,-1.4901,-1.5186,-1.5753,-1.631,-1.6875,-1.7449,-1.758,-1.7298,-1.8325,-1.9329,-2.0332,-2.1451,-2.1998,-2.2294,-2.2716,-2.2972,-2.319,-2.3692,-2.3996,-2.4193,-2.4636,-2.5079,-2.5667,-2.7505,-2.8644,-2.952,0.0,0.0,0.0,0.0,0.0,0.0,0.0,0.0,0.0,0.0,0.0,0.0,0.0,0.0,0.0,0.0,0.0,0.0,0.0,0.3899,0.3854,0.4038,0.4214,0.4508,0.4932,0.5128,0.5398,0.5753,0.5851,0.5855,0.5761,0.5402,0.5092,0.4726,0.4164,0.3461,0.2776,0.227,0.1803,0.1335,0.1335,0.0,0.0,0.0,0.0,0.0,0.0,0.0,0.0,0.0,0.0,0.0,0.0,0.0,0.1444,0.1472,0.1502,0.1539,0.1598,0.1658,0.1731,0.1616,0.1625,0.1037,-0.1404,-0.2768,-0.3429,-0.3013,-0.209,-0.2265,-0.5231,-0.726,-0.8535,-0.8961,-0.8949,-0.8938,-0.9335,-0.9952,-1.0444,-1.0593,-1.1028,-1.1605,-1.2036,-1.2194,-1.2474,-1.3182,-1.3611,-1.4047,-1.4474,-1.5186,-1.5461,-1.5603,-1.6603,-1.7168,-1.7308,-1.8282,-1.8843,-1.8854,-1.991,-2.0592,-2.104,-2.2007,-2.2561,-2.2574,-2.3313,-2.3601,-2.364,-2.4195,-2.4475,-2.4636,-2.4931,-2.5667,-2.6531,-2.8099,-2.9806,-3.1508,0.0,0.0,0.0,0.0,0.0,0.0,0.0,0.0,0.0,0.0,0.0,0.0,0.0,0.0,0.0,0.0,0.0,0.0,0.0,0.4016,0.4117,0.4189,0.4316,0.4569,0.4965,0.5153,0.5394,0.5696,0.5786,0.5786,0.5688,0.5328,0.5071,0.4908,0.3895,0.3233,0.2883,0.1957,0.1488,0.1284,0.1265,0.1335,0.0,0.0,0.0,0.0,0.0,0.0,0.0,0.0,0.1322,0.1352,0.1381,0.1411,0.1445,0.1494,0.1543,0.1492,0.1531,0.0432,-0.0457,0.082,0.1207,0.062,-0.1636,-0.3949,-0.539,-0.4458,-0.4585,-0.5369,-0.7203,-0.7889,-0.848,-0.903,-0.8921,-0.9133,-0.982,-1.0066,-1.0489,-1.0856,-1.1294,-1.1592,-1.218,-1.2474,-1.2904,-1.3611,-1.4047,-1.4474,-1.5186,-1.5886,-1.6452,-1.6603,-1.758,-1.8272,-1.8971,-1.9689,-2.0473,-2.1315,-2.1003,-2.142,-2.2459,-2.3027,-2.33,-2.3602,-2.405,-2.4182,-2.4182,-2.4449,-2.4636,-2.4636,-2.5359,-2.6517,-2.8099,-2.9806,-3.1508,-3.3206,0.0,0.0,0.0,0.0,0.0,0.0,0.0,0.0,0.0,0.0,0.0,0.0,0.0,0.0,0.0,0.0,0.0,0.0,0.4097,0.4073,0.4176,0.4246,0.4373,0.4577,0.4883,0.5096,0.5345,0.5643,0.5708,0.5692,0.5594,0.5263,0.5075,0.5002,0.3726,0.3085,0.2978,0.1807,0.1331,0.1299,0.1269,0.1335,0.0,0.0,0.0,0.0,0.0,0.0,0.0,0.0,0.1324,0.1341,0.1389,0.1412,0.1436,0.1411,0.1373,0.1323,0.1572,0.0333,-0.1291,-0.2036,-0.211,-0.2441,-0.3798,-0.5796,-0.6981,-0.6145,-0.6766,-0.7642,-0.8381,-0.8397,-0.8587,-0.9234,-0.9275,-0.938,-1.0228,-1.0426,-1.0699,-1.1124,-1.1532,-1.1818,-1.2316,-1.2904,-1.3468,-1.4047,-1.4617,-1.5186,-1.5886,-1.6593,-1.7157,-1.758,-1.8487,-1.9363,-2.0204,-2.0886,-2.179,-2.3014,-2.2459,-2.2691,-2.3758,-2.3905,-2.4183,-2.4634,-2.4703,-2.4636,-2.4784,-2.4636,-2.4784,-2.5065,-2.6078,-2.752,-2.9091,-3.1367,-3.291,-3.4057,0.0,0.0,0.0,0.0,0.0,0.0,0.0,0.0,0.7456,0.7456,0.6203,0.0,0.0,0.0,0.0,0.0,0.0,0.0,0.4157,0.4038,0.3981,0.4165,0.434,0.452,0.4704,0.4969,0.5279,0.5643,0.5643,0.5594,0.55,0.523,0.5108,0.5092,0.3746,0.3111,0.304,0.1818,0.1331,0.1301,0.1269,0.1335,0.1335,0.0,0.0,0.0,0.0,0.0,0.0,0.0,0.1328,0.1318,0.1407,0.1416,0.1411,0.1406,0.1079,0.0818,0.1403,0.1572,-0.0117,-0.686,-0.8626,-0.8557,-0.8383,-0.8312,-0.8149,-0.8263,-0.8334,-0.8508,-0.8642,-0.8845,-0.9021,-0.9653,-0.9877,-1.0104,-1.0493,-1.0885,-1.1234,-1.1262,-1.1855,-1.2395,-1.2723,-1.3468,-1.4047,-1.4474,-1.5186,-1.5886,-1.6734,-1.7168,-1.7721,-1.8412,-1.9346,-2.0048,-2.0474,-2.1901,-2.2908,-2.3614,-2.4063,-2.4485,-2.4774,-2.4649,-2.5079,-2.58,-2.4918,-2.4784,-2.5226,-2.4784,-2.5065,-2.5932,-2.7505,-2.8501,-2.952,-3.263,-3.378,-3.4057,0.0,0.0,0.0,0.0,0.0,0.0,0.0,0.0,0.6728,0.6728,0.5484,0.0,0.0,0.0,0.0,0.0,0.0,0.0,0.4205,0.4095,0.4075,0.4255,0.4373,0.4459,0.4516,0.4777,0.5096,0.5459,0.552,0.5471,0.532,0.5173,0.5039,0.4802,0.3603,0.3111,0.2948,0.1846,0.1361,0.1332,0.1302,0.1276,0.1335,0.0,0.0,0.0,0.0,0.0,0.0,0.0,0.0,0.0,0.0873,0.0884,0.0984,0.1294,0.1274,0.104,0.065,-0.1043,-0.3574,-0.7561,-0.8486,-0.8485,-0.8416,-0.8306,-0.8399,-0.8648,-0.8648,-0.8817,-0.9127,-0.9221,-0.9362,-0.9907,-1.0012,-1.0267,-1.0899,-1.1185,-1.1496,-1.1964,-1.2234,-1.2803,-1.3452,-1.3753,-1.4324,-1.5177,-1.6028,-1.6593,-1.7168,-1.8432,-1.9226,-1.9509,-2.0484,-2.1341,-2.1914,-2.262,-2.3246,-2.4063,-2.4555,-2.4956,-2.5089,-2.5038,-2.5373,-2.58,-2.5226,-2.5226,-2.5653,-2.5226,-2.552,-2.6385,-2.765,-2.9218,-3.1084,-3.3067,-3.4471,-3.5451,0.0,0.0,0.0,0.0,0.0,0.0,0.8117,0.712,0.6268,0.5997,0.502,0.43,0.0,0.0,0.0,0.4267,0.4065,0.404,0.4227,0.4129,0.4116,0.4291,0.4385,0.4451,0.4487,0.4683,0.4892,0.5116,0.5271,0.5296,0.519,0.5132,0.5051,0.4834,0.3669,0.3184,0.3022,0.1887,0.1392,0.1362,0.1332,0.1302,0.1276,0.0,0.0,0.0,0.0,0.0,0.0,0.0,0.0,0.0,0.0519,0.0436,0.0088,-0.1773,-0.229,-0.2226,-0.1668,-0.299,-0.5076,-0.7723,-0.8525,-0.8682,-0.8756,-0.861,-0.8576,-0.8828,-0.9003,-0.9215,-0.9497,-0.9657,-0.9837,-1.0478,-1.0471,-1.0767,-1.1445,-1.1821,-1.2248,-1.2335,-1.3013,-1.3568,-1.388,-1.4324,-1.5035,-1.6028,-1.6593,-1.7339,-1.8269,-1.9402,-2.0094,-2.0495,-2.1486,-2.2211,-2.279,-2.3203,-2.3784,-2.4674,-2.4997,-2.5373,-2.5667,-2.552,-2.5814,-2.6239,-2.5814,-2.5653,-2.58,-2.5506,-2.6239,-2.739,-2.8788,-3.0484,-3.263,-3.4195,-3.5177,-3.6016,0.0,0.0,0.0,0.0,0.0,0.0,0.7587,0.6859,0.6137,0.5404,0.4694,0.43,0.0,0.0,0.0,0.4317,0.4172,0.4091,0.4307,0.41,0.4112,0.4279,0.4365,0.4459,0.4557,0.4643,0.4687,0.4696,0.4965,0.5092,0.5084,0.4994,0.499,0.4958,0.378,0.3185,0.3112,0.1927,0.1414,0.1384,0.1355,0.1325,0.1298,0.1298,0.0,0.0,0.0,0.0,0.0,0.0,0.0,0.0,0.0257,0.0,-0.0948,-0.581,-0.7566,-0.7367,-0.4947,-0.4664,-0.5518,-0.7592,-0.8625,-0.9287,-0.927,-0.9124,-0.8985,-0.9123,-0.9416,-0.9552,-0.9819,-1.0143,-1.0412,-1.0925,-1.1155,-1.1437,-1.1993,-1.2704,-1.2974,-1.2757,-1.3932,-1.471,-1.4164,-1.5035,-1.6028,-1.6734,-1.7319,-1.8269,-1.9895,-2.0094,-2.0519,-2.151,-2.2202,-2.279,-2.307,-2.3767,-2.4341,-2.5226,-2.5226,-2.5667,-2.6385,-2.5946,-2.6239,-2.6983,-2.6546,-2.6239,-2.58,-2.5946,-2.7085,-2.8947,-3.0484,-3.2193,-3.3918,-3.5451,-3.6016,-3.6016,0.0,0.0,0.0,0.0,0.0,0.0,0.7587,0.6859,0.6137,0.5404,0.4694,0.43,0.43,0.43,0.0,0.4425,0.4288,0.4273,0.4409,0.4298,0.4248,0.4193,0.4218,0.4304,0.4463,0.4483,0.4528,0.4602,0.4871,0.4965,0.4896,0.4519,0.4268,0.409,0.307,0.2518,0.2432,0.1696,0.1384,0.1354,0.1324,0.1294,0.1266,0.1266,0.1327,0.0,0.0,0.0,0.0,0.0,0.0,0.0,0.0085,0.0,-0.0261,-0.136,-0.4895,-0.8295,-0.7287,-0.7391,-0.7965,-0.8483,-0.8937,-0.9264,-0.9506,-0.9646,-0.9793,-0.9761,-0.9806,-1.0,-1.0478,-1.0809,-1.0975,-1.1205,-1.149,-1.1969,-1.2799,-1.3086,-1.353,-1.417,-1.4753,-1.5283,-1.6018,-1.631,-1.6866,-1.7991,-1.8867,-1.9566,-1.9906,-2.1162,-2.2007,-2.2226,-2.2928,-2.3362,-2.3806,-2.3857,-2.4341,-2.5226,-2.552,-2.5946,-2.6399,-2.6239,-2.6399,-2.6546,-2.6838,-2.6692,-2.6385,-2.752,-2.8516,-2.9377,-3.1755,-3.3188,-3.3918,-3.5451,-3.6016,-3.6016,0.0,0.0,0.0,0.0,0.0,0.0,0.0,0.0,0.5609,0.4888,0.4495,0.43,0.43,0.4349,0.0,0.0,0.4421,0.4392,0.4372,0.4362,0.4261,0.4226,0.4234,0.4275,0.4369,0.4332,0.4353,0.4442,0.4581,0.4671,0.4712,0.4246,0.4014,0.3868,0.2928,0.24,0.2218,0.161,0.1395,0.1366,0.1336,0.1306,0.1279,0.1279,0.1338,0.1234,0.1002,0.0,0.0,0.0,0.0,0.0,0.0,0.0,0.0,0.0,-0.4127,-0.8596,-0.8407,-0.8515,-0.8811,-0.9246,-0.9336,-0.9538,-0.991,-1.0203,-1.0514,-1.0326,-1.034,-1.0491,-1.0836,-1.1115,-1.138,-1.1909,-1.2242,-1.2751,-1.3604,-1.407,-1.4397,-1.4877,-1.5548,-1.632,-1.6734,-1.7147,-1.7991,-1.9111,-1.9758,-2.0533,-2.109,-2.2224,-2.2802,-2.294,-2.3375,-2.3896,-2.4341,-2.4488,-2.4931,-2.5814,-2.5946,-2.6239,-2.6692,-2.6692,-2.6692,-2.6692,-2.6838,-2.6838,-2.6838,-2.8388,-2.952,-3.0518,-3.263,-3.4038,-3.4902,-3.5743,-3.6016,-3.6016,0.0,0.0,0.0,0.0,0.0,0.0,0.0,0.0,0.0,0.4367,0.43,0.4306,0.4327,0.4414,0.4485,0.0,0.0,0.0,0.4325,0.4263,0.4274,0.4271,0.4275,0.4283,0.43,0.4218,0.4214,0.43,0.4267,0.4353,0.4553,0.4075,0.3784,0.3715,0.2711,0.2298,0.2126,0.1623,0.1412,0.1388,0.1359,0.1333,0.131,0.131,0.1291,0.1264,0.1337,0.0726,0.0,0.0,0.0,0.0,0.0,0.0,-0.0248,-0.0268,-0.3884,-0.7959,-0.796,-0.8278,-0.8836,-0.9582,-0.9748,-0.987,-1.0215,-1.0628,-1.0918,-1.092,-1.0836,-1.0982,-1.1115,-1.138,-1.1776,-1.2708,-1.3087,-1.3654,-1.4692,-1.5147,-1.5487,-1.5584,-1.6744,-1.7439,-1.7288,-1.8131,-1.9262,-2.0423,-2.0814,-2.1505,-2.2819,-2.3233,-2.349,-2.3735,-2.4031,-2.4488,-2.4784,-2.5079,-2.5667,-2.6399,-2.6546,-2.6692,-2.6983,-2.6983,-2.6983,-2.6983,-2.7274,-2.742,-2.755,-2.925,-3.0801,-3.207,-3.3623,-3.4902,-3.6016,-3.6016,-3.6016,-3.6016,0.0,0.0,0.0,0.0,0.0,0.0,0.0,0.0,0.0,0.0,0.43,0.4338,0.4436,0.4463,0.4556,0.4768,0.4742,0.4696,0.4508,0.0,0.0,0.4185,0.4189,0.4226,0.4295,0.4218,0.4214,0.43,0.4144,0.4202,0.4366,0.3569,0.3203,0.3049,0.2103,0.1608,0.1569,0.1421,0.1393,0.1388,0.1359,0.1261,0.1258,0.1258,0.1324,0.1294,0.1266,0.071,0.0,0.0,0.0,0.0,0.0,0.0,-0.1151,-0.1212,-0.2782,-0.448,-0.4436,-0.5983,-0.8049,-0.9193,-0.9929,-1.0222,-1.0482,-1.0799,-1.1012,-1.1293,-1.1548,-1.1512,-1.1247,-1.1909,-1.2568,-1.2832,-1.3375,-1.4307,-1.576,-1.5982,-1.6559,-1.7798,-1.8422,-1.8982,-1.9529,-2.0074,-2.0865,-2.2383,-2.2666,-2.3236,-2.3957,-2.4542,-2.4864,-2.4904,-2.5345,-2.5653,-2.5653,-2.5653,-2.5946,-2.6399,-2.6692,-2.6983,-2.6983,-2.6983,-2.6983,-2.7129,-2.8403,-2.8963,-2.9107,-3.193,-3.3345,-3.3623,-3.5177,-3.5879,-3.6016,-3.6016,-3.6016,-3.6016,0.0,0.0,0.0,0.0,0.0,0.0,0.0,0.0,0.0,0.0,0.0,0.4442,0.4632,0.4632,0.4719,0.4822,0.4898,0.4774,0.4532,0.4263,0.4085,0.4091,0.4095,0.4091,0.4075,0.4038,0.4063,0.4153,0.4022,0.4124,0.4342,0.3313,0.2959,0.2995,0.1921,0.1452,0.1452,0.1392,0.1376,0.1388,0.1359,0.1282,0.1306,0.102,0.0935,0.0858,0.0672,0.0331,0.0,0.0,-0.033,-0.0734,-0.0744,0.0,0.0,0.0,-0.1827,-0.288,-0.5131,-0.6709,-0.8108,-0.9574,-1.0161,-1.0406,-1.0678,-1.1104,-1.1652,-1.1782,-1.2319,-1.2576,-1.2173,-1.2437,-1.2964,-1.3621,-1.4367,-1.53,-1.6161,-1.6695,-1.7423,-1.844,-1.9048,-1.9657,-2.034,-2.1331,-2.2179,-2.3007,-2.3728,-2.4323,-2.4891,-2.5326,-2.5639,-2.58,-2.6093,-2.6385,-2.6808,-2.6823,-2.6969,-2.7405,-2.7565,-2.7565,-2.7565,-2.742,-2.7274,-2.7129,-2.8532,-2.925,-2.9377,-3.2491,-3.378,-3.3918,-3.5451,-3.6016,-3.6016,-3.6016,-3.6016,-3.6016,0.0,0.0,0.0,0.0,0.0,0.0,0.0,0.0,0.0,0.0,0.0,0.4561,0.4686,0.0,0.0,0.0,0.4963,0.4815,0.4499,0.4268,0.407,0.3997,0.4001,0.3969,0.3899,0.3854,0.3887,0.4001,0.3912,0.405,0.4398,0.3361,0.2933,0.2954,0.1859,0.1403,0.1421,0.1377,0.1376,0.1401,0.1396,0.1419,0.1364,0.107,0.0721,0.0369,0.009,0.0,0.0,0.0,-0.0589,-0.1305,-0.132,-0.1051,0.0,0.0,0.0,-0.2038,-0.5435,-0.6508,-0.7316,-0.9239,-0.9861,-1.0149,-1.0811,-1.1606,-1.2106,-1.2242,-1.2905,-1.343,-1.3421,-1.3325,-1.349,-1.453,-1.5327,-1.6115,-1.6838,-1.7572,-1.8339,-1.9255,-1.9894,-2.0585,-2.1269,-2.2318,-2.3367,-2.3936,-2.4786,-2.551,-2.5883,-2.6256,-2.6531,-2.6823,-2.6823,-2.7114,-2.7695,-2.7695,-2.784,-2.813,-2.813,-2.813,-2.813,-2.8114,-2.797,-2.784,-2.925,-2.9949,-3.0518,-3.3206,-3.4333,-3.4471,-3.5587,-3.6016,-3.6016,-3.6016,-3.6016,-3.6016,0.0,0.0,0.0,0.0,0.0,0.0,0.0,0.0,0.0,0.0,0.0,0.4692,0.4811,0.4828,0.4882,0.4996,0.5012,0.4862,0.4467,0.416,0.3972,0.3903,0.3908,0.0,0.3899,0.3728,0.3728,0.3908,0.3814,0.3952,0.4304,0.3685,0.3288,0.2954,0.1859,0.1391,0.1392,0.1389,0.1406,0.1438,0.1494,0.1519,0.1431,0.168,0.1003,0.0,0.0,0.0,0.0,0.0,-0.0581,-0.1298,-0.1271,-0.126,-0.1264,0.0,0.0,0.0,-0.3291,-0.3898,-0.4651,-0.7618,-0.8567,-0.9252,-1.1009,-1.194,-1.232,-1.2699,-1.3225,-1.3868,-1.4766,-1.4669,-1.453,-1.5183,-1.5714,-1.6588,-1.8519,-1.9037,-1.9831,-2.1032,-2.1705,-2.2402,-2.3107,-2.3566,-2.4385,-2.5684,-2.6171,-2.6746,-2.7505,-2.784,-2.7985,-2.7985,-2.7985,-2.7985,-2.813,-2.813,-2.813,-2.813,-2.813,-2.813,-2.813,-2.925,-2.9663,-2.9663,-3.0943,-3.2211,-3.3623,-3.5177,-3.5879,-3.5879,-3.6016,-3.6016,-3.6016,-3.6016,-3.6016,-3.6016,0.0,0.0,0.0,0.0,0.0,0.0,0.0,0.0,0.0,0.0,0.0,0.0,0.0,0.5175,0.5165,0.5127,0.5061,0.4857,0.4462,0.425,0.4079,0.3724,0.3671,0.3618,0.3556,0.3548,0.3577,0.3642,0.3667,0.383,0.4128,0.328,0.2898,0.2837,0.2155,0.1714,0.1389,0.137,0.1381,0.1415,0.1494,0.155,0.1588,0.1427,0.1252,0.106,0.0311,0.0,-0.0,-0.037,-0.062,-0.093,-0.1221,-0.1286,-0.1284,-0.1276,-0.1324,-0.1656,-0.3197,-0.3801,-0.4482,-0.6659,-0.8111,-0.9281,-1.0578,-1.1736,-1.2868,-1.3758,-1.4373,-1.4938,-1.5594,-1.5394,-1.5313,-1.6224,-1.713,-1.7984,-1.89,-1.9674,-2.0567,-2.1962,-2.2255,-2.2902,-2.4233,-2.4875,-2.5596,-2.6599,-2.7251,-2.7575,-2.784,-2.7985,-2.8274,-2.8418,-2.8563,-2.8454,-2.8522,-2.8303,-2.8178,-2.8178,-2.8178,-2.8599,-2.9576,-2.9806,-3.0869,-3.2672,-3.2802,-3.3345,-3.3918,-3.5451,-3.6016,-3.6016,-3.6016,-3.6016,-3.6016,-3.6016,-3.6016,-3.6152,0.0,0.0,0.0,0.0,0.0,0.0,0.0,0.0,0.6013,0.6013,0.0,0.0,0.0,0.0,0.5322,0.5197,0.5083,0.4857,0.4462,0.4256,0.4045,0.3626,0.3516,0.3426,0.3434,0.3393,0.3422,0.3454,0.354,0.3615,0.3656,0.3063,0.2706,0.2545,0.224,0.1839,0.1374,0.1356,0.1371,0.1415,0.1411,0.1479,0.1637,0.1371,0.152,0.1776,0.0982,0.0637,0.0614,-0.0099,-0.0287,-0.0458,-0.1118,-0.1326,-0.1296,-0.1266,-0.1286,-0.1577,-0.2664,-0.3118,-0.3746,-0.5793,-0.7116,-0.8311,-1.0393,-1.1651,-1.275,-1.4105,-1.5005,-1.5704,-1.6224,-1.6353,-1.6732,-1.7389,-1.8162,-1.8887,-1.954,-2.0459,-2.1358,-2.2499,-2.2916,-2.376,-2.5221,-2.5886,-2.6602,-2.7748,-2.8187,-2.8535,-2.8535,-2.8569,-2.8506,-2.8491,-2.8491,-2.8523,-2.8583,-2.8344,-2.8217,-2.8217,-2.8217,-2.8972,-3.0343,-3.0581,-3.1979,-3.4195,-3.4614,-3.4609,-3.4609,-3.5606,-3.6016,-3.6016,-3.6016,-3.6016,-3.6016,-3.6539,-3.6674,-3.6944,0.0,0.0,0.0,0.0,0.0,0.0,0.6993,0.6324,0.5907,0.5901,0.0,0.0,0.0,0.0,0.0,0.5203,0.5089,0.4862,0.4462,0.4189,0.3971,0.3614,0.345,0.3426,0.3426,0.3267,0.3267,0.3426,0.345,0.3393,0.3099,0.3175,0.2777,0.2025,0.1983,0.1692,0.1263,0.1348,0.1382,0.1353,0.1152,0.1308,0.1674,0.1764,0.1932,0.1957,0.1925,0.1913,0.1786,0.0849,0.0417,0.0205,-0.1021,-0.1376,-0.1298,-0.1268,-0.1337,-0.1343,0.0,0.0,0.0,-0.4814,-0.5439,-0.6317,-1.0296,-1.1401,-1.2075,-1.3815,-1.5177,-1.6244,-1.6882,-1.7916,-1.8559,-1.8688,-1.8676,-1.9157,-2.0734,-2.1542,-2.223,-2.2928,-2.3919,-2.4905,-2.5959,-2.6424,-2.7382,-2.9171,-2.9216,-2.9163,-2.9288,-2.9241,-2.8907,-2.8217,-2.8217,-2.8217,-2.8217,-2.8201,-2.8186,-2.8186,-2.8186,-2.907,-3.0527,-3.1633,-3.2947,-3.4433,-3.5957,-3.6403,-3.6016,-3.6016,-3.6016,-3.6016,-3.6016,-3.6016,-3.6287,-3.7595,-3.8109,-3.8374,0.0,0.0,0.0,0.0,0.0,0.8593,0.7545,0.7001,0.646,0.0,0.0,0.0,0.5583,0.5534,0.5453,0.5328,0.5208,0.4941,0.4467,0.4189,0.3912,0.3438,0.3262,0.3164,0.3164,0.314,0.314,0.3164,0.3324,0.3272,0.2863,0.2645,0.2336,0.1856,0.1591,0.1462,0.1317,0.1339,0.1122,0.0814,0.1286,0.1673,0.1847,0.185,0.1684,0.1476,0.1469,0.1688,0.2005,0.1609,0.0662,-0.0625,-0.1232,-0.1319,-0.1329,-0.1299,-0.1275,-0.1338,-0.1743,0.0,0.0,0.0,0.0,0.0,-0.8807,-1.0981,-1.294,-1.3916,-1.5303,-1.6481,-1.7128,-1.8177,-1.909,-1.9881,-1.9964,-2.0323,-2.0864,-2.1804,-2.2613,-2.3328,-2.451,-2.5614,-2.6328,-2.7539,-2.8451,-2.9184,-2.9257,-2.9346,-2.933,-2.8834,-2.8355,-2.8217,-2.7995,-2.7868,-2.7868,-2.7614,-2.8008,-2.9059,-2.9059,-3.0425,-3.3068,-3.3501,-3.4547,-3.6196,-3.6649,-3.6944,-3.6809,-3.6539,-3.6268,-3.6016,-3.6016,-3.6674,-3.7595,-3.7975,-3.8772,-3.9801,0.0,0.0,0.9798,0.9412,0.9419,0.9128,0.8031,0.7421,0.6814,0.0,0.0,0.0,0.573,0.5714,0.5632,0.5458,0.5333,0.5031,0.4472,0.4189,0.3889,0.3438,0.3189,0.3091,0.3091,0.3054,0.3034,0.3034,0.3177,0.3115,0.271,0.2438,0.2087,0.1718,0.1383,0.1273,0.1322,0.134,0.1129,0.0915,0.1194,0.1476,0.1653,0.1884,0.1838,0.1501,0.1636,0.188,0.2105,0.1817,0.0802,-0.0427,-0.1206,-0.1402,-0.1306,-0.1337,-0.1301,-0.1353,-0.1655,-0.195,-0.2297,-0.2939,0.0,0.0,-0.8036,-1.0062,-1.1939,-1.3743,-1.5206,-1.6357,-1.7192,-1.8109,-1.9169,-2.0194,-2.0695,-2.1107,-2.1265,-2.1957,-2.2738,-2.3434,-2.4771,-2.5922,-2.6588,-2.7626,-2.864,-2.9319,-2.9187,-2.9038,-2.889,-2.8212,-2.7804,-2.7804,-2.7614,-2.7518,-2.7518,-2.783,-2.8493,-2.9265,-3.0075,-3.1781,-3.4167,-3.4351,-3.5441,-3.6963,-3.7226,-3.7213,-3.7079,-3.6944,-3.6809,-3.6539,-3.7059,-3.7822,-3.8618,-3.9779,-4.0817,-4.1715,0.0,0.0,1.0048,0.9331,0.9601,0.9563,0.8552,0.7758,0.714,0.0,0.6129,0.5648,0.5741,0.5844,0.5812,0.5502,0.5458,0.5125,0.4511,0.4213,0.3903,0.3451,0.3193,0.3087,0.3075,0.3059,0.3009,0.3001,0.303,0.2891,0.2584,0.2384,0.2069,0.1671,0.1387,0.1235,0.1259,0.1354,0.1323,0.1222,0.1094,0.1051,0.1221,0.1778,0.1964,0.1999,0.202,0.2176,0.2063,0.1623,0.0942,0.011,-0.0969,-0.1314,-0.1301,-0.1304,-0.1343,-0.1314,-0.1597,-0.1877,-0.2284,-0.3117,-0.3322,0.0,-0.7744,-0.895,-1.022,-1.3216,-1.4818,-1.5885,-1.6957,-1.7966,-1.8875,-1.9827,-2.086,-2.143,-2.1496,-2.2194,-2.2832,-2.3378,-2.4701,-2.5916,-2.6512,-2.7301,-2.8245,-2.9204,-2.8939,-2.8609,-2.8147,-2.76,-2.72,-2.72,-2.72,-2.72,-2.7334,-2.8625,-2.9526,-2.9657,-3.1465,-3.3048,-3.4668,-3.5117,-3.5969,-3.7348,-3.7616,-3.7616,-3.7348,-3.7616,-3.7616,-3.7461,-3.8597,-3.9235,-3.9866,-4.2328,-4.3357,-4.363,1.0443,1.0352,1.0215,1.0048,1.0426,1.046,0.9489,0.8708,0.8002,0.73,0.6447,0.5953,0.5877,0.5888,0.585,0.5708,0.541,0.5109,0.4651,0.421,0.3786,0.3479,0.3226,0.3054,0.3043,0.3026,0.2919,0.285,0.294,0.2896,0.2581,0.253,0.2211,0.1699,0.1625,0.1476,0.1316,0.1388,0.1299,0.1197,0.1455,0.1647,0.1869,0.1964,0.205,0.2117,0.2098,0.2095,0.2219,0.188,0.1334,0.0587,0.0111,-0.032,-0.0613,-0.1215,-0.136,-0.1429,-0.1771,-0.2003,-0.2293,-0.3266,-0.4286,0.0,-0.7441,-0.9151,-1.0704,-1.2123,-1.349,-1.4888,-1.6123,-1.7051,-1.8105,-1.9588,-2.0209,-2.0655,-2.1122,-2.2249,-2.2986,-2.3112,-2.4893,-2.6084,-2.6222,-2.7701,-2.859,-2.8494,-2.8411,-2.808,-2.7467,-2.7334,-2.72,-2.72,-2.72,-2.7467,-2.813,-2.9134,-3.0549,-3.2237,-3.3553,-3.514,-3.7147,-3.7369,-3.7957,-3.8814,-3.8814,-3.8814,-3.8814,-3.8814,-3.8772,-3.8708,-3.8972,-4.0386,-4.2454,-4.2981,-4.3903,-4.4939,1.0519,1.0242,1.0218,1.0573,1.0832,1.0721,1.0077,0.9313,0.8442,0.7444,0.662,0.6132,0.6007,0.6051,0.6013,0.5833,0.562,0.5216,0.4713,0.4423,0.3989,0.3507,0.3324,0.3164,0.3026,0.2936,0.287,0.2826,0.287,0.2855,0.2718,0.2645,0.2548,0.2379,0.2213,0.2019,0.183,0.1601,0.1411,0.1421,0.1699,0.1913,0.2038,0.2007,0.2079,0.2132,0.2132,0.2123,0.2102,0.2059,0.1744,0.132,0.0581,0.0112,-0.032,-0.1001,-0.1356,-0.1412,-0.168,-0.1882,-0.2119,-0.2714,-0.3615,0.0,0.0,-0.8421,-1.0051,-1.149,-1.3028,-1.4335,-1.5233,-1.6251,-1.7366,-1.8607,-1.9506,-2.0077,-2.0359,-2.1645,-2.2622,-2.279,-2.439,-2.5443,-2.5611,-2.6862,-2.7733,-2.7733,-2.7733,-2.76,-2.72,-2.72,-2.7334,-2.7733,-2.7733,-2.8378,-2.9543,-3.0696,-3.2091,-3.3379,-3.5321,-3.6663,-3.7593,-3.827,-3.8866,-3.921,-3.921,-3.921,-3.921,-3.9953,-4.0559,-4.1158,-4.1158,-4.2431,-4.4326,-4.4964,-4.5622,-4.6276,1.0519,1.0262,1.0186,1.081,1.095,1.0868,1.0583,0.9822,0.8914,0.7944,0.7343,0.6985,0.6906,0.6991,0.6955,0.6714,0.6599,0.6143,0.5261,0.5032,0.4598,0.3663,0.3499,0.3344,0.3197,0.3005,0.2879,0.2826,0.2826,0.2834,0.2858,0.2766,0.2896,0.3044,0.2847,0.2611,0.2302,0.1845,0.1638,0.1651,0.1965,0.2081,0.1958,0.2041,0.2095,0.2129,0.2148,0.2139,0.2117,0.2112,0.2049,0.1848,0.0977,0.0471,0.0224,-0.0749,-0.1236,-0.1485,-0.1487,-0.1777,-0.2077,-0.2279,-0.295,-0.4086,0.0,0.0,0.0,-1.1035,-1.2563,-1.3768,-1.4378,-1.5475,-1.6445,-1.745,-1.8523,-1.9319,-1.9306,-2.0592,-2.1821,-2.237,-2.3739,-2.4695,-2.4909,-2.6002,-2.6787,-2.7073,-2.7232,-2.728,-2.72,-2.7467,-2.7981,-2.851,-2.8905,-2.9787,-3.1322,-3.26,-3.3631,-3.4258,-3.6708,-3.7806,-3.7615,-3.8784,-3.9341,-3.9473,-3.9735,-3.9866,-3.9844,-4.1203,-4.258,-4.3731,-4.3606,-4.4449,-4.5693,-4.6824,-4.7205,-4.7205,1.0519,1.0406,1.0347,1.0627,1.0842,1.1079,1.1176,1.0603,1.0012,0.9542,0.9581,0.9657,0.98,0.9935,0.9965,0.967,0.953,0.8713,0.6938,0.649,0.5632,0.4297,0.3814,0.3585,0.3565,0.3311,0.3066,0.2826,0.2826,0.2866,0.3005,0.3054,0.3025,0.305,0.3248,0.2918,0.2266,0.2369,0.2195,0.1854,0.256,0.2557,0.2016,0.2079,0.2139,0.2187,0.2163,0.2153,0.2146,0.2119,0.2119,0.2116,0.1909,0.1768,0.1374,-0.0343,-0.1317,-0.1704,-0.1787,-0.1915,-0.2155,-0.2951,-0.3846,-0.5003,-0.6656,0.0,-0.8916,-1.0386,0.0,-1.226,-1.3445,0.0,0.0,-1.6184,-1.7103,-1.7719,-1.7865,-1.9041,-2.0327,-2.1661,-2.345,-2.4512,-2.4253,-2.572,-2.6692,-2.6724,-2.7312,-2.7534,-2.7216,-2.8625,-2.9509,-2.9639,-3.1047,-3.22,-3.298,-3.4113,-3.4984,-3.5644,-3.7463,-3.8312,-3.8608,-3.9325,-3.9888,-4.0279,-4.1399,-4.1911,-4.2038,-4.3357,-4.4596,-4.5839,-4.5208,-4.5814,-4.6942,-4.7205,-4.7205,-4.7298,1.0519,1.0383,1.0395,1.0746,1.081,1.0783,1.0767,1.0213,0.9837,0.9896,1.012,0.9991,0.9429,0.9362,0.9421,0.9452,0.9257,0.8831,0.766,0.733,0.634,0.4586,0.4122,0.3867,0.3707,0.3495,0.3303,0.314,0.3083,0.305,0.3038,0.3234,0.3447,0.3557,0.3886,0.3779,0.3439,0.3234,0.287,0.244,0.2411,0.2529,0.2784,0.2771,0.2535,0.2307,0.2697,0.2827,0.2823,0.2807,0.2252,0.1705,0.1689,0.1294,0.064,-0.0,-0.0952,-0.1858,-0.1866,-0.1575,-0.1517,-0.2357,-0.3155,-0.4173,-0.5835,-0.7253,-0.8717,-1.011,0.0,0.0,0.0,0.0,0.0,0.0,-1.5979,-1.6664,-1.7319,-1.8489,-1.9837,-2.1317,-2.2482,-2.3386,-2.4076,-2.5502,-2.6665,-2.7074,-2.8063,-2.8824,-2.9456,-3.0406,-3.1176,-3.1817,-3.2454,-3.3466,-3.4736,-3.5232,-3.5871,-3.6929,-3.7989,-3.8738,-3.9042,-3.9715,-4.0517,-4.1527,-4.2038,-4.2776,-4.3731,-4.5061,-4.6055,-4.6773,-4.7272,-4.7534,-4.7821,-4.7821,-4.8236,-4.8789,1.053,1.0368,1.033,1.0773,1.0702,1.0647,1.0771,1.0501,1.052,1.0914,1.1191,1.1098,1.0417,1.0409,1.0534,1.0514,1.0509,1.0168,0.9305,0.8628,0.7661,0.6132,0.5056,0.4528,0.4646,0.3969,0.354,0.3401,0.3332,0.3254,0.3169,0.3393,0.3679,0.401,0.4279,0.4311,0.4233,0.3691,0.3436,0.3142,0.2736,0.3122,0.3816,0.362,0.321,0.2827,0.3362,0.3497,0.3497,0.3362,0.2661,0.1971,0.2116,0.1711,0.1172,0.1155,0.0504,-0.0369,-0.0825,-0.0676,-0.0539,-0.1355,-0.2607,-0.3929,-0.534,-0.7285,-0.9016,-1.019,-1.1261,0.0,0.0,0.0,-1.4239,-1.4378,0.0,-1.5815,-1.6369,-1.7537,-1.8938,-2.0395,-2.1164,-2.2212,-2.3698,-2.5141,-2.6381,-2.74,-2.8576,-2.9899,-3.1076,-3.1986,-3.2826,-3.3717,-3.4238,-3.4984,-3.6258,-3.6258,-3.6737,-3.7724,-3.8722,-3.9078,-3.9324,-4.0662,-4.1633,-4.2397,-4.3255,-4.4227,-4.5426,-4.6773,-4.7508,-4.7743,-4.8753,-4.8983,-4.8957,-4.8957,-4.9502,-5.0238,1.064,1.0368,1.0307,1.0584,1.0578,1.095,1.1887,1.2447,1.2822,1.3303,1.3773,1.4147,1.4261,1.5026,1.5314,1.4756,1.4961,1.4298,1.2408,1.0898,0.9937,0.9686,0.6755,0.5586,0.6695,0.4874,0.3756,0.3495,0.3491,0.3446,0.3356,0.3454,0.3642,0.3916,0.4181,0.4223,0.396,0.3656,0.3624,0.3996,0.4112,0.4646,0.5255,0.4501,0.4213,0.43,0.43,0.43,0.4166,0.3765,0.3526,0.3552,0.4049,0.4168,0.4155,0.3831,0.3739,0.3378,0.1576,0.1174,0.0909,-0.022,-0.2856,-0.5289,-0.5976,-0.8219,-1.0267,-1.0752,-1.1044,-1.1555,-1.2548,-1.3369,0.0,0.0,0.0,0.0,0.0,-1.5794,-1.7052,-1.8441,-1.9892,-2.1478,-2.3263,-2.4556,-2.5852,-2.7264,-2.862,-2.994,-3.1058,-3.2942,-3.4268,-3.4716,-3.6359,-3.7253,-3.7374,-3.7374,-3.7614,-3.8117,-3.9321,-3.9833,-3.9686,-4.2372,-4.3208,-4.2832,-4.5764,-4.6985,-4.7129,-4.8495,-4.901,-4.901,-4.9125,-4.9756,-5.0685,-5.0685,-5.0685,-5.1127,1.1437,1.1257,1.1055,1.0908,1.0958,1.1387,1.2383,1.3065,1.3668,1.4275,1.4663,1.4944,1.4698,1.475,1.495,1.4945,1.4949,1.4551,1.3414,1.2646,1.1652,1.0412,0.8758,0.7628,0.7056,0.6025,0.4979,0.3854,0.3793,0.3716,0.363,0.3658,0.3785,0.4006,0.4332,0.4582,0.4732,0.4468,0.452,0.4747,0.4936,0.5159,0.5447,0.4609,0.4319,0.43,0.4839,0.4977,0.4977,0.4842,0.4858,0.4735,0.4442,0.4738,0.5169,0.5098,0.4939,0.4649,0.4039,0.3702,0.2989,0.1436,-0.0691,-0.3424,-0.6703,-0.8464,-0.9594,-1.0067,-1.0692,-1.1305,-1.1709,-1.2654,0.0,0.0,0.0,0.0,0.0,-1.5186,-1.6083,-1.7423,0.0,0.0,0.0,-2.4084,-2.5856,-2.6938,-2.9505,-3.1562,-3.2763,-3.4575,-3.5643,-3.6054,-3.6958,-3.7616,-3.7976,-3.7616,-3.8277,-3.9959,-3.9871,-4.0365,-4.1407,-4.3036,-4.4079,-4.4817,-4.639,-4.7717,-4.8815,-4.9213,-4.9556,-4.967,-4.967,-5.0405,-5.1347,-5.0906,-5.1755,-5.325,1.1882,1.1757,1.163,1.1295,1.1472,1.1967,1.2814,1.3556,1.423,1.4744,1.5315,1.5671,1.5397,1.558,1.5709,1.5777,1.5838,1.5525,1.5032,1.4199,1.3375,1.2551,1.0858,0.9584,0.8996,0.755,0.6143,0.5033,0.4439,0.4142,0.3968,0.3934,0.3943,0.4046,0.4312,0.4683,0.5132,0.4832,0.5049,0.5631,0.5792,0.5994,0.5987,0.569,0.5295,0.5185,0.5866,0.6141,0.6005,0.6002,0.5983,0.6092,0.5413,0.5701,0.6401,0.6373,0.6266,0.6157,0.6377,0.616,0.5519,0.3558,0.1472,-0.13,-0.5539,-0.7283,-0.8157,-0.8556,-1.0023,-1.0811,-0.9571,-1.1556,0.0,0.0,0.0,0.0,0.0,-1.532,-1.5922,0.0,0.0,0.0,0.0,0.0,-2.5176,-2.7563,-2.9715,-3.164,-3.3593,-3.51,-3.609,-3.6675,-3.722,-3.7679,-3.7976,-3.8096,-3.8828,-4.0432,-4.0555,-4.1204,-4.242,-4.4127,-4.5329,-4.5935,-4.7482,-4.87,-4.9783,-4.9783,-5.001,-5.0348,-5.0656,-5.1484,-5.2566,-5.2,-5.3145,-5.526,1.1816,1.184,1.1946,1.1723,1.2128,1.2608,1.3193,1.3918,1.4596,1.5102,1.5839,1.6414,1.6678,1.7381,1.7684,1.7449,1.7474,1.7521,1.7233,1.5491,1.4952,1.628,1.2947,1.1543,1.2436,0.9322,0.74,0.7002,0.5475,0.4582,0.4304,0.4209,0.4107,0.4038,0.4136,0.4524,0.5018,0.4613,0.5178,0.6339,0.6784,0.6996,0.7143,0.7514,0.7346,0.6877,0.7283,0.7279,0.7279,0.6996,0.7212,0.7683,0.6859,0.7075,0.7694,0.7786,0.7815,0.7956,0.8512,0.8574,0.8195,0.6082,0.3724,0.1122,-0.2578,-0.4889,-0.6226,-0.6463,-0.8737,-0.9876,-0.6839,-1.0238,-1.3873,0.0,0.0,0.0,0.0,0.0,0.0,0.0,0.0,0.0,0.0,0.0,0.0,-2.875,-2.918,0.0,0.0,-3.4658,-3.5605,-3.6566,-3.7222,-3.7584,-3.7451,-3.8693,-3.9574,-4.0062,-4.1266,-4.2046,-4.2546,-4.5839,-4.6942,-4.6415,-4.893,-5.001,-5.001,-5.001,-5.0348,-5.0989,-5.1783,-5.2963,-5.4304,-5.3727,-5.4988,-5.6761,1.2614,1.2637,1.2865,1.2997,1.3254,1.3635,1.3957,1.4838,1.5589,1.5922,1.666,1.7327,1.7792,1.8261,1.8452,1.8339,1.8392,1.8197,1.7642,1.72,1.6819,1.6763,1.544,1.4208,1.2986,1.0797,0.8809,0.74,0.5802,0.4918,0.4578,0.4389,0.425,0.4206,0.428,0.4581,0.5128,0.524,0.5908,0.6788,0.7314,0.7547,0.7626,0.8149,0.8257,0.8193,0.8168,0.7975,0.7836,0.797,0.8228,0.8208,0.8065,0.8464,0.8982,0.8922,0.9377,0.9841,0.9881,1.0581,1.0866,0.8844,0.6925,0.4819,0.1674,-0.1879,-0.4495,-0.4127,-0.4315,-0.5891,-1.0207,-1.1365,-1.2642,-1.5619,0.0,0.0,0.0,0.0,0.0,-1.6889,0.0,0.0,0.0,0.0,0.0,0.0,0.0,0.0,-3.2618,-3.3922,-3.5043,-3.5624,-3.692,-3.7781,-3.8267,-3.8984,-4.029,-4.2016,-4.2592,-4.3602,-4.5013,-4.7154,-4.812,-4.8094,-4.9415,-5.0235,-5.0683,-5.0683,-5.1017,-5.1568,-5.1759,-5.2992,-5.4654,-5.559,-5.6342,-5.6761,1.3935,1.3545,1.3544,1.3809,1.4833,1.5505,1.5068,1.5608,1.6332,1.7068,1.7551,1.8046,1.8577,1.877,1.8855,1.8855,1.8855,1.8716,1.8301,1.8078,1.7859,1.7565,1.6884,1.5902,1.4782,1.2894,1.0949,0.8992,0.7469,0.6088,0.5009,0.4763,0.4582,0.4525,0.4545,0.4831,0.5358,0.5894,0.648,0.7259,0.7902,0.826,0.0,0.9063,0.9456,0.9644,0.9836,0.9383,0.8818,0.9242,0.9349,0.9305,0.9305,0.955,0.9908,1.0235,1.0541,1.0731,1.1453,1.1898,1.2072,1.1504,1.0678,0.9335,0.6684,0.4368,0.277,0.2954,0.0952,-0.0571,-0.0216,-0.7916,-1.5102,-1.7447,-1.7848,0.0,0.0,0.0,0.0,0.0,-1.9748,0.0,0.0,0.0,0.0,0.0,0.0,0.0,-3.2679,-3.3754,-3.484,-3.6024,-3.7406,-3.8183,-3.855,-3.9964,-4.1444,-4.295,-4.4078,-4.5238,-4.6491,-4.8442,-4.9133,-4.87,-4.987,-5.0572,-5.0906,-5.0906,-5.1458,-5.2221,-5.3155,-5.445,-5.6152,-5.67,-5.6923,-5.6923,1.5368,1.4562,1.4099,1.4401,1.6354,1.7622,1.6655,1.6685,1.7138,1.8034,1.8275,1.8517,1.8976,1.906,1.9072,1.9072,1.9072,1.904,1.8876,1.8593,1.8406,1.845,1.761,1.7092,1.7035,1.5085,1.3188,1.115,0.9429,0.7609,0.5589,0.5368,0.515,0.5,0.4954,0.5255,0.5809,0.6676,0.7229,0.7813,0.8622,0.9228,0.9525,1.0193,1.0715,1.1153,1.1558,1.1031,1.0167,1.0599,1.0668,1.0709,1.0709,1.0767,1.0935,1.1877,1.1869,1.1724,1.3336,1.3481,1.3327,1.4244,1.4611,1.413,1.1811,1.175,1.2338,1.2463,0.8441,0.7406,1.5019,-0.0838,-1.5757,-1.7692,-1.7734,-1.7494,0.0,0.0,0.0,0.0,0.0,0.0,0.0,0.0,0.0,0.0,0.0,0.0,0.0,-3.3594,-3.4739,-3.6881,-3.8178,-3.8812,-3.8781,-4.1403,-4.2921,-4.3492,-4.5551,-4.697,-4.7652,-4.9675,-4.9928,-4.893,-5.0432,-5.1017,-5.1017,-5.1128,-5.1896,-5.3184,-5.4809,-5.6449,-5.7778,-5.7276,-5.7117,-5.7211,1.6234,1.5147,1.4727,1.5209,1.686,1.8507,1.9415,1.9412,1.8881,1.7742,1.8203,1.865,1.8746,1.8951,1.9072,1.9072,1.9072,1.9096,1.9016,1.8932,1.8824,1.8704,1.8262,1.7707,1.7288,1.5569,1.368,1.1765,1.0152,0.8428,0.6677,0.6327,0.5998,0.5764,0.5812,0.6318,0.7245,0.8033,0.8606,0.9024,0.9811,1.0333,1.0633,1.1213,1.1565,1.2001,1.2459,1.2036,1.1312,1.1749,1.2294,1.2836,1.2836,1.3389,1.419,1.4309,1.4804,1.545,1.57,1.7005,1.8085,1.6803,1.7464,1.793,1.5885,1.6712,1.8474,2.0589,2.3073,2.3331,1.8798,1.0264,0.1014,-0.8154,-0.8964,-0.8894,-0.9932,0.0,0.0,0.0,0.0,-2.5899,0.0,0.0,0.0,0.0,0.0,0.0,0.0,-3.2794,-3.4387,-3.6726,-3.8275,-3.9515,-4.0269,-4.2494,-4.3914,-4.4774,-4.6678,-4.8319,-4.9901,-5.1072,-5.121,-5.0544,-5.1348,-5.1677,-5.1677,-5.2221,-5.3155,-5.4391,-5.4866,-5.5998,-5.7213,-5.6934,-5.7276,-5.7684,1.8514,1.7264,1.6795,1.814,1.9747,2.1159,2.1877,2.2166,2.1831,2.0112,1.9462,1.9242,1.9277,1.9289,1.9338,1.9483,1.9495,1.9625,1.9756,1.9622,1.9616,1.9608,1.9071,1.8553,1.83,1.7416,1.5762,1.3565,1.2137,1.0435,0.8237,0.733,0.6756,0.6684,0.6894,0.7414,0.8121,0.8932,0.9552,1.004,1.0822,1.1389,1.1839,1.2639,1.3161,1.3602,1.417,1.4399,1.4164,1.3603,1.3595,1.4022,1.4583,1.5283,1.5981,1.6578,1.7096,1.759,1.8336,1.931,2.0183,2.0659,2.0734,2.1187,2.278,2.3342,2.4407,2.7142,2.9668,2.8859,2.0215,1.2515,0.6166,0.2065,-0.3856,-0.5921,-0.0238,0.0,0.0,0.0,0.0,0.0,0.0,0.0,0.0,0.0,0.0,0.0,0.0,-3.3503,-3.4988,-3.8061,-3.9829,-4.1152,-4.2239,-4.4361,-4.5872,-4.6901,-4.8571,-4.9987,-5.1183,-5.2193,-5.2221,-5.1458,-5.2004,-5.2221,-5.2329,-5.3366,-5.4377,-5.53,-5.5466,-5.6373,-5.7684,-5.6994,-5.7055,-5.7337,2.1065,2.0044,1.9566,2.1194,2.279,2.3982,2.4095,2.4668,2.4466,2.2396,2.0811,1.9856,2.0099,1.9952,1.9903,2.0135,2.0148,2.0281,2.0547,2.0347,2.0354,2.0615,1.9814,1.9387,1.9387,1.9,1.7745,1.5576,1.4519,1.2583,0.992,0.8837,0.8296,0.828,0.8258,0.8815,0.9703,1.0261,1.0846,1.1425,1.2285,1.2902,1.3358,1.438,1.4941,1.5369,1.6057,1.6654,1.6925,1.5877,1.5443,1.5443,1.6413,1.6977,1.7679,1.867,1.9077,1.9577,2.091,2.1391,2.1867,2.3882,2.3708,2.3956,2.7748,2.8094,2.8307,3.1501,3.3295,3.1325,2.1417,1.6251,1.2342,0.8934,-0.0177,-0.4605,0.1963,0.0,0.0,0.0,0.0,0.0,-2.9416,0.0,0.0,0.0,0.0,0.0,-3.4391,-3.4564,-3.6122,-3.9703,-4.1413,-4.2897,-4.4125,-4.6059,-4.7603,-4.8786,-5.0218,-5.1318,-5.2221,-5.3078,-5.2972,-5.2004,-5.2516,-5.2865,-5.2972,-5.4229,-5.511,-5.5713,-5.575,-5.662,-5.7769,-5.7018,-5.6707,-5.6707,2.3226,2.2683,2.2351,2.3022,2.4496,2.5662,2.6301,2.6624,2.5814,2.2992,2.1381,2.0602,2.0908,2.092,2.0908,2.0946,2.0946,2.0946,2.0946,2.092,2.0908,2.0908,2.0348,2.0043,2.0043,1.928,1.8224,1.704,1.6414,1.4536,1.1182,1.135,1.131,1.1289,1.0037,1.084,1.2898,1.2901,1.299,1.3587,1.4668,1.5263,1.5723,1.6378,1.6902,1.7302,1.7539,1.7735,1.8112,1.8757,1.8541,1.8121,1.8541,1.9251,1.9831,2.0388,2.1207,2.2147,2.2929,2.4153,2.5099,2.4949,2.5338,2.5859,2.6643,2.7057,2.826,3.2513,3.6107,3.5091,2.3996,2.9746,2.9289,0.7627,0.2729,-0.2547,-1.4783,-2.5161,-3.2124,-3.3711,0.0,0.0,0.0,-3.0682,0.0,0.0,0.0,0.0,0.0,-3.5089,-3.7617,-4.0281,-4.2213,-4.3904,-4.5524,-4.7131,-4.8462,-4.9426,-5.0323,-5.1632,-5.329,-5.3395,-5.3184,-5.2516,-5.3184,-5.3395,-5.3471,-5.4461,-5.491,-5.4983,-5.5093,-5.5658,-5.6378,-5.6315,-5.6283,-5.6283,2.5801,2.5078,2.487,2.6542,2.683,2.7398,2.896,2.8532,2.7394,2.5528,2.3565,2.2042,2.1283,2.1187,2.1251,2.1429,2.1442,2.1577,2.17,2.168,2.159,2.1844,2.1201,2.0903,2.0978,2.0693,1.9965,1.8938,1.8106,1.6724,1.4923,1.4239,1.4172,1.46,1.4175,1.4463,1.5111,1.5338,1.5283,1.5208,1.629,1.7019,1.7605,1.886,1.9596,1.9992,2.0196,2.0393,2.0495,2.0507,2.0086,1.9529,2.0364,2.1069,2.1484,2.1897,2.2585,2.3543,2.4467,2.5292,2.61,2.6753,2.7035,2.7684,2.9847,3.0735,3.2068,3.5655,3.804,3.8483,3.4832,3.1805,2.6275,1.5197,0.6777,-0.1145,-0.9025,-2.0666,0.0,-2.802,0.0,0.0,0.0,0.0,0.0,0.0,0.0,0.0,0.0,-3.6468,-3.8255,-4.0462,-4.3381,-4.5295,-4.6395,-4.8344,-4.9609,-5.0195,-5.0902,-5.1671,-5.2397,-5.3152,-5.3402,-5.3334,-5.3539,-5.371,-5.3754,-5.5018,-5.5312,-5.4976,-5.505,-5.5557,-5.6125,-5.5537,-5.57,-5.6135,2.8063,2.7539,2.7522,2.9346,2.9012,2.9151,3.0609,3.0012,2.8965,2.7867,2.5905,2.388,2.1984,2.1888,2.1965,2.216,2.2173,2.2173,2.2448,2.2264,2.2281,2.2552,2.2138,2.1885,2.1934,2.175,2.147,2.0909,2.0065,1.9025,1.7708,1.6549,1.6485,1.7554,1.718,1.7141,1.7427,1.7348,1.7276,1.7077,1.8311,1.9117,1.9756,2.1311,2.1965,2.2212,2.2384,2.2496,2.2633,2.2152,2.1785,2.1418,2.1912,2.2302,2.2579,2.2993,2.3681,2.4337,2.5727,2.61,2.6368,2.7684,2.7833,2.8345,3.1029,3.2524,3.4282,3.779,3.9453,4.0652,4.1739,3.0867,2.003,1.4981,0.2035,-0.9348,-1.5189,-2.4233,-2.992,-2.8905,-3.646,-4.0829,-3.84,-3.7501,0.0,0.0,0.0,0.0,0.0,-3.8271,-3.9829,-4.1253,-4.4676,-4.6719,-4.7177,-4.9114,-5.0311,-5.0685,-5.1323,-5.1614,-5.1643,-5.2748,-5.3406,-5.3764,-5.3764,-5.3789,-5.3945,-5.5161,-5.5349,-5.4698,-5.4951,-5.5216,-5.5468,-5.4977,-5.5162,-5.5654,2.9599,2.9996,3.0393,3.0772,3.0772,3.0791,3.0791,3.0791,3.041,2.9361,2.7916,2.6039,2.3119,2.2859,2.2859,2.2859,2.2859,2.2859,2.2859,2.2859,2.2859,2.2859,2.2984,2.2955,2.2955,2.2465,2.2272,2.2566,2.2258,2.1107,1.9087,1.764,1.8106,2.0178,1.7817,1.8069,2.0131,1.8834,1.8756,1.9524,2.1013,2.1924,2.2433,2.3285,2.3649,2.3624,2.3808,2.398,2.3979,2.4117,2.4255,2.4099,2.3113,2.2741,2.2881,2.3719,2.4136,2.4744,2.6729,2.6635,2.6368,2.7435,2.77,2.7833,2.8592,3.0642,3.3552,3.7932,4.0106,4.1233,4.1682,2.8408,1.3696,0.2259,-1.4773,-3.0572,-4.2165,-4.3323,-4.301,-4.3225,-4.0205,-3.8894,-4.0999,-3.8553,0.0,0.0,0.0,0.0,-3.6158,-4.0246,-4.271,-4.296,-4.6189,-4.7908,-4.8097,-4.9413,-5.0311,-5.0685,-5.1323,-5.1614,-5.1614,-5.2387,-5.3144,-5.3819,-5.3819,-5.3819,-5.3854,-5.4668,-5.4667,-5.4047,-5.4851,-5.4561,-5.3915,-5.4543,-5.4758,-5.4813,3.0792,3.0756,3.0756,3.1139,3.0974,3.0882,3.1157,3.1194,3.0717,2.9526,2.8871,2.7535,2.5008,2.3665,2.2996,2.327,2.327,2.3406,2.3679,2.3679,2.3679,2.3679,2.3732,2.3714,2.3623,2.3553,2.3356,2.3278,2.3131,2.2992,2.301,2.2856,2.3384,2.4282,2.2745,2.2123,2.229,2.1303,2.0923,2.1137,2.2423,2.3468,2.447,2.5268,2.5919,2.6337,2.6003,2.591,2.5868,2.5153,2.498,2.5027,2.4644,2.4479,2.4399,2.5164,2.5643,2.5996,2.6594,2.7035,2.7169,2.7035,2.7849,2.9036,2.9657,3.2689,3.6072,3.8313,3.9873,4.0779,4.0655,2.8622,1.3843,-0.1184,-1.6239,-3.0927,-4.5019,-4.6528,-4.5951,-4.5303,-4.4214,-4.313,-4.231,-4.1241,-4.0718,0.0,0.0,-4.0441,-3.8656,-4.1501,-4.2882,-4.2357,-4.6152,-4.7941,-4.7512,-4.9427,-5.03,-4.9988,-5.0656,-5.1479,-5.2328,-5.1736,-5.2322,-5.3991,-5.396,-5.3956,-5.4033,-5.4799,-5.4668,-5.4072,-5.4333,-5.4206,-5.4049,-5.455,-5.5044,-5.5653,3.1726,3.1559,3.1466,3.1726,3.1431,3.1357,3.1726,3.1653,3.1377,3.0584,3.0171,2.9321,2.7713,2.568,2.4327,2.3693,2.3679,2.3679,2.3966,2.3966,2.3966,2.3966,2.4088,2.4274,2.4596,2.4535,2.4657,2.4785,2.4716,2.5039,2.562,2.6143,2.6597,2.6985,2.5988,2.5037,2.4274,2.3474,2.2985,2.2707,2.3817,2.504,2.6411,2.7156,2.7622,2.8047,2.7663,2.7296,2.6808,2.6383,2.6263,2.6163,2.631,2.6011,2.5712,2.6106,2.6435,2.6663,2.6863,2.7169,2.7169,2.7035,2.8097,2.9657,3.1944,3.4592,3.7067,3.8908,4.0013,4.0595,4.0292,2.3712,0.6726,-0.3549,-2.1989,-3.8224,-4.7423,-4.8345,-4.7671,-4.6304,-4.6064,-4.5251,-4.342,-4.3236,-4.2976,-4.2365,-4.315,-4.303,-4.1809,-4.362,-4.4419,-4.3838,-4.7121,-4.8686,-4.8227,-4.9498,-4.9927,-4.9514,-4.9824,-5.0955,-5.2725,-5.1648,-5.2215,-5.4001,-5.4001,-5.4016,-5.4134,-5.4577,-5.4482,-5.4103,-5.438,-5.4465,-5.4465,-5.5067,-5.5716,-5.6381,3.2422,3.2422,3.2422,3.2422,3.2204,3.2094,3.2459,3.2241,3.2132,3.2516,3.1614,3.1025,3.0893,2.8783,2.6556,2.4337,2.4158,2.4158,2.4158,2.4158,2.4158,2.4158,2.4567,2.496,2.5772,2.5722,2.6114,2.6919,2.6919,2.7078,2.7413,2.7781,2.8227,2.8537,2.7661,2.6893,2.6003,2.5313,2.4647,2.4311,2.5139,2.646,2.7985,2.8739,2.9027,2.9042,2.9042,2.8385,2.7523,2.7817,2.7769,2.7676,2.7784,2.7481,2.6982,2.6773,2.6601,2.6663,2.7398,2.7051,2.6784,2.7435,2.8345,3.0125,3.4716,3.6093,3.7045,3.9615,4.0363,4.0479,4.0408,1.5175,-0.5452,-0.5219,-3.0814,-5.0379,-4.9528,-4.9159,-4.8385,-4.6755,-4.6337,-4.5693,-4.4407,-4.4615,-4.484,-4.5031,-4.5898,-4.6203,-4.5566,-4.6386,-4.6947,-4.6879,-4.8849,-4.9944,-4.9812,-4.9562,-4.9375,-4.9098,-4.8872,-5.0183,-5.2854,-5.2246,-5.2726,-5.4103,-5.4103,-5.4103,-5.4103,-5.4103,-5.4103,-5.4242,-5.5017,-5.5149,-5.5149,-5.6001,-5.6547,-5.692,3.2422,3.2422,3.2422,3.2422,3.2687,3.2895,3.2895,3.316,3.3237,3.3368,3.3181,3.2271,3.0393,2.9663,2.8276,2.5798,2.5226,2.5226,2.5505,2.5505,2.5783,2.6478,2.6478,2.6893,2.7705,2.7626,2.7868,2.8397,2.8939,2.9378,2.9733,3.0442,3.0763,3.0715,2.9427,2.8233,2.7049,2.6373,2.5672,2.5166,2.606,2.7492,2.9204,2.9348,2.9607,2.9974,3.0608,3.0238,2.9359,2.9273,2.9275,2.8988,2.7894,2.7569,2.7575,2.7958,2.7354,2.6679,2.6878,2.6501,2.6368,2.6784,2.9003,3.1726,3.4238,3.5992,3.733,3.8551,3.9026,3.9026,3.8171,1.3436,-0.7143,-0.7738,-3.196,-5.0536,-5.0071,-4.947,-4.8635,-4.7764,-4.7558,-4.7171,-4.6122,-4.6501,-4.6844,-4.6773,-4.7742,-4.8368,-4.8502,-4.912,-4.8627,-4.691,-4.9216,-5.0005,-4.9159,-4.9356,-4.9326,-4.8916,-4.9297,-5.0515,-5.2233,-5.2572,-5.329,-5.4103,-5.4103,-5.4103,-5.4103,-5.3962,-5.4327,-5.4985,-5.4851,-5.5345,-5.6067,-5.6647,-5.6877,-5.703,3.2804,3.2804,3.2988,3.3181,3.3283,3.3493,3.4095,3.4178,3.4313,3.4576,3.4883,3.445,3.3077,3.2022,3.0891,2.9363,2.7415,2.6298,2.6578,2.6858,2.7262,2.7694,2.7694,2.8095,2.9061,2.9044,2.9336,3.0157,3.0429,3.0837,3.0972,3.1531,3.2043,3.234,3.1625,3.084,2.978,2.8694,2.7717,2.715,2.7013,2.8315,3.0098,2.9931,3.0438,3.1209,3.1379,3.1071,3.0732,3.0545,3.0373,3.0004,2.903,2.8427,2.8303,2.897,2.7995,2.6884,2.6831,2.6784,2.6902,2.7949,3.0048,3.2384,3.4403,3.6013,3.7231,3.755,3.8171,3.8194,3.6846,1.8107,0.0316,-0.7321,-2.663,-4.2881,-4.9378,-4.9646,-4.8883,-4.8049,-4.8355,-4.8324,-4.7588,-4.8481,-4.9047,-4.9026,-4.9646,-5.0102,-5.0306,-5.0641,-5.0171,-4.8986,-5.0122,-5.0427,-4.9703,-4.9282,-4.9044,-4.8865,-4.9194,-5.0332,-5.2002,-5.2374,-5.3065,-5.4103,-5.4103,-5.4103,-5.4103,-5.4359,-5.4749,-5.5263,-5.5636,-5.6192,-5.6768,-5.7406,-5.7662,-5.7662,3.3418,3.3418,3.3555,3.4132,3.3992,3.4187,3.527,3.5258,3.5317,3.5972,3.6274,3.6383,3.623,3.4482,3.3309,3.3031,2.9954,2.7834,2.7555,2.8114,2.8531,2.8809,2.8809,2.9224,3.0309,3.0309,3.0874,3.1862,3.1862,3.1862,3.1997,3.225,3.2838,3.3421,3.3848,3.3468,3.2473,3.1186,3.0002,2.9076,2.8022,2.8862,3.0577,3.0438,3.1363,3.2299,3.184,3.1702,3.1533,3.1469,3.1245,3.091,3.0299,2.9504,2.8943,2.9231,2.8354,2.7169,2.7318,2.7185,2.77,2.9657,3.1102,3.2511,3.4777,3.6013,3.6624,3.6703,3.7309,3.733,3.6114,2.4082,0.9428,-0.5879,-1.9942,-3.3909,-4.8332,-4.9759,-4.9015,-4.8301,-4.8738,-4.9151,-4.8931,-5.0144,-5.0951,-5.1087,-5.1327,-5.1474,-5.1474,-5.1436,-5.1478,-5.1475,-5.1239,-5.0968,-5.0456,-4.9246,-4.8698,-4.887,-4.8992,-5.0064,-5.1864,-5.2082,-5.2864,-5.3945,-5.421,-5.4242,-5.4327,-5.4966,-5.5295,-5.562,-5.6691,-5.7222,-5.7446,-5.8171,-5.8348,-5.8243,3.3418,3.3418,3.3681,3.4389,3.4764,3.529,3.6122,3.6503,3.6743,3.6877,3.6938,3.6555,3.5141,3.477,3.3845,3.1913,3.1809,3.1056,2.9534,2.9534,2.996,3.0949,3.0949,3.1388,3.2245,3.2245,3.2524,3.3098,3.3098,3.3218,3.3495,3.3909,3.4084,3.4277,3.4552,3.3983,3.2508,3.1582,3.0467,2.9436,2.9258,2.9559,3.0284,3.167,3.1993,3.1686,3.2926,3.3061,3.2402,3.2074,3.1926,3.1563,2.9872,2.9693,2.9748,2.7979,2.7352,2.7302,2.7567,2.7451,2.7584,2.9413,3.0843,3.2384,3.4507,3.5129,3.55,3.6237,3.5746,3.5108,3.5376,2.2613,0.7393,-0.6627,-2.0765,-3.487,-4.895,-4.9988,-4.9259,-4.9066,-4.9147,-4.9559,-5.0442,-5.0749,-5.1146,-5.1789,-5.205,-5.2254,-5.2254,-5.2144,-5.2236,-5.2348,-5.2002,-5.1184,-4.9982,-4.9294,-4.8893,-4.8893,-4.9511,-5.0331,-5.1159,-5.2387,-5.307,-5.3281,-5.4594,-5.5149,-5.5149,-5.5603,-5.6315,-5.7147,-5.6844,-5.7256,-5.8027,-5.8027,-5.7954,-5.8027,3.3922,3.3922,3.4266,3.5071,3.5371,3.5861,3.6942,3.7206,3.7616,3.815,3.8283,3.8129,3.7801,3.7246,3.644,3.5471,3.4377,3.3568,3.2892,3.1947,3.1559,3.2123,3.2123,3.2421,3.2981,3.34,3.3539,3.3539,3.3955,3.4094,3.4094,3.4508,3.4784,3.5059,3.5196,3.5035,3.4668,3.3036,3.2261,3.2059,3.0783,3.0729,3.1517,3.184,3.2299,3.274,3.2827,3.291,3.2976,3.2532,3.221,3.1888,3.0814,3.0549,3.0275,2.8793,2.7579,2.6902,2.7051,2.7584,2.8378,2.9952,3.123,3.2511,3.4027,3.4632,3.4881,3.4777,3.4632,3.4302,3.3853,2.8094,1.8816,0.4785,-0.9137,-2.3057,-3.699,-4.5327,-4.9789,-4.9439,-5.0073,-5.0799,-5.1484,-5.1933,-5.2412,-5.306,-5.313,-5.2958,-5.2442,-5.1959,-5.1717,-5.1592,-5.1496,-5.1328,-5.0749,-4.9896,-4.955,-4.9789,-4.9896,-5.0353,-5.1006,-5.167,-5.2613,-5.3807,-5.4309,-5.5069,-5.5876,-5.627,-5.6768,-5.7256,-5.7256,-5.7554,-5.8099,-5.8317,-5.8458,-5.8598,3.4423,3.4629,3.5078,3.5997,3.635,3.6958,3.8026,3.815,3.8549,3.9341,3.9473,3.9604,4.0127,3.943,3.875,3.82,3.644,3.5237,3.4983,3.378,3.2981,3.2981,3.2981,3.3121,3.3539,3.4094,3.4232,3.4094,3.4646,3.4784,3.4508,3.4921,3.5196,3.5489,3.5722,3.621,3.666,3.455,3.3981,3.4239,3.2126,3.175,3.2299,3.1993,3.2555,3.3347,3.2592,3.2689,3.3042,3.2659,3.2314,3.2018,3.1608,3.1184,3.0583,2.9274,2.7765,2.6635,2.6902,2.7833,2.9168,3.0602,3.1635,3.2511,3.3418,3.4027,3.4153,3.3292,3.3446,3.3519,3.2478,3.3006,2.8801,1.4503,0.0722,-1.2973,-2.7115,-4.1493,-5.0416,-5.0165,-5.107,-5.1955,-5.2605,-5.3003,-5.3536,-5.4232,-5.3805,-5.3232,-5.241,-5.1528,-5.0923,-5.0708,-5.1033,-5.1406,-5.1559,-5.0625,-5.026,-5.0525,-5.0058,-5.0216,-5.0721,-5.0911,-5.1997,-5.379,-5.4226,-5.5077,-5.6382,-5.7039,-5.7289,-5.7289,-5.7735,-5.8027,-5.8209,-5.8703,-5.9011,-5.9346,3.4423,3.5248,3.633,3.7064,3.8146,3.9131,3.991,3.9997,3.9997,4.0127,4.0127,4.0127,4.0236,4.0105,3.9299,3.7266,3.7018,3.6073,3.4075,3.4094,3.4094,3.3678,3.3678,3.3955,3.437,3.437,3.4508,3.4784,3.4921,3.4921,3.4921,3.5196,3.547,3.5489,3.6544,3.7153,3.7095,3.5443,3.4773,3.4698,3.3162,3.213,3.1686,3.3078,3.2995,3.2226,3.2974,3.2956,3.2733,3.2314,3.2053,3.1926,3.1655,3.0955,3.0021,2.8419,2.7288,2.6769,2.7816,2.8493,2.9151,3.0991,3.1635,3.2147,3.2785,3.2785,3.2549,3.2549,3.2245,3.2085,3.2315,3.2371,2.7948,1.3953,0.0309,-1.3684,-2.8543,-4.2106,-5.0876,-5.1888,-5.1809,-5.2286,-5.3912,-5.3506,-5.3616,-5.4653,-5.3555,-5.2668,-5.2434,-5.1154,-5.053,-5.0781,-5.1264,-5.1572,-5.1786,-5.1242,-5.0832,-5.0525,-5.0058,-4.9963,-5.0026,-5.069,-5.1455,-5.2365,-5.4514,-5.5746,-5.6505,-5.7827,-5.8277,-5.8099,-5.7954,-5.828,-5.8841,-5.8909,-5.9346,-6.003,3.5665,3.6289,3.7127,3.8078,3.8828,3.9583,4.017,4.0257,4.0388,4.0777,4.0906,4.1164,4.1783,4.1783,4.1527,4.0946,3.9366,3.7914,3.7112,3.5568,3.4646,3.4508,3.4508,3.4508,3.4646,3.5196,3.5196,3.4921,3.5587,3.5724,3.5333,3.5606,3.6016,3.6544,3.6976,3.7629,3.8287,3.6444,3.5852,3.5944,3.4053,3.323,3.301,3.3627,3.3386,3.2878,3.3221,3.3103,3.2611,3.2542,3.2343,3.242,3.2447,3.1648,3.0462,2.9143,2.8393,2.823,2.9299,2.9691,3.01,3.112,3.2019,3.253,3.2511,3.2657,3.253,3.2147,3.1954,3.174,3.1598,3.2015,3.0626,2.4973,0.5261,-1.1288,-1.6747,-3.7337,-5.2026,-5.235,-5.2416,-5.2942,-5.4179,-5.3269,-5.2971,-5.4095,-5.2974,-5.1957,-5.11,-5.0331,-5.029,-5.1154,-5.1339,-5.1544,-5.1794,-5.1359,-5.0876,-5.0525,-5.0058,-4.9931,-4.9931,-5.0735,-5.175,-5.2967,-5.4189,-5.5299,-5.6333,-5.7255,-5.7773,-5.7947,-5.8323,-5.8977,-5.9644,-6.0058,-6.0406,-6.0772,3.6667,3.7407,3.8298,3.9001,3.9847,4.0529,4.0839,4.0906,4.1035,4.1572,4.1701,4.2061,4.2696,4.2949,4.2673,4.1993,4.0148,3.8708,3.7801,3.6112,3.5059,3.4921,3.4921,3.5059,3.5196,3.5743,3.5879,3.5587,3.6384,3.6403,3.5879,3.6289,3.6779,3.7075,3.7609,3.8347,3.8928,3.7162,3.6514,3.6756,3.4584,3.3644,3.3831,3.3709,3.3447,3.3371,3.3232,3.2967,3.2685,3.269,3.2693,3.2838,3.2691,3.1691,3.0241,2.9614,2.9244,2.9189,3.0396,3.075,3.0879,3.1506,3.2275,3.2785,3.2384,3.253,3.2492,3.1596,3.1514,3.1475,3.0936,3.1582,3.2013,3.1828,0.8303,-0.9908,-0.9855,-3.4657,-5.2836,-5.2941,-5.2939,-5.3165,-5.3844,-5.267,-5.2146,-5.2877,-5.1741,-5.0736,-4.9958,-4.9739,-5.0104,-5.1401,-5.1401,-5.1475,-5.1614,-5.1285,-5.0876,-5.0525,-5.0058,-4.9979,-5.0292,-5.08,-5.1884,-5.3361,-5.3948,-5.4769,-5.586,-5.6748,-5.7431,-5.784,-5.8626,-5.9499,-6.0379,-6.1116,-6.1377,-6.16,3.7374,3.8775,3.9938,3.9938,4.1274,4.2339,4.2339,4.2339,4.2339,4.2339,4.2593,4.2846,4.2846,4.3075,4.2143,3.9366,3.9103,3.7934,3.5059,3.5352,3.5352,3.4921,3.4921,3.5196,3.6016,3.6016,3.6423,3.7079,3.7079,3.6944,3.6519,3.7405,3.7351,3.6719,3.8387,3.907,3.8948,3.7467,3.7051,3.7179,3.4433,3.3552,3.3796,3.343,3.3335,3.3269,3.3269,3.3035,3.2629,3.2629,3.2918,3.2947,3.1837,3.0578,2.9519,2.9726,2.9614,2.9645,3.097,3.1377,3.1506,3.2294,3.2676,3.2657,3.2019,3.2147,3.2053,3.0629,3.0729,3.0917,3.0604,3.0917,3.1441,3.1787,0.8227,-1.026,-1.086,-3.4963,-5.2976,-5.3881,-5.3349,-5.2903,-5.2903,-5.1769,-5.1102,-5.1102,-4.97,-4.8934,-4.9069,-4.941,-5.0182,-5.1369,-5.1401,-5.1327,-5.1102,-5.1102,-5.0908,-5.0525,-5.0058,-5.0292,-5.1102,-5.0876,-5.1663,-5.3145,-5.3852,-5.4396,-5.4907,-5.6522,-5.7443,-5.7838,-5.8526,-5.9734,-6.1117,-6.1938,-6.2248,-6.2542,3.7976,3.873,3.9534,4.0387,4.1227,4.1926,4.2293,4.2765,4.3229,4.3229,4.3811,4.4407,4.4559,4.4688,4.4536,4.3974,4.197,3.9698,3.6774,3.6914,3.7073,3.7073,3.621,3.6016,3.6858,3.6833,3.7104,3.7541,3.751,3.7213,3.6944,3.7541,3.7786,3.7947,3.8627,3.921,3.9333,3.7143,3.6349,3.6349,3.3921,3.3145,3.3462,3.3356,3.3358,3.33,3.3581,3.3418,3.3218,3.3633,3.3972,3.3742,3.2332,3.1582,3.1129,3.0054,3.0118,3.0633,3.1285,3.1763,3.2166,3.2676,3.2657,3.2384,3.1763,3.1394,3.1027,3.0175,2.9992,3.0074,3.0445,3.0779,3.1208,3.1672,1.6324,0.0679,-0.9499,-2.6313,-4.1454,-5.1959,-5.2232,-5.1699,-5.2066,-5.073,-4.9985,-5.0325,-4.8739,-4.8206,-4.9216,-4.9373,-5.0209,-5.1685,-5.19,-5.1908,-5.1614,-5.1285,-5.0755,-5.0058,-5.0525,-5.0908,-5.1102,-5.217,-5.2803,-5.3111,-5.3887,-5.4419,-5.4775,-5.579,-5.7087,-5.8496,-5.9242,-6.0562,-6.2149,-6.2277,-6.2526,-6.2892,3.8964,3.9394,4.0136,4.1153,4.1946,4.2523,4.2951,4.3694,4.415,4.415,4.4666,4.5137,4.5419,4.5548,4.5395,4.5113,4.2549,4.014,3.7847,3.8007,3.8147,3.8147,3.7352,3.7331,3.7866,3.7879,3.8016,3.8438,3.8241,3.7881,3.7611,3.8031,3.8158,3.8145,3.8763,3.9126,3.921,3.6797,3.5991,3.583,3.3388,3.2763,3.3269,3.3109,3.3196,3.3539,3.3678,3.3678,3.3539,3.4232,3.3955,3.3242,3.2246,3.1687,3.1318,3.0617,3.0804,3.1208,3.169,3.2019,3.2549,3.2912,3.2785,3.2218,3.1304,3.0956,3.0555,2.9493,2.956,2.9888,3.02,3.0565,3.0956,3.1672,1.965,0.5376,-0.8543,-2.2412,-3.6489,-5.0716,-5.1651,-5.1024,-5.0894,-4.9681,-4.8855,-4.8699,-4.7766,-4.7818,-4.921,-4.9512,-5.0249,-5.1765,-5.1958,-5.2004,-5.1762,-5.1359,-5.0984,-5.0602,-5.0951,-5.1401,-5.2026,-5.2905,-5.3315,-5.3483,-5.4514,-5.4972,-5.5133,-5.6484,-5.7942,-5.9434,-6.0195,-6.1386,-6.2855,-6.3085,-6.3162,-6.3231,4.014,4.0624,4.1084,4.1963,4.2949,4.3601,4.4008,4.4501,4.4984,4.4984,4.5361,4.5562,4.5562,4.5821,4.5514,4.4295,4.1878,3.9992,3.8946,3.8667,3.8687,3.8687,3.8687,3.8827,3.9106,3.8983,3.9081,3.9537,3.904,3.8656,3.8248,3.8697,3.8425,3.7743,3.858,3.8922,3.8624,3.6444,3.5575,3.5556,3.3072,3.2503,3.318,3.2843,3.3121,3.3817,3.3817,3.3817,3.3817,3.4094,3.3381,3.2105,3.1683,3.0988,3.0598,3.1349,3.1497,3.1611,3.2132,3.2422,3.253,3.3126,3.2727,3.187,3.0991,3.0609,3.0103,2.8764,2.9319,2.9916,2.9879,3.0157,3.0238,2.9852,1.8697,0.4954,-0.9745,-2.2915,-3.6245,-4.994,-5.124,-5.0615,-4.962,-4.866,-4.7642,-4.6647,-4.6949,-4.7729,-4.8995,-4.9488,-5.032,-5.1564,-5.1527,-5.1578,-5.1736,-5.1327,-5.1252,-5.1729,-5.1327,-5.1954,-5.3382,-5.3315,-5.3652,-5.4247,-5.5611,-5.6112,-5.605,-5.8081,-5.9564,-6.0539,-6.1171,-6.2132,-6.3242,-6.3981,-6.3928,-6.3631,4.0982,4.1341,4.1817,4.2356,4.2638,4.2919,4.342,4.4546,4.529,4.529,4.6264,4.7029,4.7029,4.7161,4.7161,4.7136,4.5068,4.3024,4.1215,4.043,3.9882,3.9882,3.9882,4.0024,4.0451,3.9122,3.8753,3.9537,3.873,3.8336,3.8202,3.8688,3.8562,3.8153,3.8685,3.8158,3.6996,3.5559,3.4594,3.3739,3.228,3.1962,3.2368,3.2597,3.2981,3.34,3.3678,3.3817,3.3678,3.3242,3.3242,3.3242,3.1965,3.1375,3.123,3.1414,3.1432,3.1488,3.1929,3.2166,3.2473,3.2527,3.1407,3.0483,3.0683,2.9028,2.7685,2.8149,2.8357,2.8607,2.9112,2.9686,2.6549,1.5849,1.2177,0.1905,-2.3466,-2.8599,-3.4992,-4.9193,-5.0141,-4.939,-4.8815,-4.7768,-4.6813,-4.5945,-4.6287,-4.6775,-4.7329,-4.8357,-4.9293,-5.0057,-5.0993,-5.1453,-5.1442,-5.1214,-5.1252,-5.1696,-5.1882,-5.2454,-5.3416,-5.4429,-5.5163,-5.5674,-5.6437,-5.7254,-5.8094,-5.8824,-5.9957,-6.1222,-6.1654,-6.2595,-6.3572,-6.3631,-6.3947,-6.4289,4.1859,4.2028,4.2532,4.3411,4.3553,4.3813,4.4825,4.5334,4.5844,4.6347,4.6813,4.7209,4.7473,4.7497,4.7497,4.7208,4.5685,4.4023,4.2516,4.1289,4.0596,4.0596,4.0596,4.074,4.0882,3.9626,3.9137,3.9868,3.8957,3.8502,3.8502,3.8523,3.8388,3.8253,3.8388,3.8118,3.7265,3.5645,3.459,3.39,3.2246,3.1841,3.2105,3.2561,3.2999,3.34,3.3678,3.3955,3.3955,3.2945,3.2824,3.2824,3.1824,3.1306,3.0972,3.1396,3.1493,3.1506,3.2038,3.2162,3.2207,3.2478,3.0585,2.9047,2.9956,2.8499,2.7058,2.7626,2.8041,2.8379,2.8856,2.945,2.7579,2.0426,1.9949,1.0771,-1.7382,-2.0411,-2.7311,-4.776,-4.971,-4.9046,-4.8258,-4.7404,-4.6722,-4.641,-4.662,-4.7033,-4.7439,-4.8331,-4.9057,-4.9588,-5.056,-5.109,-5.0966,-5.1441,-5.1842,-5.2241,-5.2208,-5.297,-5.4493,-5.5135,-5.5904,-5.6725,-5.7618,-5.8492,-5.9352,-6.0394,-6.1354,-6.2194,-6.2623,-6.3333,-6.405,-6.4091,-6.433,-6.4739,4.2621,4.2909,4.3364,4.4444,4.4785,4.5167,4.6439,4.6271,4.6367,4.7389,4.7196,4.7147,4.7581,4.7762,4.7473,4.6493,4.5391,4.4321,4.3236,4.1714,4.0882,4.0882,4.0882,4.0882,4.0882,3.9992,3.9723,4.0116,3.9185,3.873,3.873,3.8357,3.8191,3.8191,3.8191,3.8058,3.777,3.5704,3.4727,3.4452,3.2386,3.1841,3.2123,3.2421,3.2841,3.326,3.3539,3.3955,3.4232,3.3085,3.2386,3.1947,3.1614,3.0838,3.0395,3.1173,3.1307,3.1488,3.2072,3.2062,3.1903,3.237,3.0162,2.8289,2.9349,2.8114,2.6924,2.7349,2.79,2.8517,2.8755,2.9331,2.9021,2.6709,2.6939,1.8575,-0.6853,-1.1746,-2.1125,-4.3646,-4.8139,-4.9012,-4.8065,-4.7337,-4.6997,-4.7169,-4.7337,-4.7605,-4.8161,-4.8673,-4.9102,-4.9452,-5.0258,-5.0725,-5.0768,-5.1938,-5.2757,-5.3246,-5.2931,-5.3752,-5.5632,-5.5843,-5.6552,-5.7751,-5.8976,-5.9799,-6.028,-6.1901,-6.2671,-6.2845,-6.3407,-6.3984,-6.4442,-6.4739,-6.4917,-6.5047,4.3583,4.4213,4.4846,4.499,4.5374,4.5734,4.6006,4.6367,4.6786,4.7191,4.7555,4.7953,4.8445,4.8682,4.8396,4.6894,4.5797,4.4573,4.3236,4.1714,4.0882,4.0882,4.0882,4.0882,4.0882,3.9992,3.9578,3.964,3.873,3.8274,3.8274,3.8212,3.8191,3.8191,3.8191,3.7636,3.6654,3.5431,3.4314,3.3345,3.2105,3.1559,3.17,3.2123,3.2403,3.2841,3.326,3.3817,3.4232,3.3085,3.2386,3.2053,3.1305,3.0496,2.9952,3.0705,3.096,3.1065,3.1373,3.1602,3.177,3.1392,3.0242,2.9452,2.9718,2.747,2.5659,2.6952,2.7659,2.814,2.814,2.8856,2.5388,1.2536,1.1429,0.6532,-0.9969,-2.0742,-2.8369,-3.2319,-4.2299,-4.8702,-4.842,-4.7471,-4.7066,-4.7473,-4.7439,-4.7572,-4.8063,-4.861,-4.8837,-4.8938,-4.9924,-5.066,-5.1124,-5.2524,-5.3844,-5.4935,-5.5076,-5.5281,-5.5667,-5.7399,-5.8535,-5.9168,-6.0762,-6.1335,-6.1171,-6.2142,-6.2263,-6.1992,-6.3013,-6.3641,-6.4089,-6.5039,-6.5405,-6.5456,4.4529,4.5086,4.5669,4.5958,4.5958,4.6126,4.6704,4.6511,4.6617,4.7458,4.7613,4.7841,4.8551,4.8967,4.8787,4.824,4.716,4.5797,4.4298,4.2936,4.1714,4.0882,4.0882,4.0882,4.0882,3.9992,3.9537,3.9537,3.8626,3.8191,3.8191,3.8191,3.8191,3.8191,3.8191,3.7348,3.5802,3.469,3.3605,3.2491,3.1401,3.1135,3.17,3.1965,3.2403,3.2841,3.34,3.3817,3.3955,3.2963,3.2246,3.1614,3.1097,3.0445,2.9952,3.0635,3.0763,3.0774,3.1351,3.1351,3.1142,3.1243,3.0238,2.9278,2.9842,2.8002,2.6432,2.7418,2.7779,2.802,2.802,2.8856,2.7231,2.0114,1.9735,1.5076,0.0,-1.1957,-2.4596,-3.9199,-4.5659,-4.8798,-4.8547,-4.7836,-4.7404,-4.7638,-4.7605,-4.7737,-4.8161,-4.8547,-4.8769,-4.8644,-4.966,-5.0524,-5.1162,-5.2898,-5.432,-5.5485,-5.6406,-5.6917,-5.6909,-5.8055,-5.9151,-6.0033,-6.0788,-6.1168,-6.1336,-6.1649,-6.1715,-6.1657,-6.2444,-6.328,-6.4211,-6.541,-6.5842,-6.589]}]]